[[{"header":{"parameterUnit":"m.s-1","parameterCategory":1,"la1":30.6,"la2":28.766,"lo1":-90.7593,"lo2":-88.6598,"dy":0.0162,"dx":0.0183,"nx":116,"ny":114,"refTime":"2023-04-24T18:00:00:Z","depth":0,"parameterNumber":2,"parameterNumberName":"U-component_of_WINDS"},"data":[0.0,0.0,0.0,0.0,0.0,0.0,0.0,0.0,0.0,0.0,0.0,0.0,0.0,0.0,0.0,0.0,0.0,0.0,0.0,0.0,0.0,0.0,0.0,0.0,0.0,0.0,0.0,0.0,0.0,0.0,0.0,0.0,0.0,0.0,0.0,0.0,0.0,0.0,0.0,0.0,0.0,0.0,0.0,0.0,0.0,0.0,0.0,0.0,0.0,0.0,0.0,0.0,0.0,0.0,0.0,0.0,0.0,0.0,0.0,0.0,0.0,0.0,0.0,0.0,0.0,0.0,0.0,0.0,0.0,0.0,0.0,0.0,0.0,0.0,0.0,0.0,0.0,0.0,0.0,0.0,0.0,0.0,0.0,0.0,0.0,0.0,0.0,0.0,0.0,0.0,0.0,0.0,0.0,0.0,0.0,0.0,0.0,0.0,0.0,0.0,0.0,0.0,0.0,0.0,0.0,0.0,0.0,0.0,0.0,0.0,0.0,0.0,0.0,0.0,0.0,0.0,0.0,0.0,0.0,0.0,0.0,0.0,0.0,0.0,0.0,0.0,0.0,0.0,0.0,0.0,0.0,0.0,0.0,0.0,0.0,0.0,0.0,0.0,0.0,0.0,0.0,0.0,0.0,0.0,0.0,0.0,0.0,0.0,0.0,0.0,0.0,0.0,0.0,0.0,0.0,0.0,0.0,0.0,0.0,0.0,0.0,0.0,0.0,0.0,0.0,0.0,0.0,0.0,0.0,0.0,0.0,0.0,0.0,0.0,0.0,0.0,0.0,0.0,0.0,0.0,0.0,0.0,0.0,0.0,0.0,0.0,0.0,0.0,0.0,0.0,0.0,0.0,0.0,0.0,0.0,0.0,0.0,0.0,0.0,0.0,0.0,0.0,0.0,0.0,0.0,0.0,0.0,0.0,0.0,0.0,0.0,0.0,0.0,0.0,0.0,0.0,0.0,0.0,0.0,0.0,0.0,0.0,0.0,0.0,0.0,0.0,0.0,0.0,0.0,0.0,0.0,0.0,0.0,0.0,0.0,0.0,0.0,0.0,0.0,0.0,0.0,0.0,0.0,0.0,0.0,0.0,0.0,0.0,0.0,0.0,0.0,0.0,0.0,0.0,0.0,0.0,0.0,0.0,0.0,0.0,0.0,0.0,0.0,0.0,0.0,0.0,0.0,0.0,0.0,0.0,0.0,0.0,0.0,0.0,0.0,0.0,0.0,0.0,0.0,0.0,0.0,0.0,0.0,0.0,0.0,0.0,0.0,0.0,0.0,0.0,0.0,0.0,0.0,0.0,0.0,0.0,0.0,0.0,0.0,0.0,0.0,0.0,0.0,0.0,0.0,0.0,0.0,0.0,0.0,0.0,0.0,0.0,0.0,0.0,0.0,0.0,0.0,0.0,0.0,0.0,0.0,0.0,0.0,0.0,0.0,0.0,0.0,0.0,0.0,0.0,0.0,0.0,0.0,0.0,0.0,0.0,0.0,0.0,0.0,0.0,0.0,0.0,0.0,0.0,0.0,0.0,0.0,0.0,0.0,0.0,0.0,0.0,0.0,0.0,0.0,0.0,0.0,0.0,0.0,0.0,0.0,0.0,0.0,0.0,0.0,0.0,0.0,0.0,0.0,0.0,0.0,0.0,0.0,0.0,0.0,0.0,0.0,0.0,0.0,0.0,0.0,0.0,0.0,0.0,0.0,0.0,0.0,0.0,0.0,0.0,0.0,0.0,0.0,0.0,0.0,0.0,0.0,0.0,0.0,0.0,0.0,0.0,0.0,0.0,0.0,0.0,0.0,0.0,0.0,0.0,0.0,0.0,0.0,0.0,0.0,0.0,0.0,0.0,0.0,0.0,0.0,0.0,0.0,0.0,0.0,0.0,0.0,0.0,0.0,0.0,0.0,0.0,0.0,0.0,0.0,0.0,0.0,0.0,0.0,0.0,0.0,0.0,0.0,0.0,0.0,0.0,0.0,0.0,0.0,0.0,0.0,0.0,0.0,0.0,0.0,0.0,0.0,0.0,0.0,0.0,0.0,0.0,0.0,0.0,0.0,0.0,0.0,0.0,0.0,0.0,0.0,0.0,0.0,0.0,0.0,0.0,0.0,0.0,0.0,0.0,0.0,0.0,0.0,0.0,0.0,0.0,0.0,0.0,0.0,0.0,0.0,0.0,0.0,0.0,0.0,0.0,0.0,0.0,0.0,0.0,0.0,0.0,0.0,0.0,0.0,0.0,0.0,0.0,0.0,0.0,0.0,0.0,0.0,0.0,0.0,0.0,0.0,0.0,0.0,0.0,0.0,0.0,0.0,0.0,0.0,0.0,0.0,0.0,0.0,0.0,0.0,0.0,0.0,0.0,0.0,0.0,0.0,0.0,0.0,0.0,0.0,0.0,0.0,0.0,0.0,0.0,0.0,0.0,0.0,0.0,0.0,0.0,0.0,0.0,0.0,0.0,0.0,0.0,0.0,0.0,0.0,0.0,0.0,0.0,0.0,0.0,0.0,0.0,0.0,0.0,0.0,0.0,0.0,0.0,0.0,0.0,0.0,0.0,0.0,0.0,0.0,0.0,0.0,0.0,0.0,0.0,0.0,0.0,0.0,0.0,0.0,0.0,0.0,0.0,0.0,0.0,0.0,0.0,0.0,0.0,0.0,0.0,0.0,0.0,0.0,0.0,0.0,0.0,0.0,0.0,0.0,0.0,0.0,0.0,0.0,0.0,0.0,0.0,0.0,0.0,0.0,0.0,0.0,0.0,0.0,0.0,0.0,0.0,0.0,0.0,0.0,0.0,0.0,0.0,0.0,0.0,0.0,0.0,0.0,0.0,0.0,0.0,0.0,0.0,0.0,0.0,0.0,0.0,0.0,0.0,0.0,0.0,0.0,0.0,0.0,0.0,0.0,0.0,0.0,0.0,0.0,0.0,0.0,0.0,0.0,0.0,0.0,0.0,0.0,0.0,0.0,0.0,0.0,0.0,0.0,0.0,0.0,0.0,0.0,0.0,0.0,0.0,0.0,0.0,0.0,0.0,0.0,0.0,0.0,0.0,0.0,0.0,0.0,0.0,0.0,0.0,0.0,0.0,0.0,0.0,0.0,0.0,0.0,0.0,0.0,0.0,0.0,0.0,0.0,0.0,0.0,0.0,0.0,0.0,0.0,0.0,0.0,0.0,0.0,0.0,0.0,0.0,0.0,0.0,0.0,0.0,0.0,0.0,0.0,0.0,0.0,0.0,0.0,0.0,0.0,0.0,0.0,0.0,0.0,0.0,0.0,0.0,0.0,0.0,0.0,0.0,0.0,0.0,0.0,0.0,0.0,0.0,0.0,0.0,0.0,0.0,0.0,0.0,0.0,0.0,0.0,0.0,0.0,0.0,0.0,0.0,0.0,0.0,0.0,0.0,0.0,0.0,0.0,0.0,0.0,0.0,0.0,0.0,0.0,0.0,0.0,0.0,0.0,0.0,0.0,0.0,0.0,0.0,0.0,0.0,0.0,0.0,0.0,0.0,0.0,0.0,0.0,0.0,0.0,0.0,0.0,0.0,0.0,0.0,0.0,0.0,0.0,0.0,0.0,0.0,0.0,0.0,0.0,0.0,0.0,0.0,0.0,0.0,0.0,0.0,0.0,0.0,0.0,0.0,0.0,0.0,0.0,0.0,0.0,0.0,0.0,0.0,0.0,0.0,0.0,0.0,0.0,0.0,0.0,0.0,0.0,0.0,0.0,0.0,0.0,0.0,0.0,0.0,0.0,0.0,0.0,0.0,0.0,0.0,0.0,0.0,0.0,0.0,0.0,0.0,0.0,0.0,0.0,0.0,0.0,0.0,0.0,0.0,0.0,0.0,0.0,0.0,0.0,0.0,0.0,0.0,0.0,0.0,0.0,0.0,0.0,0.0,0.0,0.0,0.0,0.0,0.0,0.0,0.0,0.0,0.0,0.0,0.0,0.0,0.0,0.0,0.0,0.0,0.0,0.0,0.0,0.0,0.0,0.0,0.0,0.0,0.0,0.0,0.0,0.0,0.0,0.0,0.0,0.0,0.0,0.0,0.0,0.0,0.0,0.0,0.0,0.0,0.0,0.0,0.0,0.0,0.0,0.0,0.0,0.0,0.0,0.0,0.0,0.0,0.0,0.0,0.0,0.0,0.0,0.0,0.0,0.0,0.0,0.0,0.0,0.0,0.0,0.0,0.0,0.0,0.0,0.0,0.0,0.0,0.0,0.0,0.0,0.0,0.0,0.0,0.0,0.0,0.0,0.0,0.0,0.0,0.0,0.0,0.0,0.0,0.0,0.0,0.0,0.0,0.0,0.0,0.0,0.0,0.0,0.0,0.0,0.0,0.0,0.0,0.0,0.0,0.0,0.0,0.0,0.0,0.0,0.0,0.0,0.0,0.0,0.0,0.0,0.0,0.0,0.0,0.0,0.0,0.0,0.0,0.0,0.0,0.0,0.0,0.0,0.0,0.0,0.0,0.0,0.0,0.0,0.0,0.0,0.0,0.0,0.0,0.0,0.0,0.0,0.0,0.0,0.0,0.0,0.0,0.0,0.0,0.0,0.0,0.0,0.0,0.0,0.0,0.0,0.0,0.0,0.0,0.0,0.0,0.0,0.0,0.0,0.0,0.0,0.0,0.0,0.0,0.0,0.0,0.0,0.0,0.0,0.0,0.0,0.0,0.0,0.0,0.0,0.0,0.0,0.0,0.0,0.0,0.0,0.0,0.0,0.0,0.0,0.0,0.0,0.0,0.0,0.0,0.0,0.0,0.0,0.0,0.0,0.0,0.0,0.0,0.0,0.0,0.0,0.0,0.0,0.0,0.0,0.0,0.0,0.0,0.0,0.0,0.0,0.0,0.0,0.0,0.0,0.0,0.0,0.0,0.0,0.0,0.0,0.0,0.0,0.0,0.0,0.0,0.0,0.0,0.0,0.0,0.0,0.0,0.0,0.0,0.0,0.0,0.0,0.0,0.0,0.0,0.0,0.0,0.0,0.0,0.0,0.0,0.0,0.0,0.0,0.0,0.0,0.0,0.0,0.0,0.0,0.0,0.0,0.0,0.0,0.0,0.0,0.0,0.0,0.0,0.0,0.0,0.0,0.0,0.0,0.0,0.0,0.0,0.0,0.0,0.0,0.0,0.0,0.0,0.0,0.0,0.0,0.0,0.0,0.0,0.0,0.0,0.0,0.0,0.0,0.0,0.0,0.0,0.0,0.0,0.0,0.0,0.0,0.0,0.0,0.0,0.0,0.0,0.0,0.0,0.0,0.0,0.0,0.0,0.0,0.0,0.0,0.0,0.0,0.0,0.0,0.0,0.0,0.0,0.0,0.0,0.0,0.0,0.0,0.0,0.0,0.0,0.0,0.0,0.0,0.0,0.0,0.0,0.0,0.0,0.0,0.0,0.0,0.0,0.0,0.0,0.0,0.0,0.0,0.0,0.0,0.0,0.0,0.0,0.0,0.0,0.0,0.0,0.0,0.0,0.0,0.0,0.0,0.0,0.0,0.0,0.0,0.0,0.0,0.0,0.0,0.0,0.0,0.0,0.0,0.0,0.0,0.0,0.0,0.0,0.0,0.0,0.0,0.0,0.0,0.0,0.0,0.0,0.0,0.0,0.0,0.0,0.0,0.0,0.0,0.0,0.0,0.0,0.0,0.0,0.0,0.0,0.0,0.0,0.0,0.0,0.0,0.0,0.0,0.0,0.0,0.0,0.0,0.0,0.0,0.0,0.0,0.0,0.0,0.0,0.0,0.0,0.0,0.0,0.0,0.0,0.0,0.0,0.0,0.0,0.0,0.0,0.0,0.0,0.0,0.0,0.0,0.0,0.0,0.0,0.0,0.0,0.0,0.0,0.0,0.0,0.0,0.0,0.0,0.0,0.0,0.0,0.0,0.0,0.0,0.0,0.0,0.0,0.0,0.0,0.0,0.0,0.0,0.0,0.0,0.0,0.0,0.0,0.0,0.0,0.0,0.0,0.0,0.0,0.0,0.0,0.0,0.0,0.0,0.0,0.0,0.0,0.0,0.0,0.0,0.0,0.0,0.0,0.0,0.0,0.0,0.0,0.0,0.0,0.0,0.0,0.0,0.0,0.0,0.0,1.59,1.4501,0.0,0.0,0.0,0.0,0.0,0.0,0.0,0.0,0.0,0.0,0.0,0.0,0.0,0.0,0.0,0.0,0.0,0.0,0.0,0.0,0.0,0.0,0.0,0.0,0.0,0.0,0.0,0.0,0.0,0.0,0.0,0.0,0.0,0.0,0.0,0.0,0.0,1.2131,1.2801,1.3921,1.5437,1.4969,1.4616,1.4344,0.0,0.0,0.0,0.0,0.0,0.0,0.0,0.0,0.0,0.0,0.0,0.0,0.0,0.0,0.0,0.0,0.0,0.0,0.0,0.0,0.0,0.0,0.0,0.0,0.0,0.0,0.0,0.0,0.0,0.0,0.0,0.0,0.0,0.0,0.0,0.0,0.0,0.0,0.0,0.0,0.0,0.0,0.0,0.0,0.0,0.0,0.0,0.0,0.0,0.0,0.0,0.0,0.0,0.0,0.0,0.0,0.0,0.0,0.0,0.0,0.0,0.0,0.0,0.0,0.0,0.0,0.0,0.0,0.0,0.0,1.7688,1.6512,0.0,0.0,0.0,0.0,0.0,0.0,0.0,0.0,0.0,0.0,0.0,0.0,0.0,0.0,0.0,0.0,0.0,0.0,0.0,0.0,0.0,0.0,0.0,0.9978,1.0222,1.0989,1.0445,1.0356,0.0,0.0,0.0,0.0,0.0,0.0,0.0,1.1398,1.1813,1.2681,1.3852,1.5468,1.7462,1.7849,1.7631,1.6879,1.5962,0.0,0.0,0.0,0.0,0.0,0.0,0.0,0.0,0.0,0.0,0.0,0.0,0.0,0.0,0.0,0.0,0.0,0.0,0.0,0.0,0.0,0.0,0.0,0.0,0.0,0.0,0.0,0.0,0.0,0.0,0.0,0.0,0.0,0.0,0.0,0.0,0.0,0.0,0.0,0.0,0.0,0.0,0.0,0.0,0.0,0.0,0.0,0.0,0.0,0.0,0.0,0.0,0.0,0.0,0.0,0.0,0.0,0.0,0.0,0.0,0.0,0.0,0.0,2.1073,2.1066,2.0468,2.0468,2.0843,2.1412,2.0199,1.9342,1.8737,1.7669,0.0,0.0,0.0,0.0,0.0,0.0,0.0,0.0,0.0,0.0,0.0,0.0,0.0,0.0,0.0,0.0,0.0,0.0,0.0,0.0,0.0,1.0201,1.0694,1.1597,1.1272,1.1356,1.2146,0.0,0.0,0.0,0.0,0.0,1.19,1.2072,1.2688,1.3794,1.6687,1.8898,2.0448,2.0787,2.1088,2.124,1.8864,1.7513,1.7057,0.0,0.0,0.0,0.0,0.0,0.0,0.0,0.0,0.0,0.0,0.0,0.0,0.0,0.0,0.0,0.0,0.0,0.0,0.0,0.0,0.0,0.0,0.0,0.0,0.0,0.0,0.0,0.0,0.0,0.0,0.0,0.0,0.0,0.0,0.0,0.0,0.0,0.0,0.0,0.0,0.0,1.3277,1.3214,0.0,0.0,0.0,0.0,0.0,0.0,0.0,0.0,0.0,0.0,0.0,0.0,0.0,2.0459,2.1796,2.2863,2.3493,2.3787,2.5369,2.5881,2.545,2.545,2.5306,2.5011,2.4823,0.0,1.9761,1.996,0.0,0.0,0.0,0.0,0.0,0.0,0.0,0.0,0.0,0.0,0.0,0.0,0.0,0.0,0.0,0.0,0.0,0.0,0.0,0.0,0.0,1.1975,1.2947,1.4782,1.4826,1.4633,1.4333,1.3807,0.0,0.0,0.0,1.18,1.2222,1.309,1.4786,1.7325,1.9524,2.1388,2.2918,2.3066,2.338,2.3771,2.2341,2.0671,1.8885,1.7873,0.0,0.0,0.0,0.0,0.0,0.0,0.0,0.0,0.0,0.0,0.0,0.0,0.0,0.0,0.0,0.0,0.0,0.0,0.0,0.0,0.0,0.0,0.0,0.0,0.0,0.0,0.0,0.0,0.0,0.0,0.0,0.0,0.0,0.0,0.0,0.0,0.0,0.0,0.0,1.3276,1.3362,1.2993,1.3382,1.3686,0.0,0.0,0.0,0.0,0.0,0.0,0.0,0.0,0.0,2.3003,2.2726,2.321,2.4552,2.5505,2.6071,2.6285,2.7258,2.7637,2.7461,2.7461,2.7226,2.6816,2.6816,2.5583,2.3434,2.2056,2.0512,1.8991,0.0,0.0,0.0,0.0,2.0193,2.0328,0.0,0.0,0.0,0.0,0.0,0.0,0.0,0.0,0.0,0.0,0.0,0.0,1.307,1.4002,1.5449,1.7872,1.795,1.7592,1.6939,1.6265,1.5404,1.4311,1.3397,1.3174,1.369,1.524,1.7586,2.0757,2.2131,2.3641,2.521,2.4737,2.4958,2.5727,2.4756,2.3012,2.0691,1.957,1.8281,1.6951,0.0,0.0,0.0,0.0,0.0,0.0,0.0,0.0,0.0,0.0,0.0,0.0,0.0,0.0,0.0,0.0,0.0,0.0,0.0,0.0,0.0,0.0,0.0,0.0,0.0,0.0,0.0,0.0,0.0,0.0,0.0,0.0,0.0,0.0,0.0,0.0,0.0,1.3882,1.3813,1.3081,1.3595,1.3899,0.0,0.0,0.0,0.0,0.0,0.0,2.0941,2.2221,2.3789,2.5722,2.5756,2.6363,2.7695,2.8367,2.8738,2.8855,2.9023,2.9062,2.8945,2.8828,2.8582,2.8171,2.8171,2.7761,2.6838,2.4199,2.2534,2.1612,2.1058,2.0651,2.056,2.1802,2.2193,2.2309,0.0,0.0,0.0,0.0,0.0,0.0,0.0,0.0,0.0,0.0,0.0,1.1956,1.384,1.5703,1.7672,1.9774,1.9258,1.9124,1.985,1.8382,1.7362,1.7101,1.6019,1.5976,1.7222,1.9181,2.1154,2.314,2.4349,2.5845,2.75,2.5648,2.5763,2.7474,2.5138,2.3541,2.2549,2.2147,2.0311,1.7618,1.7116,0.0,0.0,0.0,0.0,0.0,0.0,0.0,0.0,0.0,0.0,0.0,0.0,0.0,0.0,0.0,0.0,0.0,0.0,0.0,0.0,0.0,0.0,0.0,0.0,0.0,0.0,0.0,0.0,0.0,0.0,0.0,0.0,0.0,0.0,0.0,0.0,0.0,0.0,1.4136,1.5343,0.0,0.0,0.0,0.0,1.6022,1.8222,2.0338,2.2021,2.3863,2.6253,2.9264,2.9331,2.9934,3.122,3.1309,3.1523,3.1964,3.1543,3.1152,3.0742,3.0293,2.9863,2.95,2.95,2.9246,2.8606,2.6423,2.4833,2.3751,2.3831,2.3256,2.2494,2.3565,2.4042,2.422,0.0,0.0,0.0,0.0,0.0,0.0,0.0,0.0,0.9126,1.0372,1.1806,1.3983,1.735,1.9314,2.1414,2.3942,2.3612,2.2593,2.1043,2.0608,1.9108,1.6144,1.6859,1.8304,2.0353,2.1568,2.2939,2.4509,2.5514,2.5919,2.5747,2.5075,2.4984,2.5353,2.4497,2.3492,2.2434,2.2369,2.0807,1.8387,1.7889,1.6285,0.0,0.0,0.0,0.0,0.0,0.0,0.0,0.0,0.0,0.0,0.0,0.0,0.0,0.0,0.0,0.0,0.0,0.0,0.0,0.0,0.0,0.0,0.0,0.0,0.0,0.0,0.0,0.0,0.0,0.0,0.0,0.0,0.0,0.0,0.0,0.0,0.0,1.6245,1.7106,0.0,1.6641,1.818,1.9441,1.9942,2.3279,2.5852,2.7216,2.9016,3.0642,3.2001,3.2051,3.2148,3.2344,3.2344,3.2285,3.2198,3.2042,3.1719,3.1289,3.1113,3.0664,3.0009,3.0009,2.9726,2.9277,2.8516,2.7477,2.6331,2.6066,2.5566,2.5093,2.573,2.5842,2.5706,0.0,0.0,0.0,0.0,0.0,0.0,0.0,0.0,0.9213,1.0818,1.2521,1.507,1.8867,2.0952,2.2988,2.5245,2.4854,2.3653,2.1635,2.1163,1.9615,1.6577,1.8033,1.9591,2.106,2.2494,2.3817,2.5013,2.5618,2.5651,2.511,2.4322,2.4146,2.4469,2.3834,2.3118,2.2379,2.2293,2.0947,1.8837,1.8383,1.704,1.5288,0.0,0.0,0.0,0.0,0.0,0.0,0.0,0.0,0.0,0.0,0.0,0.0,0.0,0.0,0.0,0.0,0.0,0.0,0.0,0.0,0.0,0.0,0.0,0.0,0.0,0.0,0.0,0.0,0.0,0.0,0.0,0.0,0.0,0.0,1.8171,1.9173,1.7963,1.8885,1.962,1.9598,2.1184,2.2871,2.4377,2.7634,2.9947,3.0801,3.2638,3.3789,3.4082,3.405,3.3945,3.3672,3.3516,3.3223,3.2843,3.2687,3.2285,3.1738,3.1582,3.1113,3.043,3.043,3.0273,3.0048,3.0048,2.954,2.8718,2.8105,2.7715,2.7526,2.7773,2.7695,2.7487,0.0,0.0,0.0,0.0,0.0,0.0,0.0,0.9012,0.9587,1.096,1.2725,1.5078,1.823,2.05,2.2284,2.3533,2.2687,2.1978,2.1676,1.992,1.8866,1.8749,1.9598,1.9885,1.9459,2.2076,2.3865,2.4685,2.4685,2.5087,2.5802,2.3548,2.344,2.5082,2.3275,2.2468,2.2424,2.2112,2.0851,1.9006,1.8613,1.7745,1.6628,0.0,0.0,0.0,0.0,0.0,0.0,0.0,0.0,0.0,0.0,0.0,0.0,0.0,0.0,0.0,0.0,0.0,0.0,0.0,0.0,0.0,0.0,0.0,0.0,0.0,0.0,0.0,0.0,0.0,0.0,0.0,0.0,0.0,1.7642,1.8865,1.9819,1.9199,2.0695,2.2231,2.3362,2.4572,2.6341,2.897,3.088,3.2118,3.2472,3.4361,3.5469,3.5488,3.5469,3.5449,3.5449,3.498,3.4531,3.4134,3.3672,3.3027,3.2218,3.1777,3.1348,3.0937,3.0937,3.0937,3.0937,3.0937,3.0918,3.082,2.997,2.9637,2.9618,2.9618,2.9618,2.9481,0.0,0.0,0.0,0.0,0.0,0.0,0.8745,0.878,0.9572,1.1686,1.401,1.6682,1.9908,2.2159,2.375,2.4478,2.3064,2.159,2.0416,1.9527,1.9323,1.9896,1.9668,2.0632,2.3007,2.4017,2.4501,2.4497,2.4497,2.3899,2.2794,2.2163,2.1978,2.223,2.1961,2.1717,2.1479,2.1383,2.0898,2.0187,1.9587,1.8426,1.7066,0.0,0.0,0.0,0.0,0.0,0.0,0.0,0.0,0.0,0.0,0.0,0.0,0.0,0.0,0.0,0.0,0.0,0.0,0.0,0.0,0.0,0.0,0.0,0.0,0.0,0.0,0.0,0.0,0.0,0.0,0.0,1.9239,2.0471,1.9325,2.1444,2.2845,2.2187,2.451,2.6357,2.6898,2.9552,3.1751,3.3017,3.449,3.5666,3.6307,3.6611,3.7051,3.7711,3.709,3.6777,3.6777,3.6035,3.5449,3.5019,3.457,3.3906,3.3066,3.2918,3.25,3.1846,3.1846,3.1846,3.1846,3.1846,3.1621,3.1289,3.0742,3.0312,3.0019,3.0019,2.9852,2.9559,0.0,0.0,0.0,0.0,0.0,0.0,0.8786,0.8928,0.9809,1.2087,1.4322,1.6802,1.9576,2.1416,2.2493,2.2577,2.1558,2.0193,1.8459,1.8165,1.8431,1.9315,1.9664,2.0854,2.3037,2.374,2.389,2.3544,2.3544,2.3013,2.1943,2.1823,2.171,2.1657,2.1743,2.1676,2.1483,2.1483,2.1376,2.1186,2.0706,1.9775,1.8642,1.8351,1.7851,1.7342,1.7726,1.7235,1.6455,1.6951,0.0,0.0,0.0,0.0,0.0,0.0,0.0,0.0,0.0,0.0,0.0,0.0,0.0,0.0,0.0,0.0,0.0,0.0,0.0,0.0,0.0,0.0,0.0,0.0,2.0891,2.2318,2.2118,2.342,2.4364,2.4241,2.6712,2.8952,3.02,3.3031,3.5374,3.677,3.7583,3.8144,3.8437,3.8418,3.8516,3.8828,3.8359,3.8008,3.7832,3.7168,3.6426,3.5664,3.5391,3.4609,3.3406,3.3613,3.3144,3.2218,3.2394,3.2374,3.2198,3.2198,3.2042,3.1758,0.0,0.0,0.0,0.0,3.0215,2.974,0.0,0.0,0.0,0.0,0.0,0.0,0.8976,0.9262,1.017,1.2231,1.4095,1.6025,1.8117,1.9412,1.985,1.9225,1.9056,1.8244,1.6415,1.663,1.7206,1.8116,1.9852,2.0979,2.1349,2.2452,2.2867,2.2565,2.2565,2.2552,2.2512,2.2258,2.2258,2.2458,2.2231,2.2138,2.2138,2.2138,2.2138,2.2111,2.185,2.1341,2.0605,1.9527,1.9518,2.0039,1.9596,1.8962,1.8318,1.7921,0.0,0.0,0.0,0.0,0.0,0.0,0.0,0.0,0.0,0.0,0.0,0.0,0.0,0.0,0.0,0.0,0.0,0.0,0.0,0.0,0.0,0.0,0.0,0.0,2.312,2.4904,2.5227,2.5077,2.5079,2.5598,2.8091,3.0661,3.3006,3.5454,3.7745,3.9809,3.9922,3.9726,3.9375,3.9707,0.0,0.0,0.0,3.9121,3.8845,3.8262,3.7386,3.6309,3.6177,3.5312,3.3699,3.4121,3.3645,3.2511,3.2851,3.2793,3.2472,3.2433,3.2355,3.2218,3.1699,3.1289,3.0957,3.0918,3.0509,2.9795,0.0,0.0,0.0,0.0,0.0,0.0,0.9085,0.9434,1.0327,1.2249,1.4159,1.5893,1.73,1.8705,1.9048,1.7806,1.7395,1.6946,1.6337,1.7447,1.8613,1.9709,2.1239,2.2318,2.2852,2.3354,2.3603,2.3549,2.3549,2.338,2.3118,2.3065,2.2966,2.2813,2.2979,2.306,2.306,2.306,2.306,2.3046,2.2773,2.201,2.0962,2.0502,2.0009,1.9674,2.0515,1.9933,1.8905,1.976,1.9456,1.8835,1.9612,1.9421,0.0,0.0,0.0,0.0,0.0,0.0,0.0,0.0,0.0,0.0,0.0,0.0,0.0,0.0,0.0,0.0,0.0,0.0,0.0,2.2225,2.4111,2.561,2.6386,2.664,2.6707,2.6587,3.0484,3.3427,3.3932,3.7433,3.9912,4.0352,4.0098,4.0,4.0254,4.0039,4.0176,4.0781,4.0117,3.9883,4.0137,3.9023,3.832,3.8102,3.7383,0.0,3.5494,3.5605,3.5117,3.4219,3.4297,3.4277,3.418,3.388,3.3332,3.2598,3.1816,3.1435,3.1318,3.1016,2.9993,2.8703,0.0,0.0,0.0,0.0,0.0,0.0,0.9234,0.9528,1.0276,1.1828,1.3487,1.491,1.5986,1.7063,1.7278,1.6281,1.6132,1.658,1.7729,1.8763,2.0013,2.1483,2.2686,2.3447,2.3754,2.4342,2.4502,2.4209,2.4356,2.4275,2.3945,2.3799,2.3688,2.3576,2.3701,2.3768,2.3781,2.3879,2.3945,2.3932,2.3808,2.3313,2.2579,2.183,2.1269,2.0949,2.1271,2.078,2.0015,2.0186,2.0132,2.0079,2.0845,2.096,2.0637,0.0,0.0,0.0,0.0,0.0,0.0,0.0,0.0,0.0,0.0,0.0,0.0,0.0,0.0,1.9529,2.1156,0.0,2.5183,2.5932,2.7046,2.7647,2.731,2.7388,2.7428,2.7281,3.135,3.4269,3.4451,3.8333,4.084,4.084,4.0644,4.0625,4.084,4.0644,4.0723,4.1211,4.0762,4.0527,4.0489,3.9883,3.9219,3.8611,3.818,3.7383,3.6348,3.6348,3.5879,3.5039,3.5039,3.4785,3.4323,3.2986,3.2198,3.1639,3.0101,2.9843,3.028,3.0073,2.8816,2.7073,0.0,0.0,0.0,0.0,0.0,0.0,0.0,0.9597,1.0172,1.1479,1.2709,1.374,1.4558,1.519,1.5324,1.4724,1.5188,1.6507,1.8891,2.0037,2.139,2.3081,2.3981,2.4462,2.4462,2.5144,2.5277,2.4773,2.505,2.5037,2.4759,2.4569,2.4462,2.4462,2.4462,2.4462,2.4476,2.4666,2.4799,2.4853,2.4853,2.4756,2.4422,2.3354,2.2752,2.2432,2.1943,2.1448,2.0922,2.0267,2.0481,2.1089,2.1465,2.1821,2.179,2.0395,2.0648,0.0,0.0,0.0,0.0,0.0,0.0,0.0,0.0,1.6827,1.7154,1.8594,2.0376,2.2332,2.4385,2.6849,2.8609,2.8726,2.9233,2.9197,2.7944,2.7789,2.7789,2.7789,3.1248,3.3758,3.401,3.7618,4.0099,4.0509,4.0548,4.0763,4.1172,4.1211,4.1211,4.1211,4.1211,4.0802,4.0009,4.0317,3.9564,3.7705,3.8383,3.7925,3.6451,3.6759,3.6445,3.5644,3.5547,3.486,3.3641,3.1805,3.0789,3.0195,2.8354,2.7927,2.8359,2.8597,2.7419,2.5492,0.0,0.0,0.0,0.0,0.0,0.0,0.0,0.0,1.0209,1.1689,1.2449,1.3025,1.336,1.3794,1.3807,1.3197,1.4637,1.6313,1.8037,2.0672,2.2739,2.3995,2.4903,2.5371,2.5371,2.5464,2.5478,2.5411,2.5451,2.5451,2.5411,2.5384,2.5371,2.5371,2.5371,2.5371,2.5371,2.5398,2.5571,2.585,2.585,2.5824,2.573,2.5037,2.3968,2.28,2.2445,2.163,2.0779,2.0909,2.068,2.0569,2.2197,2.1714,2.0514,2.031,1.9276,1.7903,1.6406,1.6276,1.6774,1.7761,1.7479,1.7994,0.0,2.1288,2.0705,2.3923,2.3997,2.3757,2.4471,2.5558,2.6528,2.6998,2.7568,2.7999,2.8127,2.8138,2.8138,2.8138,3.0244,3.1718,3.1764,3.4002,3.6241,3.8152,3.8271,3.9119,4.1094,4.1211,4.1211,4.1211,4.1211,4.0237,3.8198,3.9739,3.8488,3.4559,3.767,3.7851,3.552,3.7047,3.7324,3.6538,3.6113,3.4678,3.265,3.215,3.0721,2.881,2.8312,2.7082,2.5691,2.6758,2.6057,2.4555,0.0,0.0,0.0,0.0,0.0,0.0,0.0,0.0,0.0,1.087,1.1424,1.1801,1.1904,1.227,1.2472,1.238,1.4647,1.6754,1.8423,2.1277,2.3519,2.4903,2.5478,2.5692,2.5518,2.5852,2.5945,2.5772,2.5945,2.6026,2.6026,2.6026,2.5932,2.5824,2.5945,2.6026,2.6039,2.6199,2.6453,2.676,2.676,2.6546,2.6185,2.5558,2.4193,2.2559,2.2268,2.1443,0.0,2.0534,2.0297,2.0271,2.1956,2.1833,2.0945,2.0499,2.0411,2.0588,2.1043,2.0116,1.9347,2.0903,2.0828,2.0804,2.2391,2.2236,2.2415,2.4759,2.6113,2.7463,2.9564,3.0351,3.0837,3.131,3.0527,2.9466,2.8376,2.8179,2.8125,2.7951,2.8896,3.001,3.1283,3.339,3.5056,3.5943,3.604,3.6442,3.7379,3.7419,3.7419,3.7419,3.7419,3.698,3.604,3.6764,3.6095,3.4027,3.5314,3.5246,3.3932,3.4208,3.4541,3.4838,3.4221,3.3387,3.23,2.9797,2.8196,2.718,2.5882,2.4838,2.419,2.5419,2.4645,2.3014,0.0,0.0,0.0,0.0,0.0,0.0,0.0,0.0,0.0,0.0,1.0618,1.0902,1.0916,1.123,1.1579,1.1866,1.437,1.6711,1.8543,2.1283,2.3607,2.5317,2.5797,2.5931,2.5758,2.6253,2.6413,2.6238,2.6533,2.6627,2.6627,2.6547,2.644,2.6359,2.6453,2.6547,2.664,2.6854,2.7121,2.7416,2.7336,2.6961,2.6293,2.5388,2.3888,2.2269,2.2082,2.1133,2.0019,1.9977,1.9841,1.985,2.094,2.1038,2.061,1.9924,2.0458,2.1594,2.3097,2.2262,2.1377,2.3004,2.329,2.3128,2.3108,2.3463,2.4173,2.5548,2.7315,2.9552,3.2563,3.321,3.3371,3.3725,3.2463,3.0661,2.8516,2.8112,2.7951,2.7615,2.7737,2.8454,3.011,3.1863,3.3145,3.3757,3.3798,3.4042,3.4651,3.4692,3.4692,3.4692,3.4692,3.4408,3.3798,3.4408,3.3912,3.2401,3.3199,3.3094,3.2177,3.1907,3.2292,3.3052,3.2351,3.1739,3.0991,2.7877,2.6252,2.5639,2.4034,2.3447,2.3534,2.4431,2.3669,2.2265,0.0,0.0,0.0,0.0,0.0,0.0,0.0,0.0,0.0,0.0,0.0,0.0,0.0,1.0958,1.1244,1.1584,1.3532,1.5681,1.7876,2.0311,2.2679,2.4997,2.569,2.6118,2.636,2.6653,2.676,2.68,2.7094,2.7282,2.7269,2.6947,2.6961,2.7255,2.6934,2.6974,2.7282,2.7282,2.7415,2.7669,2.7416,2.6961,2.6187,2.4486,2.31,2.2002,2.2012,2.085,1.9337,1.9407,1.9367,1.928,1.9066,1.8804,1.8528,1.8181,1.8096,1.8403,1.9618,2.034,2.107,2.2553,2.3351,2.4147,2.5569,2.6092,2.656,2.7442,2.767,2.851,3.1013,3.1501,3.1475,3.1516,3.1433,3.0661,2.8516,2.7938,2.7602,2.7349,2.7028,2.7015,2.7377,2.8011,2.9244,3.1366,3.1516,3.2463,3.457,3.4692,3.4692,3.4692,3.4692,3.3676,3.1516,3.3635,3.2587,2.8404,3.1929,3.2475,3.0415,3.1373,3.1832,3.1803,3.1152,2.9788,2.7967,2.7272,2.5927,2.4227,2.391,2.379,2.379,2.3848,2.3423,2.2867,0.0,0.0,0.0,0.0,0.0,0.0,0.0,0.0,0.0,0.0,0.0,0.0,0.0,0.0,0.0,0.0,1.3798,1.5451,1.6805,1.9626,2.1871,2.326,2.4823,2.5705,2.5798,2.6279,2.6533,2.6533,2.6827,2.7068,2.7309,2.7362,2.7455,2.7549,2.7442,2.7455,2.7535,2.7389,2.759,2.7938,2.6867,2.6042,2.5279,2.3523,2.202,2.0776,0.0,1.987,1.9083,1.9486,1.9773,1.9859,1.9314,1.9279,1.9243,1.8532,1.8885,1.9892,2.1922,2.2446,2.302,2.5472,2.5685,2.5596,2.6827,2.7188,2.7402,2.7938,2.715,2.6946,2.8873,2.9537,2.9665,2.9272,3.0443,3.0661,2.8516,2.8098,2.7777,2.7054,2.7228,2.7295,2.7001,2.7335,2.8082,2.9174,2.9286,2.9607,3.0343,3.0385,3.0385,3.0385,3.0385,3.0024,2.9286,3.0024,2.9648,2.8221,2.9028,2.8901,2.8007,2.9237,2.983,2.9784,2.9143,2.8483,2.777,2.6115,2.5048,2.4426,2.4168,2.4062,2.4035,2.3884,2.3669,2.3469,0.0,0.0,0.0,0.0,0.0,0.0,0.0,0.0,0.0,0.0,0.0,0.0,0.0,0.0,0.0,0.0,0.0,1.4727,1.5909,1.8103,1.996,2.1269,2.2699,2.3532,2.3638,2.4212,2.4572,2.4674,2.54,2.5879,2.6225,2.6573,2.6881,2.7068,2.6961,2.7041,2.7188,2.6494,2.652,2.6961,2.526,2.4306,2.3763,2.2091,2.0809,0.0,1.9526,1.9401,1.9389,1.9542,1.9668,1.9668,1.9033,1.8732,1.8855,2.002,2.0283,2.0916,2.4281,2.4651,2.4623,2.6829,2.6973,2.6841,2.7655,2.7898,2.7898,2.7871,2.6844,2.644,2.8167,2.853,2.8371,2.7831,2.885,2.9088,2.7382,2.7024,2.6964,2.6987,2.7215,2.7281,2.7001,2.7148,2.755,2.8138,2.8179,2.8179,2.8179,2.8179,2.8179,2.8179,2.8179,2.8179,2.8179,2.8179,2.8138,2.8018,2.7536,2.7108,2.6841,2.7589,2.7931,2.7888,2.7296,2.7024,2.692,2.5265,2.4599,2.4586,2.4399,2.4356,2.4342,2.4155,2.4022,2.3888,0.0,0.0,0.0,0.0,0.0,0.0,0.0,0.0,0.0,0.0,0.0,0.0,0.0,0.0,0.0,0.0,0.0,0.0,1.5177,1.5909,1.7167,1.9147,1.9573,1.992,2.0248,2.0797,2.1235,2.1542,2.2982,2.383,2.4075,2.4649,2.5262,2.5784,2.5451,2.5638,2.6053,2.4671,2.4404,2.4735,2.2722,2.1893,2.1758,2.0273,1.9554,1.9266,1.9002,1.9468,2.0144,1.961,1.9205,1.8781,1.8294,1.7484,1.7655,2.2306,2.2088,2.1393,2.6306,2.6682,2.5852,2.6667,2.7335,2.7816,2.8138,2.8165,2.7965,2.7403,2.6665,2.6692,2.8497,2.8245,2.7577,2.7031,2.6903,2.6572,2.549,2.5065,2.5492,0.0,0.0,0.0,0.0,0.0,2.759,2.8165,2.8192,2.8192,2.8205,2.8192,2.8179,2.8179,2.8179,2.8179,2.8179,2.8179,2.8045,2.7722,2.7469,2.7134,2.6827,2.6547,2.64,2.636,2.5785,2.5531,2.5491,2.4879,2.4639,2.4626,2.4626,2.4613,2.4599,2.4586,2.4412,2.4182,0.0,0.0,0.0,0.0,0.0,0.0,0.0,0.0,0.0,0.0,0.0,0.0,0.0,0.0,0.0,0.0,0.0,0.0,1.3707,1.5114,1.6273,1.706,1.8443,1.924,1.9325,2.0292,2.0761,2.0624,2.1815,2.235,2.2265,2.2639,2.2859,2.3027,2.2913,2.2876,2.2788,2.2429,2.2353,2.2371,2.0953,2.0489,2.0522,1.9233,1.8994,1.9291,1.9222,1.9771,2.0435,2.0115,1.9932,1.9863,1.9991,1.9963,2.0362,2.2469,2.3278,2.3938,2.6118,2.7119,2.7617,2.8043,2.827,2.839,2.847,2.7802,2.7121,2.6961,2.5321,2.3913,2.3964,2.5814,2.6712,2.474,2.7512,2.9332,2.7681,2.7361,0.0,2.7561,0.0,2.7791,2.7602,2.7831,2.8125,2.8457,2.8312,2.8286,2.847,2.8312,2.8179,2.8179,2.8179,2.8179,2.8179,2.8179,2.8152,2.8072,2.7736,2.7428,2.7148,2.6841,2.66,2.6373,2.6038,2.5877,2.585,2.5438,2.5157,2.497,2.497,2.4836,2.4572,2.4396,2.4409,2.4412,0.0,0.0,0.0,0.0,0.0,0.0,0.0,0.0,0.0,0.0,0.0,0.0,0.0,0.0,0.0,0.0,0.0,0.0,0.0,1.3714,1.4439,1.4798,1.5899,1.6495,1.6548,1.7384,1.7873,1.7958,1.9078,1.9571,1.9468,2.0164,2.0454,2.0454,2.0495,2.0539,2.0579,1.9866,1.9756,0.0,0.0,1.8584,1.9004,1.854,1.8646,1.9095,1.9266,2.0286,2.168,2.2392,2.2229,2.1655,2.0889,2.1025,2.1937,2.4435,2.509,2.5524,2.8008,2.8619,2.8551,2.8591,2.8604,2.8276,2.7064,2.6714,2.6241,2.5074,2.3765,2.2783,2.2507,2.3865,2.4534,2.3067,2.547,2.7383,2.7105,2.7083,2.7381,0.0,2.843,0.0,2.831,2.9394,2.9786,2.9052,2.8591,2.8417,2.8591,2.8444,2.8326,2.8192,2.8179,2.8179,2.8179,2.8179,2.8125,2.7991,2.7776,2.7482,2.7068,2.6894,2.6667,2.6373,2.6118,2.5998,2.5957,2.5491,2.5224,2.5101,2.493,2.4783,2.4586,2.4412,2.4452,2.4559,0.0,0.0,0.0,0.0,0.0,0.0,0.0,0.0,0.0,0.0,0.0,0.0,0.0,0.0,0.0,0.0,0.0,0.0,0.0,0.0,1.2555,1.2929,1.311,1.3242,1.3319,1.3875,1.4352,1.4764,1.5885,1.6393,1.633,1.7396,1.7876,1.7889,1.7952,1.8277,1.8597,1.7169,1.7038,1.7719,1.6636,1.6755,1.7635,0.0,1.8452,1.8837,1.9272,2.0845,2.3054,2.5108,2.5016,2.3729,2.2078,2.1966,2.3182,2.6958,2.7044,2.6718,3.0335,3.0265,2.9041,2.8791,2.8631,2.7844,2.5171,2.5319,2.5296,2.2699,2.2341,2.2521,2.2639,2.2473,2.234,2.2386,2.2968,2.3996,2.5744,2.6014,2.6742,2.8835,2.9055,2.9068,2.9108,3.1267,3.1815,2.9689,2.9322,2.9041,2.8671,2.8631,2.847,2.8192,2.8179,2.8179,2.8179,2.8179,2.8058,2.7762,2.7762,2.7468,2.6934,2.6894,2.672,2.6426,2.6185,2.6051,2.6011,2.5503,2.5248,2.5117,2.4813,2.4666,2.4599,2.4559,2.4572,2.4586,0.0,0.0,0.0,0.0,0.0,0.0,0.0,0.0,0.0,0.0,1.1335,1.1466,0.0,0.0,0.0,0.0,0.0,0.0,0.0,0.0,0.0,1.314,1.2875,1.2807,1.2979,1.3576,1.3773,1.3592,1.451,1.4741,1.4309,1.4528,1.462,1.4634,1.4785,1.4929,1.5014,1.4773,1.5142,1.5862,1.5716,1.6384,1.7535,1.7605,0.0,0.0,1.9728,2.1086,2.2867,2.5468,2.5859,2.5357,2.6328,2.6005,2.5618,2.727,2.7901,2.8334,2.9548,2.9805,2.97,2.9406,2.8821,2.7674,2.5415,2.4701,0.0,2.1901,2.1928,2.2263,2.2022,2.2547,2.3349,2.4325,2.4959,2.5974,2.7812,2.8066,2.8416,0.0,2.9406,2.9499,2.974,3.1972,3.2427,3.0012,3.1363,3.1339,2.9065,2.8738,2.847,2.8192,2.8179,2.8179,2.8179,2.8179,2.8165,2.8112,2.8112,2.7924,2.7535,2.7295,2.7028,2.6734,2.644,2.6319,2.6306,2.6199,2.5879,2.5438,2.5384,2.5026,2.4572,2.4369,2.4399,2.4492,0.0,0.0,0.0,0.0,0.0,0.0,0.0,1.094,1.1057,1.114,1.1354,1.15,1.1509,1.1421,1.1459,0.0,0.0,0.0,0.0,0.0,0.0,0.0,1.2553,1.2618,1.2426,1.3127,1.3405,1.3253,0.0,1.3619,1.3126,1.3263,1.3263,1.3126,1.3255,1.3457,1.3701,1.3749,1.4151,1.479,1.5397,1.6208,1.7075,0.0,0.0,0.0,1.9669,2.1293,2.3391,2.5575,2.6375,2.6736,2.849,2.8179,2.7309,2.8136,2.8711,2.9152,2.9593,2.9927,3.0007,2.9406,2.847,2.7049,2.4389,2.3554,2.2798,2.101,2.1199,2.1725,2.1794,2.2406,2.3081,2.3626,2.4236,2.5413,2.7577,2.7919,2.8417,2.9824,3.0074,3.0154,3.0154,3.2285,3.2658,3.0106,3.1986,3.199,2.9145,2.8617,2.8339,2.8192,2.8179,2.8179,2.8179,2.8179,2.8112,2.7951,2.8112,2.7951,2.751,2.7376,2.7108,2.6814,2.652,2.6386,2.6373,2.6265,2.6038,2.5718,2.5411,2.5117,2.4836,2.4543,2.4479,2.4519,0.0,0.0,0.0,0.0,0.0,0.0,0.0,1.0877,1.0873,1.111,1.135,1.1573,1.1729,1.1435,1.1285,0.0,0.0,0.0,0.0,0.0,0.0,0.0,0.0,0.0,1.2033,0.0,0.0,1.3013,1.304,0.0,0.0,0.0,0.0,0.0,1.2557,1.2857,1.3305,1.3327,1.3701,0.0,0.0,1.6026,0.0,0.0,0.0,0.0,0.0,2.1068,2.3264,2.5436,2.6243,2.6717,2.8948,2.8733,2.7844,2.847,2.8911,2.9356,2.986,3.0181,3.0226,2.9375,2.815,2.632,2.3379,2.2491,2.1865,2.0133,2.058,2.1305,2.1533,2.2113,2.2584,2.2615,2.3128,2.4359,2.6872,2.7316,2.8094,2.9998,3.0541,0.0,3.044,3.2527,3.283,3.0214,3.1527,3.1451,2.9102,2.847,2.8179,2.8179,2.8179,2.8179,2.8179,2.8179,2.8072,2.7789,2.8072,2.7911,2.7403,2.7336,2.7108,2.6814,2.652,2.6386,2.6373,2.6185,2.6051,2.5944,2.5422,2.513,2.5037,2.4706,2.4599,2.4559,0.0,0.0,0.0,0.0,0.0,0.0,0.0,1.0921,1.1027,1.0938,1.1255,1.1617,1.1936,1.1923,1.1702,0.0,0.0,0.0,0.0,0.0,0.0,0.0,0.0,0.0,0.0,0.0,0.0,1.2385,1.2508,0.0,0.0,0.0,0.0,0.0,0.0,1.2845,1.3281,1.3166,0.0,0.0,0.0,0.0,0.0,0.0,0.0,0.0,0.0,1.9969,2.1054,2.5084,2.4963,2.3717,2.7068,2.7238,2.6359,2.7215,2.7871,2.8607,2.9985,3.0386,3.0319,2.9927,2.8136,2.5832,2.3292,2.2088,2.1053,1.9451,2.0318,2.1289,2.095,2.1667,2.2475,2.2951,2.3079,2.4118,2.6893,2.7444,2.8047,2.9402,3.0287,3.0675,3.044,3.2818,3.324,3.0555,2.9743,2.9303,2.9001,2.847,2.8179,2.8179,2.8179,2.8179,2.8179,2.8179,2.8165,2.8138,2.8165,2.8018,2.7642,2.7429,2.7108,2.6814,2.652,2.6386,2.6386,2.636,2.6238,2.5957,2.5598,2.5304,2.5037,2.4706,2.4599,2.4559,0.0,0.0,0.0,0.0,0.0,0.0,1.1254,1.1264,1.1238,1.1311,1.1326,1.14,1.1629,1.1645,1.1705,1.1813,0.0,0.0,0.0,0.0,0.0,0.0,0.0,0.0,0.0,0.0,1.2335,1.2305,1.235,0.0,0.0,0.0,0.0,0.0,0.0,1.2483,1.2884,1.3125,0.0,0.0,0.0,0.0,0.0,0.0,0.0,0.0,0.0,0.0,2.0571,2.2076,2.2464,2.2408,2.3232,2.3296,2.3531,2.6037,2.7443,2.8473,2.974,3.0474,3.0688,2.986,2.732,2.4752,2.3719,2.1517,1.9731,1.982,2.0347,2.078,2.082,2.1136,2.1208,2.0543,2.0363,2.1097,2.3542,2.3958,2.5341,2.8795,2.9526,2.9967,3.0568,3.1455,3.1471,3.0204,2.9606,2.9232,2.9001,2.847,2.8179,2.8179,2.8179,2.8179,2.8179,2.8179,2.8179,2.8179,2.8179,2.8125,2.7991,2.7523,2.7242,2.7068,2.6587,2.6386,2.6386,2.6386,2.6319,2.6212,2.5692,2.5438,2.5291,2.4773,2.4599,2.4559,0.0,0.0,0.0,0.0,0.0,1.1048,1.1377,1.1411,1.1438,1.1441,1.1453,1.1494,1.1548,1.1503,1.1674,1.22,1.1711,0.0,0.0,0.0,0.0,0.0,0.0,0.0,0.0,0.0,1.2182,1.211,1.211,1.1966,0.0,0.0,1.1919,1.1842,0.0,0.0,0.0,0.0,0.0,0.0,0.0,0.0,0.0,0.0,0.0,0.0,0.0,0.0,0.0,0.0,0.0,2.1298,2.0674,2.0715,2.1517,2.439,2.6119,2.7443,2.8764,2.9847,3.0381,2.9553,2.6761,2.4214,2.4035,2.1356,1.9161,2.0092,2.029,2.0364,2.0637,2.0788,2.0417,1.9016,1.8652,1.9207,2.1126,2.1243,2.2735,2.7029,2.7324,2.7795,2.9435,3.0013,3.014,2.9927,2.9646,2.9352,2.9015,2.8564,2.8286,2.8192,2.8179,2.8179,2.8179,2.8179,2.8179,2.8179,2.8179,2.8098,2.7911,2.7496,2.7215,2.7028,2.6573,2.6386,2.6386,2.6293,2.6266,2.6199,2.5611,2.5384,2.5331,2.4786,2.4599,2.4572,0.0,0.0,0.0,0.0,0.0,0.0,1.0758,1.1311,1.155,1.1167,1.1683,1.2036,1.1913,1.172,1.1735,1.2078,1.1502,0.0,0.0,0.0,0.0,0.0,0.0,0.0,0.0,0.0,1.1758,1.171,1.171,1.1774,1.1899,1.1913,1.209,1.2392,0.0,0.0,0.0,0.0,0.0,0.0,0.0,0.0,1.6426,0.0,0.0,0.0,0.0,0.0,0.0,0.0,0.0,0.0,0.0,2.0374,2.0831,2.2089,2.3479,2.5013,2.6854,2.8163,2.9015,2.9001,2.677,2.4488,2.4097,2.1704,1.9658,1.9955,1.9993,2.01,2.0364,2.0747,2.0547,1.9201,1.8955,1.9389,2.072,2.0289,2.0856,2.3719,2.3359,2.3909,2.6567,2.8686,2.9913,2.9913,2.9646,2.9352,2.9015,2.8721,2.8457,2.8192,2.8179,2.8179,2.8179,2.8179,2.8179,2.8179,2.8179,2.7884,2.7309,2.7309,2.6988,2.64,2.6386,2.6386,2.6373,2.6118,2.5998,2.5944,2.5355,2.5077,2.505,2.4706,2.4599,2.4599,0.0,0.0,0.0,0.0,0.0,0.0,0.0,1.1682,1.1754,1.1899,1.1551,1.1467,1.1985,1.1897,1.1853,1.1964,1.1646,0.0,0.0,0.0,0.0,0.0,0.0,0.0,0.0,0.0,1.1893,1.1833,1.1833,1.176,1.163,1.1904,1.2003,1.193,1.224,1.258,0.0,0.0,0.0,0.0,0.0,1.6259,1.6118,0.0,0.0,0.0,0.0,0.0,0.0,0.0,0.0,0.0,0.0,0.0,0.0,2.0397,2.2246,2.4323,2.5474,2.6334,2.6768,2.6373,2.4137,2.2087,2.2128,2.0169,1.8498,1.9241,1.9398,1.9471,1.974,1.9887,1.9652,1.8697,1.8485,1.8395,1.8129,1.9587,2.1548,2.3876,2.6578,2.845,2.8879,2.9517,2.9913,2.9913,2.9646,2.9352,2.9015,2.8764,2.847,2.8192,2.8179,2.8179,2.8179,2.8179,2.8179,2.8179,2.8179,2.7978,2.7549,2.7403,2.7054,2.668,2.648,2.6386,2.6373,2.6118,2.5998,2.5931,2.5342,2.5115,2.5037,2.4706,2.4599,2.4572,0.0,0.0,0.0,0.0,0.0,0.0,0.0,1.2145,1.2306,1.2472,1.2077,1.193,1.2387,1.2252,1.2135,1.2135,1.1963,0.0,0.0,0.0,0.0,0.0,0.0,0.0,0.0,1.1693,1.1664,1.1668,1.1668,1.1624,1.1505,1.182,1.1892,1.1792,1.2056,1.2363,0.0,0.0,0.0,0.0,1.5697,1.5889,1.595,0.0,0.0,0.0,0.0,0.0,0.0,0.0,0.0,0.0,0.0,0.0,0.0,0.0,2.0865,2.2621,2.3492,2.447,2.5069,2.4333,2.2643,2.1106,2.104,1.941,1.8015,1.8356,1.8423,1.853,1.8897,1.8533,1.8157,1.8172,1.7763,1.7594,1.7906,1.9366,2.1167,2.3107,2.6858,2.9052,2.845,2.9198,2.9753,2.9753,2.9486,2.9192,2.8855,2.8711,2.847,2.8192,2.8179,2.8179,2.8179,2.8179,2.8179,2.8179,2.8179,2.7965,2.7522,2.7389,2.7041,2.6653,2.6466,2.6333,0.0,2.5944,2.577,2.561,2.5104,2.4917,2.489,2.4666,2.4599,2.4559,0.0,0.0,0.0,0.0,0.0,0.0,0.0,1.274,1.3142,1.2933,1.3058,1.3142,1.303,1.2754,1.2554,1.2529,0.0,0.0,0.0,0.0,0.0,0.0,0.0,0.0,1.1346,1.1212,1.1192,1.1326,1.1324,1.1386,1.1521,1.1671,1.1792,1.1922,1.1979,1.2067,0.0,0.0,0.0,0.0,1.4852,1.517,0.0,0.0,0.0,0.0,0.0,0.0,0.0,0.0,0.0,0.0,0.0,0.0,0.0,0.0,0.0,0.0,0.0,2.2537,2.3633,2.2753,2.1889,2.1149,2.0572,1.9331,0.0,1.7495,1.7395,1.7567,1.8058,1.6961,1.6444,1.7893,1.7065,1.7071,1.9473,1.9706,2.0293,2.2041,2.5083,2.6777,2.6006,2.81,2.9472,2.9459,2.9179,2.8855,2.8617,2.8591,2.8444,2.8192,2.8179,2.8179,2.8179,2.8179,2.8179,2.8179,2.8179,2.7871,2.7309,2.7309,2.6974,2.636,2.6386,2.6213,2.5944,2.5625,2.5344,2.5088,2.4719,2.4599,2.4599,2.4599,2.4599,2.4559,0.0,0.0,0.0,0.0,0.0,0.0,0.0,0.0,0.0,0.0,1.331,1.3007,1.3273,1.323,1.3094,0.0,0.0,0.0,0.0,0.0,0.0,0.0,0.0,0.0,1.1745,1.1586,1.1502,1.1529,1.1633,1.1711,1.1731,1.1912,1.2021,1.2052,1.2022,1.2292,0.0,0.0,0.0,0.0,1.4559,1.4944,0.0,0.0,0.0,0.0,1.7824,1.8182,0.0,0.0,0.0,0.0,0.0,0.0,0.0,0.0,1.8904,1.8934,1.9081,0.0,2.0355,1.9877,1.9398,1.9029,0.0,1.8719,1.8498,1.8139,1.8383,1.8645,1.8562,1.7656,1.741,1.8906,1.8255,1.7896,1.8902,2.1363,2.366,2.531,2.7887,2.8705,2.6634,2.8299,2.9392,2.9121,2.8828,2.8684,2.8604,2.8419,2.8259,2.8192,2.8179,2.8179,2.8179,2.8179,2.8179,2.8179,2.8179,2.7871,2.7309,2.7309,2.6867,2.6118,2.6293,2.6092,2.5611,2.5545,2.5344,2.5088,2.4719,2.4599,2.4599,2.4599,2.4599,2.4532,0.0,0.0,0.0,0.0,0.0,0.0,0.0,0.0,0.0,0.0,0.0,1.3711,1.3942,1.3692,0.0,0.0,0.0,0.0,0.0,0.0,0.0,0.0,0.0,1.2089,1.2305,1.2008,1.1935,1.2144,1.1987,1.192,1.1981,1.1964,1.197,1.1966,1.2139,1.2574,0.0,0.0,0.0,1.4365,1.4297,0.0,0.0,0.0,0.0,0.0,1.7519,1.8109,0.0,1.9008,1.8985,1.881,0.0,0.0,0.0,0.0,1.8288,1.8236,1.8081,1.8661,1.9116,1.8401,1.8282,1.8264,1.801,1.8131,1.8214,1.7765,1.7987,1.8293,1.8399,1.7551,1.7239,1.8522,1.8703,1.9048,1.9973,2.1349,2.3115,2.5516,2.7023,2.7813,2.7725,2.8519,2.9018,2.8815,2.8564,2.8433,2.8433,2.8272,2.8179,2.8179,2.8179,2.8179,2.8179,2.8179,2.8179,2.8179,2.8045,2.775,2.7309,2.7121,2.6693,2.6011,2.6266,2.5985,2.5331,2.5464,2.5264,2.4863,2.4666,2.4599,2.4599,2.4599,2.4599,2.4519,0.0,0.0,0.0,0.0,0.0,0.0,0.0,0.0,0.0,0.0,0.0,0.0,0.0,0.0,0.0,0.0,0.0,0.0,0.0,0.0,0.0,0.0,1.2729,1.2779,1.2803,1.2372,1.2318,1.2706,1.225,1.2092,1.2209,1.2028,1.197,1.2,1.2378,1.2824,0.0,0.0,1.3563,1.4045,1.4022,0.0,0.0,0.0,0.0,0.0,0.0,0.0,0.0,1.8614,1.8697,1.8819,1.8488,0.0,0.0,0.0,0.0,0.0,1.7651,1.8402,1.8894,1.752,1.7558,1.7785,1.7291,1.7411,1.7505,1.7114,1.7318,1.7738,1.8163,1.7139,1.6614,1.7773,1.9048,2.0496,2.2274,2.1771,2.2144,2.4854,2.5427,2.6346,2.83,2.8558,2.8591,2.8537,2.8339,2.8179,2.8179,2.8179,2.8179,2.8179,2.8179,2.8179,2.8179,2.8138,2.8112,2.8112,2.7776,2.7482,2.7229,2.6894,2.644,2.5944,2.6146,2.5785,2.5037,2.5331,2.513,2.4599,2.4599,2.4599,2.4599,2.4599,2.4599,2.4519,0.0,0.0,0.0,0.0,0.0,0.0,0.0,0.0,0.0,0.0,0.0,0.0,0.0,0.0,0.0,0.0,0.0,0.0,0.0,0.0,0.0,1.3514,1.3204,1.2992,1.289,1.2479,1.2274,1.2288,1.2207,1.2176,1.2216,1.2516,1.2669,1.2726,1.2798,1.292,1.3059,0.0,1.3375,1.3735,1.3632,0.0,0.0,0.0,0.0,0.0,0.0,0.0,0.0,1.7575,1.7852,1.8168,1.728,0.0,0.0,0.0,0.0,0.0,1.7544,1.8269,1.844,1.6192,1.5696,1.5747,1.5645,1.6028,1.6631,1.7565,1.8321,1.8871,1.901,1.7046,1.6115,1.8376,2.0341,2.2719,2.5908,2.6667,2.6793,2.6405,2.7775,2.8098,2.6352,2.7664,2.8497,2.8272,2.8219,2.8179,2.8179,2.8179,2.8179,2.8179,2.8179,2.8179,2.8179,2.7938,2.7762,2.7762,2.7468,2.7175,2.6881,2.6587,2.6132,2.5585,2.5625,2.5253,2.4693,2.5024,2.4943,2.4599,2.4599,2.4599,2.4599,2.4599,2.4599,2.4519,0.0,0.0,0.0,0.0,0.0,0.0,0.0,0.0,0.0,0.0,0.0,0.0,0.0,0.0,0.0,0.0,0.0,0.0,0.0,0.0,1.386,1.3756,1.3816,1.3738,1.3508,1.3246,1.3103,1.3052,1.2953,1.3058,1.3331,1.3304,1.351,1.3835,1.3426,1.342,1.3743,1.3657,1.3609,1.3624,0.0,0.0,0.0,0.0,0.0,0.0,0.0,0.0,0.0,0.0,1.7666,1.7821,1.6975,0.0,0.0,0.0,0.0,0.0,1.6876,1.7387,1.7594,1.6191,1.677,1.7601,1.7327,1.7661,1.7914,1.7436,1.7819,1.8369,1.8812,1.8237,1.8721,2.1955,2.1493,2.1812,2.4842,2.4353,2.4128,2.5314,2.6104,2.6667,2.7024,2.7861,2.8339,2.8192,2.8179,2.8179,2.8179,2.8179,2.8112,2.7951,2.7938,2.7871,2.771,2.7375,2.7388,2.7696,2.7241,2.6961,2.6814,2.636,2.5919,2.5518,2.5518,2.5146,2.4626,2.4957,2.4903,2.4599,2.4599,2.4599,2.4586,2.4426,2.4302,2.4115,0.0,0.0,0.0,0.0,0.0,0.0,0.0,0.0,0.0,0.0,0.0,0.0,0.0,0.0,0.0,0.0,0.0,0.0,0.0,0.0,1.3981,1.376,1.4282,1.4375,1.397,1.38,1.3743,1.3772,1.3512,1.3699,1.4267,1.3857,1.4088,1.475,1.4024,1.3992,1.4454,1.4377,1.4156,1.3955,0.0,0.0,0.0,0.0,0.0,0.0,0.0,0.0,0.0,0.0,0.0,0.0,0.0,0.0,0.0,1.5711,1.5873,1.6238,1.6284,1.6542,1.6783,1.6652,1.7649,1.8692,1.8776,1.8994,1.8818,1.7513,1.7939,1.8401,1.8071,1.8922,2.0649,2.3644,2.2357,2.1879,2.4385,2.3137,2.2809,2.5197,2.4768,2.5073,2.7172,2.6885,2.6575,2.6575,2.6575,2.6575,2.6575,2.6512,2.6638,2.6851,2.6869,2.6987,2.7309,2.6974,2.7054,2.7482,2.6974,2.672,2.6694,2.6119,2.5732,2.5504,2.5371,2.5013,2.4613,2.4877,2.4796,2.4506,2.4572,2.4599,2.4559,2.4315,2.4022,2.3777,0.0,0.0,0.0,0.0,0.0,0.0,0.0,0.0,0.0,0.0,0.0,0.0,0.0,0.0,0.0,0.0,0.0,0.0,0.0,0.0,1.4284,1.365,1.436,1.448,1.3837,1.3615,1.3587,1.3708,1.3265,1.3437,1.4199,1.3801,1.4139,1.5053,1.4556,1.4468,1.4699,1.4943,1.505,1.5101,1.5193,0.0,0.0,0.0,0.0,0.0,0.0,0.0,0.0,0.0,0.0,0.0,0.0,0.0,1.5911,1.588,1.5885,1.597,1.6238,1.6154,1.6224,1.7236,1.6553,1.6113,1.8066,1.8087,1.7789,1.8205,2.0054,2.0507,1.6934,1.7961,1.9504,2.0027,2.276,2.5615,2.7931,2.8105,2.8063,2.8284,2.6376,2.502,2.4971,2.2998,2.1696,2.1696,2.1696,2.1696,2.1696,2.1575,2.2436,2.4387,2.4318,2.5219,2.7268,2.6974,2.68,2.684,2.6573,2.6426,2.64,2.5812,2.5531,2.5478,2.4893,2.4639,2.4599,2.4626,2.4502,2.4262,2.4492,2.4599,2.4559,2.4315,2.4022,2.3803,0.0,0.0,0.0,0.0,0.0,0.0,0.0,0.0,0.0,0.0,0.0,0.0,0.0,0.0,0.0,0.0,0.0,0.0,0.0,1.3816,1.3717,1.3717,1.3822,1.365,1.3188,1.3591,1.3842,1.3891,1.4289,1.4763,1.5247,1.4894,1.5026,1.5579,1.5031,1.494,1.5262,1.5418,1.5297,1.5069,1.5788,1.5833,0.0,0.0,0.0,0.0,0.0,0.0,0.0,0.0,1.6604,1.6953,1.5851,1.5469,1.5434,1.5598,1.5644,1.5704,1.597,1.6482,1.7105,1.7691,1.6932,1.6805,1.9725,1.9348,1.8249,1.7913,1.8894,1.953,1.8543,1.9084,1.979,2.0184,2.1644,2.3108,2.4162,2.4148,2.406,2.4262,2.3358,2.2611,2.2525,2.1739,2.1221,2.1221,2.1133,2.1094,2.1094,2.0934,2.117,2.1742,2.1728,2.2646,2.4659,2.44,2.4338,2.4511,2.5792,2.6293,2.6145,2.5705,2.5411,2.5224,2.4773,2.4599,2.4599,2.4599,2.4532,2.4452,2.4559,2.4492,2.4356,2.4249,2.4142,2.3828,0.0,0.0,0.0,0.0,0.0,0.0,0.0,0.0,0.0,0.0,0.0,0.0,0.0,0.0,0.0,0.0,0.0,0.0,1.395,1.3686,1.3543,1.3629,1.3478,1.3166,1.2658,1.3454,1.3856,1.3837,1.4671,1.5204,1.5478,1.5157,1.5335,1.5859,1.5221,1.5208,1.5647,1.5826,1.5687,1.5447,1.6364,1.6364,0.0,0.0,0.0,0.0,0.0,0.0,0.0,0.0,1.6484,1.6718,1.5783,1.5233,1.5046,1.5497,1.5272,1.5051,1.5813,1.5896,1.5992,1.6953,1.6399,1.6627,2.049,1.9715,1.8192,1.8254,1.8016,1.794,1.8444,1.867,1.8938,1.9342,2.045,2.1272,2.151,2.1355,2.1272,2.1521,2.0704,2.0139,2.0139,1.9454,1.9019,1.9019,1.8915,1.8806,1.8806,1.8645,1.8736,1.9209,1.9183,2.0384,2.2943,2.2807,2.276,2.2933,2.51,2.5701,2.4984,2.5238,2.5264,2.5064,2.477,2.4599,2.4599,2.4599,2.4599,2.4572,2.4292,2.4239,2.4229,2.3359,2.3091,2.2828,0.0,0.0,0.0,0.0,0.0,0.0,0.0,0.0,0.0,0.0,0.0,0.0,0.0,0.0,0.0,0.0,0.0,0.0,1.4096,1.4147,1.3917,1.3314,1.3481,1.3172,1.2319,1.3148,1.3575,1.3525,1.4033,1.4407,1.4598,1.4262,1.4738,1.5863,1.5142,1.5136,1.5744,1.6125,1.6338,1.6433,1.6974,1.7198,0.0,0.0,0.0,0.0,0.0,0.0,0.0,0.0,1.6163,1.6441,1.5632,1.5083,1.484,1.5649,1.4756,1.3899,1.576,1.4104,1.2404,1.4788,1.455,1.5029,1.9968,1.8752,1.7194,1.9433,1.7789,1.6005,1.5991,1.6216,1.6504,1.6809,1.9264,2.1135,2.1135,2.1135,2.1135,2.1135,1.915,1.7763,1.7755,1.5638,1.4299,1.4299,1.4156,1.4112,1.4112,1.379,1.4623,1.681,1.6658,1.8534,2.2646,2.2634,2.2584,2.2481,2.4483,2.4469,2.2729,2.4367,2.5077,2.5064,2.4733,2.4599,2.4599,2.4599,2.4549,2.4469,2.359,2.379,2.4209,2.1484,2.0639,2.0563,0.0,0.0,0.0,0.0,0.0,0.0,0.0,0.0,0.0,0.0,0.0,0.0,0.0,0.0,0.0,0.0,0.0,0.0,1.3332,1.3432,1.3372,1.3101,1.274,1.2507,1.2433,1.2928,1.354,1.4275,1.4422,1.4614,1.4819,1.4562,1.4846,1.5521,1.4956,1.5146,1.5845,1.6228,1.625,1.6117,1.6853,1.6724,1.6189,0.0,0.0,0.0,0.0,0.0,0.0,0.0,0.0,0.0,1.5628,1.4701,1.399,1.5035,1.4579,1.3815,1.4335,1.4271,1.4094,1.4183,1.5138,1.6539,1.855,1.7011,1.5718,1.7657,1.7131,1.6397,1.671,1.6906,1.6502,1.4843,1.5547,1.6342,1.6342,1.6342,1.6342,1.6342,1.5734,1.5293,1.522,1.4566,1.4095,1.3944,1.3802,1.3763,1.3763,1.3471,1.3638,1.4407,1.4186,1.61,2.0398,1.871,1.8641,2.0167,2.0501,2.0457,2.0223,2.3568,2.4194,2.2694,2.4033,2.4599,2.4462,2.2976,2.2104,2.1581,2.0194,1.969,1.9651,1.9029,1.887,1.8633,0.0,0.0,0.0,0.0,0.0,0.0,0.0,0.0,0.0,0.0,0.0,0.0,0.0,0.0,0.0,0.0,0.0,0.0,0.0,1.3639,1.3744,1.3641,1.3241,1.3092,1.3242,1.3443,1.3866,1.451,1.4359,1.4452,1.4783,1.4452,1.4678,1.5382,1.4761,1.4957,1.5716,1.5973,1.6009,1.5949,1.6658,1.6586,1.6112,0.0,0.0,0.0,0.0,0.0,0.0,0.0,0.0,0.0,1.5444,1.4564,1.3985,1.5357,1.4299,1.2919,1.4146,1.4382,1.4308,1.4602,1.5561,1.6424,1.6181,1.6721,1.7267,1.746,1.7059,1.653,1.5976,1.587,1.5362,1.401,1.4082,1.4299,1.4299,1.4299,1.4278,1.4217,1.4211,1.415,1.3994,1.398,1.3939,1.3802,1.3612,1.3539,1.3539,1.3254,1.3173,1.322,1.3098,1.4986,1.9182,1.6946,1.6811,1.8835,1.86,1.7708,1.6402,2.0589,2.1742,2.0455,2.1595,2.2116,2.198,2.0642,1.9885,1.9448,1.8377,1.7898,1.7749,1.6942,1.6692,1.6531,0.0,0.0,0.0,0.0,0.0,0.0,0.0,0.0,0.0,0.0,0.0,0.0,0.0,0.0,0.0,0.0,0.0,0.0,0.0,0.0,1.4668,1.4591,1.4507,1.4422,1.437,1.4419,1.4474,1.4523,1.4072,1.4106,1.4609,1.4082,1.4388,1.5362,1.4568,1.4645,1.5377,1.5539,1.5741,1.5948,1.6475,1.6647,1.6587,1.6784,0.0,0.0,0.0,0.0,0.0,0.0,0.0,0.0,1.5251,1.4622,1.4439,1.6114,1.4051,1.1846,1.4815,1.4419,1.3586,1.5467,1.5893,1.5534,1.4456,1.7685,2.0216,1.7887,1.7289,1.6522,1.4512,1.4043,1.4032,1.4091,1.4211,1.4299,1.4299,1.4285,1.4231,1.4132,1.4061,1.3987,1.3795,1.3768,1.3754,1.3741,1.3519,1.3363,1.3363,1.3132,1.2989,1.3003,1.2975,1.4853,1.8762,1.6599,1.6433,1.8303,1.7912,1.5775,1.2254,1.657,1.8549,1.8539,1.8364,1.8262,1.8232,1.7929,1.7792,1.7725,1.7309,1.7276,1.7223,1.498,1.4327,1.4308,0.0,0.0,0.0,0.0,0.0,0.0,0.0,0.0,0.0,0.0,0.0,0.0,0.0,0.0,0.0,0.0,0.0,0.0,0.0,0.0,1.4623,1.445,1.4706,1.4647,1.4164,1.4585,1.5016,1.5487,1.4667,1.4465,1.4822,1.4339,1.4514,1.5201,1.4573,1.4607,1.5184,1.553,1.5821,1.6069,1.6338,1.6448,1.6449,1.649,1.6464,0.0,0.0,0.0,0.0,0.0,0.0,0.0,1.5482,1.4558,1.3766,1.4774,1.4323,1.3719,1.4859,1.431,1.3627,1.4547,1.5783,1.7665,2.1077,2.0117,1.7809,1.5217,1.627,1.6961,1.4671,1.5709,1.6325,1.4546,1.4278,1.4299,1.4299,1.4197,1.4109,1.4119,1.3966,1.3788,1.3646,1.3566,1.3444,1.3329,1.3193,1.3098,1.3098,1.2881,1.2834,1.2996,1.2725,1.4602,1.8752,1.4974,1.4824,1.8255,1.5005,1.2977,1.2247,1.6324,1.8204,1.8204,1.8153,1.803,1.7723,1.6193,1.5435,1.5042,1.3523,1.2964,1.2914,1.2388,1.2237,1.223,0.0,0.0,0.0,0.0,0.0,0.0,0.0,0.0,0.0,0.0,0.0,0.0,0.0,0.0,0.0,0.0,0.0,0.0,0.0,0.0,1.5453,1.5416,1.5729,1.5635,1.507,1.5339,1.5488,1.5505,1.5115,1.4891,1.4785,1.4349,1.4309,1.4571,1.4355,1.4613,1.5269,1.5711,1.6031,1.6237,1.636,1.6463,1.6546,1.6546,1.6546,1.6582,1.6895,0.0,0.0,0.0,0.0,0.0,0.0,0.0,1.4202,1.5179,1.458,1.3905,1.5322,1.4801,1.3992,1.4739,1.6761,1.8944,2.0529,1.9126,1.7089,1.584,1.5833,1.568,1.4506,1.517,1.5517,1.4396,1.4129,1.4082,1.4082,1.4014,1.3933,1.3871,1.3722,1.3573,1.3424,1.3275,1.32,1.3118,1.2935,1.282,1.2745,1.2603,1.2522,1.2567,1.2411,1.3832,1.7001,1.3823,1.3693,1.6636,1.348,1.1918,1.193,1.4187,1.5211,1.5203,1.5145,1.5014,1.4775,1.3762,1.3215,1.296,1.1972,1.1584,1.1584,1.1584,1.1584,1.1584,0.0,0.0,0.0,0.0,0.0,0.0,0.0,0.0,0.0,0.0,0.0,0.0,0.0,0.0,0.0,0.0,0.0,0.0,0.0,0.0,0.0,1.6293,1.6558,1.647,1.6,1.6,1.5788,1.5393,1.5483,1.5244,1.471,1.4355,1.4106,1.3945,1.4028,1.4532,1.5377,1.5807,1.6209,1.6557,1.6557,1.6692,1.6884,0.0,0.0,1.6853,1.7075,1.7186,1.7147,1.6788,0.0,0.0,0.0,0.0,1.4832,1.5812,1.4748,1.3754,1.5883,1.5505,1.4645,1.5383,1.7239,1.8735,1.7909,1.7104,1.6679,1.728,1.5615,1.4068,1.4197,1.3971,1.3842,1.4014,1.3926,1.3795,1.3795,1.3754,1.368,1.3558,1.3431,1.3275,1.3186,1.3043,1.2948,1.2921,1.2739,1.2589,1.2433,1.2318,1.2196,1.2104,1.2098,1.3052,1.5064,1.3037,1.2985,1.4883,1.275,1.1644,1.1552,1.1832,1.1968,1.2016,1.185,1.1759,1.1746,1.1604,1.1579,1.1579,1.1579,1.1579,1.1586,1.157,1.1599,1.1579,0.0,0.0,0.0,0.0,0.0,0.0,0.0,0.0,0.0,0.0,0.0,0.0,0.0,0.0,0.0,0.0,0.0,0.0,0.0,0.0,0.0,1.5461,1.5709,1.5751,1.5496,1.5547,1.5782,1.6141,1.5764,1.5298,0.0,0.0,1.4378,1.4062,1.3674,1.4115,1.5168,1.545,1.6204,1.7186,1.7186,1.7382,1.7626,0.0,0.0,0.0,1.6815,1.6682,1.663,1.6228,1.579,0.0,0.0,0.0,1.4421,1.4729,1.4815,1.5033,1.6102,1.5969,1.5523,1.5702,1.5002,1.5231,1.8764,1.6701,1.4661,1.6713,1.5398,1.3835,1.3856,1.3829,1.3802,1.3822,1.3815,1.3795,1.3795,1.362,1.3451,1.3437,1.3227,1.305,1.303,1.2854,1.2705,1.2569,1.2427,1.2284,1.2166,1.2139,1.2118,1.2098,1.2098,1.3052,1.5064,1.2816,1.2764,1.4883,1.2558,1.1369,1.1261,1.1302,1.1465,1.1681,1.1653,1.1647,1.1633,1.1484,1.1423,1.1423,1.1423,1.1423,1.1436,1.1572,1.1538,1.1423,0.0,0.0,0.0,0.0,0.0,0.0,0.0,0.0,0.0,0.0,0.0,0.0,0.0,0.0,0.0,0.0,0.0,0.0,0.0,0.0,0.0,1.6017,1.5958,1.5826,1.5635,1.5439,1.5548,1.597,1.5883,0.0,0.0,1.4655,1.4065,0.0,0.0,1.3985,1.5006,1.507,1.5743,1.6692,1.6264,1.6425,0.0,0.0,0.0,0.0,0.0,0.0,0.0,1.5372,1.5278,1.5567,1.5436,0.0,0.0,0.0,1.473,1.4973,1.5686,1.6306,1.6461,1.543,1.5603,1.6359,1.7566,1.633,1.5287,1.6464,1.4926,1.3451,1.3734,1.3634,1.3519,1.3653,1.3512,1.3376,1.3458,1.3288,1.3193,1.3193,1.2963,1.2834,1.2834,1.2623,1.2454,1.2386,1.2244,1.2094,1.1938,1.1932,1.1898,1.1816,1.1771,1.2114,1.3036,1.1924,1.1847,1.2813,1.1776,1.1261,1.12,1.12,1.1274,1.1362,1.1362,1.1362,1.1355,1.1329,1.1295,1.1295,1.1295,1.1295,1.1315,1.1436,1.1396,1.1308,0.0,0.0,0.0,0.0,0.0,0.0,0.0,0.0,0.0,0.0,0.0,0.0,0.0,0.0,0.0,0.0,0.0,0.0,0.0,0.0,0.0,1.6242,1.6,1.5773,1.5576,1.5239,1.5291,1.5786,0.0,0.0,1.5316,1.4903,1.4098,0.0,1.309,1.3768,0.0,0.0,0.0,1.6328,0.0,0.0,0.0,0.0,0.0,0.0,0.0,0.0,0.0,0.0,0.0,1.5153,1.5166,1.4957,0.0,0.0,0.0,1.4645,1.4877,1.5742,1.6269,1.4982,1.5759,1.674,1.6666,1.5804,1.5269,1.6068,1.4443,1.299,1.343,1.3315,1.3193,1.3424,1.322,1.3037,1.3146,1.3037,1.2928,1.2887,1.2712,1.2564,1.2562,1.2359,1.2216,1.2176,1.2067,1.1918,1.1692,1.1685,1.1653,1.1511,1.1396,1.1335,1.1335,1.1254,1.1159,1.1084,1.1125,1.1125,1.1084,1.1084,1.1084,1.1091,1.1166,1.12,1.1193,1.1124,1.1111,1.1111,1.1111,1.1111,1.1124,1.1274,1.124,1.1124,0.0,0.0,0.0,0.0,0.0,0.0,0.0,0.0,0.0,0.0,0.0,0.0,0.0,0.0,1.8773,1.7945,0.0,0.0,0.0,0.0,0.0,1.5291,1.5257,0.0,1.4953,1.4739,1.5093,1.5991,0.0,0.0,1.5662,1.5585,1.4903,1.3684,1.2758,1.3298,1.4837,0.0,0.0,0.0,0.0,0.0,0.0,0.0,0.0,0.0,0.0,0.0,0.0,0.0,0.0,0.0,0.0,1.507,1.4691,0.0,0.0,0.0,1.3647,1.3693,1.4101,1.4489,1.389,1.3982,1.709,1.5056,1.3146,1.5357,1.4053,1.2576,1.2713,1.2888,1.3016,1.303,1.3016,1.3003,1.3009,1.284,1.2691,1.2542,1.24,1.2257,1.2145,1.2118,1.2013,1.1827,1.1807,1.1714,1.143,1.1416,1.1341,1.1227,1.1213,1.1206,1.1206,1.12,1.1057,1.0744,1.086,1.0853,1.0744,1.0744,1.0744,1.0725,1.1077,1.12,1.1186,1.0982,1.0928,1.0928,1.0928,1.0928,1.0941,1.1159,1.1084,1.0928,0.0,0.0,0.0,0.0,0.0,0.0,0.0,0.0,0.0,0.0,0.0,0.0,0.0,1.9319,1.9329,1.8601,1.8194,0.0,0.0,0.0,0.0,1.5791,1.5652,1.5441,1.5098,1.49,1.5129,1.5816,0.0,1.5854,1.6338,1.5784,1.5402,1.5088,1.3845,1.3431,1.3619,1.2678,0.0,0.0,0.0,0.0,0.0,0.0,0.0,0.0,0.0,0.0,0.0,0.0,0.0,0.0,0.0,0.0,0.0,1.4619,1.4783,1.4698,1.5099,1.5198,1.5136,1.5053,1.5302,1.5272,1.4343,1.3728,1.3328,1.3139,1.2556,1.2121,1.2271,1.2583,1.2847,1.2982,1.2758,1.2562,1.2651,1.2454,1.2284,1.2261,1.2213,1.2159,1.2104,1.1928,1.1789,1.1793,1.1565,1.1396,1.1389,1.1336,1.1254,1.12,1.107,1.0975,1.088,1.088,1.0826,1.0684,1.0745,1.0738,1.0684,1.0684,1.0684,1.0724,1.0833,1.088,1.0873,1.0786,1.0772,1.0772,1.0772,1.0772,1.0786,1.0934,1.0894,1.0786,0.0,0.0,0.0,0.0,0.0,0.0,0.0,0.0,0.0,0.0,0.0,0.0,0.0,0.0,1.9589,1.8895,1.8214,1.7632,1.7132,1.6855,1.649,1.6017,1.5929,1.5647,1.5098,1.4971,1.5147,1.5701,1.5701,1.5968,1.6479,1.6175,1.5925,1.5768,1.4844,1.4261,0.0,0.0,0.0,1.4568,0.0,0.0,1.3256,0.0,0.0,0.0,0.0,0.0,0.0,0.0,0.0,0.0,0.0,0.0,0.0,0.0,0.0,1.4511,1.5182,1.5295,1.5233,1.5358,1.5679,1.5534,1.3915,1.3937,1.3906,1.2477,1.2351,1.2388,1.1962,1.2121,1.2427,1.2662,1.2445,1.2244,1.2338,1.222,1.2077,1.203,1.1945,1.1891,1.188,1.1613,1.1504,1.1599,1.137,1.122,1.124,1.1145,1.107,1.1016,1.0887,1.0792,1.0691,1.0684,1.0684,1.0684,1.0684,1.0684,1.0684,1.0684,1.0684,1.0684,1.0684,1.0684,1.0684,1.0684,1.0684,1.0684,1.0684,1.0684,1.0698,1.0799,1.0772,1.0698,0.0,0.0,0.0,0.0,0.0,0.0,0.0,0.0,0.0,2.1113,0.0,0.0,0.0,0.0,0.0,1.8778,1.7987,1.7342,1.6944,1.6891,1.656,1.5841,0.0,0.0,1.4918,1.49,1.5147,1.5701,1.5701,1.583,1.6123,1.6694,1.6492,1.5648,1.5713,1.5783,1.5777,0.0,1.4858,1.576,0.0,1.1282,1.2068,0.0,0.0,0.0,0.8791,0.8554,0.0,0.9767,0.0,0.0,0.0,0.0,0.0,0.0,0.0,0.0,0.0,0.0,0.0,1.5254,1.4755,1.442,1.6118,1.5699,1.4627,1.3478,1.3601,1.337,1.1692,1.1504,1.1701,1.203,1.2077,1.2084,1.2084,1.2084,1.2023,1.1793,1.1651,1.1545,1.1396,1.1281,1.1193,1.12,1.1186,1.109,1.0921,1.0914,1.084,1.0691,1.0684,1.0684,1.0677,1.0684,1.0684,1.0677,1.0684,1.0684,1.0684,1.0684,1.0684,1.0684,1.0684,1.0684,1.0684,1.0684,1.0684,1.0684,1.0684,1.0684,1.0684,1.0684,1.0684,1.0684,0.0,0.0,0.0,0.0,0.0,0.0,2.1834,2.1415,2.0964,0.0,0.0,0.0,1.9733,1.9745,1.9605,1.9175,1.8534,1.7914,1.7366,1.6932,1.6473,1.6035,1.5929,1.5647,1.5133,1.4971,1.5147,1.5701,1.5374,1.5637,1.652,1.6323,1.6271,1.6389,1.6306,1.6416,1.6512,1.4211,0.0,1.3339,1.1138,1.0454,0.0,0.0,0.0,0.0,0.0,0.9394,0.9479,0.0,0.873,0.7863,0.0,0.0,0.0,0.0,0.0,0.0,1.4109,0.0,0.0,0.0,0.0,0.0,1.4412,1.4131,1.3706,1.2475,1.1823,1.1435,1.1269,1.1295,1.1349,1.1431,1.1599,1.1742,1.1742,1.1647,1.1553,1.1362,1.1349,1.1308,1.1261,1.1097,1.105,1.1193,1.0962,1.0873,1.0914,1.0813,1.0732,1.0691,1.0684,1.0637,1.0555,1.0663,1.0663,1.0555,1.0637,1.0684,1.0684,1.0684,1.0684,1.0684,1.0684,1.0684,1.0684,1.0684,1.0684,1.0684,1.0684,1.0684,1.0684,1.0684,1.0684,1.0684,0.0,0.0,0.0,0.0,0.0,2.1074,2.1787,2.1364,2.088,0.0,0.0,0.0,1.9972,1.9485,1.9171,1.918,1.8431,1.7769,1.7279,1.692,1.651,1.5999,1.5876,1.5523,1.4955,1.4846,1.4946,1.5281,1.5011,1.5262,1.6025,1.5963,1.6111,1.6426,0.0,0.0,0.0,0.0,0.0,0.0,1.1611,0.0,0.0,0.963,0.9667,0.0,0.0,0.0,0.9709,0.9363,0.861,0.0,0.0,0.0,0.0,0.0,0.0,0.0,0.0,0.0,0.0,0.0,0.0,0.0,1.3733,1.4236,1.4339,1.2228,1.1977,1.1814,1.0866,1.0799,1.0934,1.0968,1.1179,1.1327,1.1423,1.1355,1.1295,1.1206,1.1145,1.107,1.107,1.0907,1.0853,1.0968,1.0819,1.0725,1.0813,1.0738,1.0684,1.0684,1.0656,1.0582,1.0493,1.0521,1.0521,1.0493,1.0582,1.0656,1.0684,1.0684,1.0683,1.0622,1.0622,1.0588,1.0541,1.0602,1.0663,1.0684,1.0684,1.0684,1.0684,1.0684,1.0684,1.0684,0.0,0.0,2.0386,2.1024,2.0659,2.0708,2.1927,2.1453,2.0898,0.0,2.0338,2.0056,1.9905,1.9033,1.862,1.903,1.811,1.7359,1.7005,1.6899,1.6542,1.5856,1.5752,1.5345,1.4579,1.4555,1.459,1.4662,1.4648,1.4809,1.5104,1.5647,1.5925,1.5982,0.0,0.0,0.0,0.0,0.0,1.4375,1.2791,1.163,0.0,0.0,0.9408,0.9741,0.9476,0.9447,0.9406,0.8773,0.9091,0.0,0.0,0.0,0.0,0.0,1.3057,0.0,0.0,0.0,0.0,0.0,0.0,0.0,1.3752,1.5004,1.5423,1.2567,1.3094,1.3253,1.0674,1.0423,1.0658,1.0743,1.0871,1.1002,1.1145,1.1172,1.1166,1.1152,1.1002,1.088,1.0867,1.0738,1.0657,1.067,1.067,1.0644,1.0697,1.0644,1.067,1.067,1.0541,1.046,1.0439,1.0337,1.0376,1.0466,1.0466,1.0548,1.0697,1.0644,1.0595,1.0466,1.0466,1.0399,1.0322,1.0419,1.0561,1.0664,1.0677,1.0684,1.0684,1.0684,1.0684,1.0684,0.0,0.0,2.0788,2.1185,2.1083,2.1086,2.1552,2.1102,2.0526,2.0139,1.9731,1.9575,1.9867,1.9577,0.0,1.9478,1.8701,1.8025,1.7646,1.6865,1.6284,1.5977,1.5405,1.4866,1.4364,1.4313,1.4347,1.4462,1.4334,1.4581,1.509,1.5269,1.5492,1.579,1.6535,1.6675,0.0,0.0,0.0,1.3839,1.2369,1.1328,1.0511,0.9275,0.9085,0.9456,0.943,0.9153,0.8675,0.791,0.874,1.0144,0.0,0.0,0.0,0.0,0.0,0.0,0.0,0.0,0.0,0.0,0.0,0.0,1.4177,1.3736,1.3281,1.3109,1.2469,1.1796,1.1429,1.143,1.1423,1.129,1.1193,1.1095,1.0968,1.0955,1.0907,1.0819,1.0745,1.0684,1.0595,1.0555,1.0487,1.0378,1.0365,1.0419,1.0527,1.0426,1.0365,1.0365,1.0337,1.0263,1.0103,1.0229,1.0297,1.0356,1.0356,1.0399,1.0534,1.0419,1.0351,1.0356,1.0356,1.0304,1.0315,1.0342,1.0405,1.0548,1.067,1.0684,1.0684,1.0684,1.0684,1.0684,0.0,0.0,2.0855,2.115,2.0822,2.0624,2.099,2.0508,2.002,1.9765,1.941,1.9152,1.9152,0.0,0.0,0.0,0.0,1.6411,1.6796,1.5736,1.5157,1.5298,1.5162,1.4807,1.4205,1.4045,1.3981,1.3995,1.3926,1.4138,1.4622,1.5043,1.5334,1.5523,1.6232,1.5852,1.4741,0.0,1.4149,1.1918,1.2003,0.0,1.0588,0.9458,0.9292,0.9598,0.9598,0.939,0.9008,0.8472,0.8934,0.0,0.0,1.001,1.0294,0.0,1.2504,1.1618,0.0,0.0,0.0,1.3079,0.0,0.0,0.0,1.3282,1.3163,1.2358,1.2238,1.2067,1.1514,1.1527,1.1507,1.1273,1.1096,1.0916,1.0686,1.0697,1.069,1.0616,1.0541,1.0473,1.0424,1.0385,1.0358,1.0315,1.0315,1.0342,1.0417,1.0349,1.0315,1.0315,1.0209,1.0096,0.9984,1.0021,1.0086,1.0168,1.0168,1.0243,1.0385,1.0342,1.0236,1.0168,1.0168,1.012,1.0059,1.0134,1.0177,1.0258,1.0521,1.0656,1.0684,1.0684,1.0684,1.0684,0.0,0.0,0.0,2.1015,2.0469,2.0137,2.0411,1.9942,1.9545,1.952,1.9173,1.8704,0.0,0.0,0.0,0.0,0.0,0.0,0.0,0.0,1.3988,1.428,1.4829,1.4804,1.4118,1.3861,1.3687,1.36,1.3666,1.3834,1.4116,1.4911,1.5294,1.5322,1.5701,1.4863,1.3201,0.0,0.0,1.029,1.1684,1.1521,1.0391,0.9528,0.9394,0.9649,0.9768,0.9697,0.9535,0.9027,0.9089,0.9475,0.9885,0.9353,0.0,0.0,0.0,0.0,0.0,0.0,0.0,0.0,0.0,1.3096,0.0,0.0,0.0,1.1944,1.2415,1.2817,1.1626,1.1523,1.1528,1.1302,1.1089,1.0867,1.0634,1.0601,1.0517,1.0319,1.0231,1.0188,1.0132,1.0105,1.013,1.0188,1.0136,1.0143,1.0236,1.0209,1.0195,1.0195,1.0042,0.9974,0.9974,0.9852,0.9866,0.9984,0.9988,1.0055,1.0236,1.0209,1.0127,0.9974,0.9974,0.9907,0.9798,0.9927,1.0008,1.0089,1.0385,1.0568,1.0644,1.0677,1.0684,1.0684,2.198,2.155,0.0,2.0892,2.0653,2.0391,2.004,1.9627,1.9319,1.9258,1.8886,0.0,0.0,0.0,0.0,0.0,0.0,0.0,1.5164,0.0,0.0,1.32,1.4027,1.4397,1.4189,1.3973,1.3797,1.36,1.3908,1.4055,1.4116,1.4911,1.5294,1.5277,1.4929,1.4089,1.2976,1.3356,1.2447,1.0754,1.1357,1.0677,0.9248,0.8659,0.8713,0.9162,0.9625,0.9697,0.9407,0.0,0.8552,0.9688,0.0,0.9294,0.9834,1.2596,0.0,0.0,0.0,0.0,0.0,0.0,1.1964,0.0,1.1814,0.0,1.3878,1.3625,0.0,1.2999,1.268,0.0,0.0,1.191,1.1627,1.1398,1.137,1.1192,1.0674,0.9642,0.973,0.9754,0.9509,0.9392,0.9463,0.9832,0.9536,0.9522,0.9997,0.992,0.9846,0.9846,0.9825,0.9819,0.9819,0.9798,0.9866,0.9984,0.9879,0.9893,1.0042,0.9907,0.9832,0.9819,0.9819,0.9805,0.9792,0.9812,1.0005,1.027,1.0432,1.05,1.0534,1.067,1.0684,1.0684,2.2057,2.1607,0.0,0.0,2.0314,1.9942,1.9764,1.9572,1.9265,1.8687,1.8545,0.0,0.0,0.0,0.0,0.0,0.0,1.1445,0.0,0.0,0.0,0.0,1.3197,1.3985,1.2438,1.3347,1.3717,1.3477,1.3933,1.4228,1.4349,1.5205,1.5595,1.555,1.461,1.3405,1.203,1.1817,1.007,0.7641,0.9267,0.8883,0.7403,0.8426,0.905,0.9388,0.96,0.9659,0.9482,0.8714,0.8784,0.0,0.0,0.0,0.0,0.0,0.0,0.0,0.0,0.0,0.0,0.0,0.0,0.0,1.2126,0.0,1.3444,1.3438,0.0,0.0,0.0,0.0,0.0,0.0,1.1506,1.1179,1.0888,1.0552,1.0372,1.0365,1.0134,0.9824,0.9393,0.9269,0.9218,0.9284,0.924,0.9307,0.9523,0.9551,0.9605,0.9693,0.97,0.971,0.9792,0.9792,0.9819,0.9886,0.9819,0.9825,0.9886,0.9819,0.9792,0.9792,0.9792,0.9792,0.9792,0.9792,0.9897,1.0032,1.0143,1.0392,1.0622,1.0595,1.0643,1.0684,0.0,0.0,0.0,0.0,1.9883,1.9584,1.9497,1.9184,1.8616,1.7723,0.0,0.0,1.3819,1.322,0.0,0.0,1.0621,0.9813,0.0,0.0,1.0391,0.0,0.0,0.0,0.0,1.2336,1.2976,1.2772,1.3718,1.4278,1.4423,1.5209,1.5574,1.5523,1.4244,1.2769,1.1192,1.0703,0.8696,0.603,0.8119,0.8095,0.6943,0.8435,0.9216,0.949,0.953,0.9544,0.9451,0.8884,0.8935,0.9147,0.8873,0.8382,0.8108,0.0,0.0,0.0,0.8816,0.0,0.0,0.0,0.0,0.0,0.0,0.0,0.0,0.0,1.3055,0.0,0.0,0.0,0.0,0.0,0.0,1.1091,1.0787,1.0433,1.0312,1.0593,1.0085,0.9481,0.8927,0.8864,0.8821,0.8748,0.8863,0.9041,0.9179,0.9328,0.9449,0.9605,0.9646,0.972,0.9792,0.9792,0.9792,0.9792,0.9792,0.9792,0.9792,0.9792,0.9792,0.9792,0.9792,0.9792,0.9792,0.9792,0.9812,0.9859,0.9927,1.0231,1.0643,1.0534,1.0561,1.0663,2.0469,2.0663,0.0,0.0,0.0,1.9517,1.9252,1.81,0.0,0.0,0.0,0.0,0.0,0.0,0.0,0.0,0.0,0.9759,1.1147,0.0,1.0537,0.0,0.0,1.1031,0.0,0.0,1.1255,1.1159,1.3203,1.4205,1.4205,1.4763,1.5024,1.4963,1.3688,1.2271,1.0803,1.0596,0.9424,0.7822,0.8929,0.9154,0.877,0.8582,0.8796,0.9241,0.9362,0.9417,0.9207,0.791,0.8694,1.0033,0.888,0.9152,1.0034,0.0,0.0,0.0,0.9797,0.9419,0.8866,0.8137,0.9267,1.0553,1.0559,0.0,1.4064,0.0,0.0,0.0,0.0,0.0,0.0,0.0,0.0,0.0,0.0,1.142,1.0773,0.9523,0.8989,0.8474,0.7807,0.7859,0.8048,0.8291,0.8325,0.8578,0.9165,0.9328,0.9449,0.9605,0.971,0.9785,0.9792,0.9792,0.9792,0.9792,0.9792,0.9792,0.9792,0.9792,0.9792,0.9792,0.9792,0.9792,0.9792,0.9792,0.9879,0.9963,0.9852,1.01,1.05,1.0493,1.0493,1.0521,0.0,0.0,0.0,0.0,0.0,0.0,0.0,1.6844,0.0,0.0,1.5706,0.0,0.0,1.1017,1.1027,0.0,0.0,0.9475,1.0595,1.0157,0.0,0.0,0.0,0.9246,0.0,0.0,0.0,0.9381,1.194,1.2867,1.2244,1.398,1.4814,1.476,1.3626,1.2529,1.1531,1.0572,0.9119,0.7511,0.8103,0.8825,0.9524,0.9114,0.9067,0.9214,0.924,0.926,0.9203,0.874,0.8597,0.8613,0.8874,0.8355,0.7761,0.8543,0.8314,0.7841,0.7714,0.8123,0.8366,0.7424,0.8379,0.9396,0.8727,0.9485,1.0459,0.0,0.0,0.0,0.0,0.0,0.0,0.0,0.0,0.0,0.0,1.0892,1.0031,0.8424,0.8346,0.8226,0.7682,0.7843,0.7922,0.7774,0.8104,0.8387,0.8587,0.8804,0.9049,0.9328,0.9449,0.9625,0.9792,0.9792,0.9792,0.9792,0.9792,0.9792,0.9792,0.9792,0.9792,0.9792,0.9792,0.9792,0.9792,0.9792,0.9819,0.9859,0.9812,0.9947,1.0184,1.031,1.0473,1.0649,1.726,0.0,0.0,0.0,0.0,0.0,1.6498,0.0,0.0,0.0,1.4079,0.0,1.1012,0.0,1.0711,0.0,1.0052,0.9572,0.9696,0.97,0.0,0.693,0.8124,0.0,0.0,0.0,0.0,0.0,0.0,1.1923,1.125,1.3474,1.4476,1.431,1.3666,1.2737,1.1626,1.089,0.9521,0.7893,0.8095,0.8733,0.9496,0.9201,0.9228,0.9418,0.9173,0.9104,0.9104,0.9104,0.8715,0.8344,0.8921,0.8319,0.7485,0.7881,0.7794,0.7511,0.7111,0.7616,0.8143,0.7498,0.8288,0.906,0.8363,0.8662,0.92,0.962,0.8636,0.0,0.0,0.0,0.0,0.0,0.0,0.0,0.0,1.0052,0.9125,0.8005,0.8133,0.807,0.7434,0.7557,0.7623,0.7535,0.7854,0.8113,0.8294,0.8554,0.8825,0.9097,0.9327,0.9551,0.971,0.9765,0.9792,0.9792,0.9792,0.9792,0.9792,0.9792,0.9792,0.9792,0.9792,0.9792,0.9792,0.9792,0.9792,0.9798,0.9852,0.9967,1.0109,1.0243,1.0466,1.0684,1.6891,1.7691,0.0,0.0,1.5876,1.4575,1.5498,1.3149,1.1256,0.0,1.088,1.0076,0.8888,0.9519,0.9992,0.9813,1.0385,1.0143,0.8731,0.9825,0.0,0.0,0.8311,0.8233,0.7442,0.0,0.0,0.0,0.0,1.1327,1.1035,1.3126,1.3924,1.3656,1.3757,1.2782,1.1109,1.1455,1.0531,0.8912,0.8912,0.8919,0.896,0.8919,0.9321,0.9802,0.9126,0.8912,0.8912,0.8912,0.9028,0.9145,0.8953,0.9028,0.9117,0.8804,0.8961,0.8987,0.8045,0.7974,0.82,0.8277,0.8881,0.9402,0.9214,0.9781,1.0153,0.9563,0.8655,0.8403,0.0,0.0,0.0,0.0,0.0,0.0,0.0,0.9091,0.8245,0.8201,0.8246,0.7961,0.7099,0.7027,0.721,0.7564,0.7615,0.7805,0.8248,0.854,0.8743,0.8906,0.9339,0.9605,0.9618,0.9724,0.9792,0.9792,0.9792,0.9792,0.9792,0.9792,0.9792,0.9792,0.9792,0.9792,0.9792,0.9792,0.9792,0.9805,0.9961,1.0116,1.0322,1.0329,1.048,1.0684,1.6088,1.738,1.8236,1.7263,1.587,1.4831,1.4738,1.4815,1.4051,0.0,1.463,1.5328,1.128,1.2461,1.2884,1.1129,1.1115,0.0,0.0,0.0,0.0,1.1093,0.871,0.7455,0.7696,0.7594,0.0,0.5146,0.0,0.9553,0.8363,1.1283,1.2727,1.2886,1.326,1.2519,1.095,1.1149,1.0339,0.8912,0.8912,0.9209,0.9581,0.9077,0.9321,0.9802,0.9126,0.8912,0.8912,0.8912,0.8933,0.896,0.8926,0.8933,0.8953,0.8872,0.9089,0.9271,0.8929,0.9069,0.9179,0.8349,0.842,0.8468,0.7679,0.7687,0.7938,0.8375,0.7477,0.6877,0.7782,0.7361,0.7233,0.0,0.0,0.0,0.0,0.0,0.8758,0.8054,0.808,0.7858,0.7144,0.7423,0.7641,0.7593,0.7793,0.7959,0.8074,0.8377,0.8662,0.8899,0.9266,0.9544,0.9737,0.9771,0.9792,0.9792,0.9792,0.9792,0.9792,0.9792,0.9792,0.9792,0.9792,0.9792,0.9792,0.9792,0.9792,0.9805,0.9961,1.0177,1.0453,1.0568,1.0656,1.0684,1.5863,1.7333,1.8188,1.7538,1.6276,1.4986,1.3839,1.3252,1.2349,1.081,1.3707,0.0,1.134,1.2459,1.2883,1.1515,1.1363,0.0,1.1545,0.0,0.0,1.0809,0.9248,0.8455,0.8578,0.7998,0.0,0.5871,0.0,0.9173,0.8266,1.1108,1.2481,1.2517,1.294,1.2536,1.1529,1.1065,1.0219,0.9189,0.8988,0.9119,0.0,0.9057,0.9126,0.9419,0.9029,0.8912,0.8912,0.8912,0.8912,0.8912,0.8912,0.8912,0.8912,0.8912,0.9027,0.9198,0.9267,0.9464,0.9476,0.8915,0.8895,0.8721,0.7616,0.7385,0.749,0.7898,0.6912,0.636,0.7634,0.6768,0.6251,0.0,0.0,0.0,0.0,0.0,0.0,0.8091,0.8027,0.7864,0.7481,0.7591,0.774,0.7865,0.7836,0.7864,0.7988,0.8323,0.8587,0.8804,0.9259,0.9557,0.9697,0.9825,0.9859,0.9792,0.9792,0.9792,0.9792,0.9792,0.9792,0.9792,0.9792,0.9792,0.9792,0.9792,0.9832,0.9913,1.013,1.0385,1.0602,1.0657,1.0684,1.0684,1.5806,1.7057,1.7743,1.7883,1.6321,1.4543,1.3065,1.1046,0.9646,0.9441,1.1233,1.2007,1.0527,1.135,1.1837,1.1438,0.0,1.0838,0.9925,1.0412,1.0313,0.9404,0.9978,1.01,0.9646,0.8553,0.0,0.0,0.0,0.9369,0.9168,1.1534,1.2546,1.2418,1.2721,1.2587,1.2042,1.094,1.0081,0.9448,0.9064,0.8912,0.8912,0.8912,0.8912,0.8912,0.8912,0.8912,0.8912,0.8912,0.8912,0.8912,0.8912,0.8912,0.8912,0.8912,0.8926,0.8994,0.9308,0.941,0.9435,0.9551,0.9686,0.951,0.8418,0.8183,0.8148,0.8011,0.7045,0.6717,0.8221,0.684,0.5871,0.0,0.0,0.0,0.0,0.0,0.0,0.0,0.7893,0.0,0.7915,0.7669,0.7695,0.8172,0.788,0.7801,0.8038,0.8328,0.854,0.871,0.9266,0.9585,0.9666,0.9873,0.9934,0.9819,0.9798,0.9792,0.9792,0.9792,0.9792,0.9792,0.9792,0.9792,0.9792,0.9792,0.9893,1.0076,1.0365,1.0568,1.0684,1.0684,1.0684,1.0684,1.4974,1.5268,0.0,1.6275,1.3767,1.2084,1.3326,1.4367,1.3785,1.0462,1.4104,1.5524,1.1766,1.2986,1.3338,1.1579,1.1288,0.0,0.0,0.0,0.0,1.2299,1.1149,1.0243,0.9765,0.9343,0.8096,0.0,0.0,0.8455,0.7733,1.0171,1.1713,1.2401,1.2571,1.1908,1.0634,1.0023,0.9426,0.8852,0.8899,0.8912,0.8912,0.8912,0.8912,0.8912,0.8912,0.8912,0.8912,0.8912,0.8912,0.8912,0.8912,0.8912,0.8912,0.8912,0.9022,0.9152,0.9206,0.9403,0.9544,0.9449,0.9537,0.9539,0.9218,0.9149,0.9103,0.8985,0.8763,0.8361,0.7531,0.6909,0.6303,0.5586,0.7148,0.8482,0.0,0.0,0.0,0.0,0.0,0.6906,0.795,0.8002,0.8058,0.8253,0.8158,0.8161,0.8329,0.8334,0.8486,0.8858,0.9117,0.9469,0.9934,0.9866,0.9879,0.9974,0.9852,0.9792,0.9792,0.9792,0.9792,0.9792,0.9792,0.9792,0.9792,0.9792,0.9985,1.0243,1.0297,1.048,1.0684,1.0684,1.0684,1.0684,1.4266,0.0,0.0,1.5495,1.3382,1.1926,1.2851,1.3495,1.2966,1.0521,1.3348,1.441,1.1219,1.2108,1.2511,1.1501,1.1185,1.1356,1.2082,1.1303,1.1124,1.1813,1.1061,1.0439,1.0066,0.9693,0.8587,0.6731,0.0,0.8209,0.8106,0.9626,1.1004,1.2264,1.2289,1.1257,0.9538,0.9883,0.9689,0.9161,0.8968,0.8912,0.8912,0.8912,0.8912,0.8912,0.8912,0.8912,0.8912,0.8912,0.8912,0.8912,0.8912,0.8912,0.8912,0.8912,0.896,0.9055,0.9158,0.9288,0.9383,0.9308,0.9403,0.9449,0.9328,0.9294,0.9274,0.9228,0.9124,0.8652,0.7332,0.6935,0.6653,0.6167,0.6948,0.7804,0.0,0.0,0.836,0.0,0.0,0.0,0.7934,0.7941,0.7999,0.8239,0.8213,0.8206,0.8205,0.839,0.8629,0.8899,0.9157,0.9483,0.9893,0.9907,0.9907,0.99,0.9825,0.9792,0.9792,0.9792,0.9792,0.9792,0.9792,0.9792,0.9798,0.9879,1.0073,1.0322,1.0397,1.0527,1.0684,1.0684,1.0684,1.0684,1.338,1.3959,1.4579,1.4718,1.3166,1.2028,1.2347,1.1963,1.1351,1.0601,1.1907,1.2316,1.0667,1.0999,1.1376,1.1376,1.1036,1.0867,1.0867,1.0752,1.0684,1.0684,1.0684,1.0582,1.0322,0.9842,0.8971,0.0,0.0,0.8031,0.8668,0.9229,1.0318,1.1819,1.1472,1.0404,0.8933,0.9847,0.9918,0.9384,0.9023,0.8912,0.8912,0.8912,0.8912,0.8912,0.8912,0.8912,0.8912,0.8912,0.8912,0.8912,0.8912,0.8912,0.8912,0.8912,0.8912,0.894,0.9145,0.9207,0.9207,0.9207,0.9274,0.9322,0.9172,0.9138,0.9138,0.9138,0.9015,0.8519,0.7321,0.7166,0.7151,0.7031,0.7186,0.7578,0.8303,0.0,0.0,0.0,0.0,0.0,0.7857,0.7513,0.753,0.8073,0.8131,0.8101,0.8033,0.8359,0.8504,0.8406,0.8979,0.9327,0.9365,0.9768,0.994,0.9917,0.9825,0.9792,0.9792,0.9792,0.9792,0.9792,0.9792,0.9792,0.9798,0.992,1.0062,1.0243,1.0351,1.0514,1.067,1.067,1.069,1.0684,1.1927,1.1306,1.1323,1.3229,1.1753,1.0867,1.2407,1.2157,1.1719,1.1491,1.1644,1.1679,1.1507,1.1306,1.122,1.122,1.0914,1.0711,1.0711,1.0698,1.0684,1.0684,1.0684,1.0582,1.0322,0.9842,0.8927,0.0,0.7222,0.7445,0.8183,0.8594,0.9566,1.0886,0.9659,0.9109,0.9186,0.9531,0.9342,0.8791,0.8858,0.8912,0.8912,0.8912,0.8912,0.8912,0.8912,0.8912,0.8912,0.8912,0.8912,0.8912,0.8912,0.8912,0.8912,0.8912,0.8912,0.894,0.9145,0.9207,0.9207,0.9207,0.9221,0.9165,0.8967,0.8933,0.8933,0.8933,0.8919,0.8519,0.7321,0.7886,0.8141,0.6933,0.764,0.8285,0.8083,0.8215,0.8195,0.7876,0.0,0.0,0.7707,0.6694,0.6484,0.7731,0.7906,0.8011,0.8174,0.8107,0.7657,0.6752,0.8161,0.8646,0.7978,0.9193,0.9971,1.0236,0.9951,0.9792,0.9792,0.9792,0.9792,0.9792,0.9792,0.9792,0.9792,0.9805,0.99,1.0042,1.0055,1.0231,1.0514,1.0514,1.0602,1.0684,1.1286,1.1434,1.1839,1.2823,1.181,1.1132,1.1929,1.183,1.1644,1.1626,1.1658,1.1644,1.1504,1.1329,1.12,1.12,1.0894,1.0725,1.0819,1.0738,1.0684,1.0684,1.0684,1.0622,1.0412,1.009,0.9197,0.7741,0.6766,0.6535,0.7028,0.7048,0.775,0.8949,0.9096,0.8732,0.8041,0.8753,0.8982,0.8825,0.8885,0.8912,0.8912,0.8912,0.8912,0.8912,0.8912,0.8912,0.8912,0.8912,0.8912,0.8912,0.8912,0.8912,0.8912,0.8912,0.8912,0.8926,0.9008,0.9022,0.9022,0.9022,0.9022,0.9008,0.8926,0.8912,0.8912,0.8912,0.8912,0.8747,0.8269,0.7944,0.7807,0.7998,0.7822,0.7812,0.824,0.8357,0.0,0.7959,0.0,0.7377,0.7865,0.7353,0.7254,0.7876,0.8032,0.8041,0.7959,0.8129,0.8116,0.7816,0.8533,0.8893,0.8866,0.9496,0.9852,1.0005,0.9876,0.9792,0.9792,0.9792,0.9792,0.9792,0.9792,0.9792,0.9792,0.9792,0.9879,0.9997,1.0123,1.031,1.05,1.0595,1.0637,1.0684,1.1247,1.1662,1.2008,1.2314,1.1884,1.1497,1.1608,1.1584,1.1584,1.1584,1.1667,1.1619,1.1416,1.1329,1.1247,1.12,1.0968,1.0846,1.0914,1.0813,1.0732,1.0691,1.0684,1.0649,1.0493,1.0281,0.9579,0.8399,0.7036,0.6632,0.7129,0.6658,0.705,0.8164,0.8638,0.8426,0.7761,0.851,0.8879,0.8912,0.8912,0.8912,0.8912,0.8912,0.8912,0.8912,0.8912,0.8912,0.8912,0.8912,0.8912,0.8912,0.8912,0.8912,0.8912,0.8912,0.8912,0.8912,0.8912,0.8912,0.8912,0.8912,0.8912,0.8912,0.8912,0.8912,0.8912,0.8912,0.8912,0.8912,0.8912,0.8214,0.7891,0.8714,0.8124,0.778,0.8354,0.8444,0.8271,0.7816,0.7554,0.7497,0.7746,0.7465,0.7465,0.7963,0.8139,0.8126,0.7882,0.8125,0.8205,0.8053,0.8596,0.8926,0.9,0.9535,0.9812,0.9859,0.9812,0.9792,0.9792,0.9792,0.9792,0.9792,0.9792,0.9792,0.9792,0.9792,0.9879,0.9997,1.0168,1.0331,1.0507,1.0616,1.0683,1.0684,1.1851,1.1425,1.0898,1.1523,1.1606,1.1613,1.1584,1.1584,1.1584,1.1584,1.1491,1.1396,1.1389,1.1389,1.1328,1.1213,1.1193,1.1097,1.0921,1.0914,1.0846,1.0691,1.0684,1.0649,1.0493,1.0383,1.0059,0.9582,0.8297,0.8194,0.9142,0.8019,0.809,0.9142,0.8014,0.8038,0.8898,0.9089,0.9069,0.8912,0.8912,0.8912,0.8912,0.8912,0.8912,0.8912,0.8912,0.8912,0.8912,0.8912,0.8912,0.8912,0.8912,0.8912,0.8912,0.8912,0.8912,0.8912,0.8912,0.8912,0.8912,0.8912,0.8912,0.8912,0.8912,0.8912,0.8912,0.8912,0.8912,0.8912,0.8912,0.8885,0.8831,0.871,0.8689,0.8581,0.8342,0.8301,0.8036,0.7303,0.6504,0.6344,0.7134,0.6483,0.6572,0.7909,0.818,0.8226,0.802,0.8013,0.7541,0.6564,0.8081,0.8485,0.7625,0.9063,0.9866,0.9984,0.9859,0.9792,0.9792,0.9792,0.9792,0.9792,0.9792,0.9792,0.9792,0.9792,0.9879,0.9984,0.999,1.0197,1.0493,1.0493,1.0588,1.0684,1.1426,1.144,1.1362,1.157,1.1584,1.1584,1.1584,1.1584,1.1584,1.1584,1.1484,1.1383,1.1281,1.1145,1.1036,1.0988,1.0921,1.0887,1.0914,1.0819,1.0738,1.0691,1.0684,1.0664,1.0649,1.0405,1.0161,0.9879,0.8495,0.79,0.8043,0.7766,0.8201,0.9192,0.8926,0.891,0.9117,0.9158,0.9152,0.9104,0.8953,0.8967,0.9104,0.8946,0.8912,0.8912,0.8912,0.8912,0.8912,0.8912,0.8912,0.8912,0.8912,0.8912,0.8912,0.8912,0.8912,0.8912,0.8912,0.8912,0.8912,0.8912,0.8912,0.8912,0.8912,0.8912,0.8912,0.8912,0.8912,0.8912,0.8912,0.8912,0.8892,0.8845,0.875,0.8642,0.8471,0.8355,0.8164,0.7784,0.751,0.7453,0.7721,0.7629,0.7368,0.6877,0.6899,0.724,0.7965,0.8202,0.823,0.8011,0.8723,0.906,0.8958,0.9511,0.9812,0.9859,0.9812,0.9792,0.9792,0.9792,0.9792,0.9792,0.9792,0.9792,0.9798,0.99,0.9974,1.0004,1.0238,1.0405,1.0507,1.0609,1.0644,1.0684,1.1376,1.1491,1.1584,1.1584,1.1584,1.1584,1.1584,1.1572,1.1531,1.1531,1.1355,1.1185,1.109,1.0914,1.0853,1.0907,1.0874,1.09,1.0914,1.0826,1.0745,1.0691,1.0684,1.0684,1.0684,1.0541,1.0371,1.0184,0.9131,0.8459,0.8213,0.8295,0.871,0.9356,0.9422,0.9415,0.9356,0.9356,0.9288,0.92,0.9055,0.9042,0.9062,0.8946,0.8912,0.8912,0.8912,0.8912,0.8912,0.8912,0.8912,0.8912,0.8912,0.8912,0.8912,0.8912,0.8912,0.8912,0.8912,0.8912,0.8912,0.8912,0.8953,0.9022,0.9022,0.8953,0.8912,0.8912,0.8912,0.8912,0.8912,0.8912,0.8892,0.8831,0.8723,0.8574,0.8451,0.8275,0.8071,0.7753,0.7496,0.7451,0.7678,0.7696,0.7532,0.7165,0.7299,0.767,0.8294,0.7962,0.8092,0.8872,0.9199,0.9469,0.9744,0.9917,0.9992,0.9992,0.99,0.9879,0.9873,0.9819,0.9792,0.9792,0.9792,0.9792,0.9805,0.9954,1.0049,1.013,1.0399,1.0527,1.0588,1.0683,1.0684,1.0684,1.1579,1.1577,1.1584,1.1584,1.1584,1.1584,1.1584,1.1497,1.1402,1.1396,1.111,1.0928,1.0914,1.0779,1.0745,1.0887,1.1056,1.1077,1.0907,1.0901,1.0833,1.0691,1.0684,1.0684,1.0684,1.0677,1.0622,1.046,1.0039,0.9693,0.9437,0.9437,0.949,0.9625,0.9625,0.9618,0.9612,0.9612,0.9442,0.9221,0.9214,0.9104,0.8926,0.8912,0.8912,0.8912,0.8912,0.8912,0.8912,0.8912,0.8912,0.8912,0.8912,0.8912,0.8912,0.8912,0.8912,0.8912,0.8912,0.8919,0.8926,0.8926,0.9055,0.9207,0.9172,0.9035,0.8912,0.8912,0.8912,0.8912,0.8912,0.8912,0.8858,0.8737,0.8581,0.8457,0.8315,0.8147,0.7827,0.7328,0.6804,0.6701,0.7239,0.7024,0.7282,0.8335,0.8802,0.8954,0.8792,0.738,0.74,0.9184,0.9469,0.9737,1.0028,1.0209,1.0315,1.0308,1.0096,1.0021,1.0028,0.9879,0.9805,0.9805,0.9798,0.9792,0.9805,0.9954,1.0109,1.0297,1.0439,1.0582,1.0684,1.0684,1.0684,1.0684,1.1463,1.1538,1.1584,1.1584,1.1584,1.1584,1.1584,1.1586,1.1525,1.1409,1.1226,1.107,1.0928,1.0779,1.0698,1.0738,1.0806,1.0812,1.0745,1.0738,1.0725,1.0691,1.0684,1.0684,1.0684,1.0609,1.0419,1.0123,1.0015,0.9866,0.972,0.972,0.9734,0.9744,0.9744,0.9707,0.9612,0.9612,0.9503,0.9342,0.9226,0.9158,0.9117,0.8953,0.8912,0.8912,0.8912,0.8912,0.8912,0.8912,0.8912,0.8912,0.8912,0.8912,0.8912,0.8912,0.8912,0.8912,0.8912,0.9022,0.9131,0.9131,0.9158,0.9152,0.9015,0.8933,0.8912,0.8912,0.8912,0.8912,0.8912,0.8912,0.8858,0.8737,0.8581,0.8457,0.8315,0.8267,0.8189,0.8062,0.8078,0.8179,0.8322,0.8272,0.7991,0.7461,0.7333,0.7415,0.7746,0.7506,0.8,0.9451,0.968,0.9917,1.0222,1.0295,1.0315,1.0308,1.0096,1.0082,1.0222,1.0035,0.9961,0.9961,0.9839,0.9792,0.9805,0.9954,1.0109,1.0297,1.0439,1.0582,1.0684,1.0684,1.0684,1.0684,1.1511,1.1565,1.1584,1.1584,1.1584,1.1584,1.1584,1.1558,1.1457,1.1342,1.1158,1.1009,1.0826,1.0738,1.0684,1.0684,1.0684,1.0684,1.0684,1.0684,1.0684,1.0684,1.0684,1.0684,1.0684,1.0636,1.0453,1.0154,1.0055,0.994,0.9792,0.9792,0.9792,0.9792,0.9792,0.9751,0.9677,0.9677,0.9578,0.9403,0.9322,0.9206,0.9049,0.894,0.8912,0.8912,0.8912,0.8912,0.8912,0.8912,0.8912,0.8912,0.8912,0.8953,0.9035,0.9035,0.9035,0.9035,0.9035,0.9172,0.9301,0.9376,0.9335,0.9267,0.9157,0.9144,0.9123,0.9049,0.9096,0.9117,0.9049,0.9035,0.894,0.8655,0.8381,0.8171,0.8157,0.8052,0.8085,0.837,0.8716,0.8941,0.8941,0.9096,0.8923,0.8188,0.8123,0.8228,0.8497,0.8631,0.8988,0.9653,0.9978,1.0209,1.0378,1.0446,1.048,1.048,1.0324,1.0297,1.0403,1.0222,1.0154,1.0116,0.9961,0.9893,0.9907,1.0062,1.0202,1.0335,1.0514,1.0649,1.0684,1.0684,1.0684,1.0684,1.1579,1.1586,1.1586,1.1586,1.1586,1.1592,1.1613,1.1491,1.1341,1.1247,1.107,1.0887,1.0738,1.0698,1.0684,1.0684,1.0684,1.0684,1.0684,1.0684,1.0684,1.0684,1.0684,1.0684,1.0684,1.0664,1.0555,1.0315,1.0096,0.994,0.9792,0.9792,0.9792,0.9792,0.9792,0.9792,0.9792,0.9792,0.9652,0.941,0.941,0.9205,0.8912,0.8912,0.8912,0.8912,0.8912,0.8912,0.8912,0.8912,0.8912,0.8912,0.8912,0.9022,0.9152,0.92,0.9228,0.922,0.922,0.9328,0.9449,0.9578,0.951,0.9437,0.9417,0.941,0.9376,0.924,0.9322,0.9369,0.924,0.9228,0.8986,0.8326,0.8039,0.7865,0.7706,0.7722,0.7972,0.8494,0.8995,0.9294,0.9315,0.9612,0.9747,0.9594,0.972,0.9819,0.9886,1.0015,1.0028,0.9893,1.029,1.05,1.0527,1.0629,1.0664,1.0684,1.0568,1.0507,1.0521,1.0378,1.0342,1.0335,1.0116,1.0042,1.0028,1.0215,1.0315,1.0304,1.0582,1.0664,1.0684,1.0684,1.0684,1.0684,1.1402,1.1423,1.1423,1.1423,1.1423,1.147,1.1563,1.1491,1.1382,1.1362,1.1226,1.1077,1.0894,1.0765,1.0684,1.0684,1.0684,1.0684,1.0684,1.0684,1.0684,1.0684,1.0684,1.0684,1.0684,1.0595,1.0446,1.0315,1.0096,0.994,0.9792,0.9792,0.9792,0.9792,0.9792,0.9792,0.9792,0.9792,0.9652,0.941,0.941,0.9205,0.8912,0.8912,0.8912,0.8912,0.8912,0.8912,0.8912,0.8912,0.8912,0.8912,0.8912,0.8926,0.8967,0.9145,0.9274,0.9376,0.9376,0.9456,0.9578,0.9605,0.9591,0.9544,0.9437,0.941,0.9403,0.9383,0.9396,0.9403,0.9376,0.9267,0.872,0.7221,0.7769,0.791,0.6518,0.7576,0.8615,0.8825,0.9345,0.9737,0.9866,0.9825,0.9958,1.0297,1.0012,0.9985,1.0371,1.0412,1.0412,1.0385,1.0453,1.0555,1.0683,1.0582,1.0595,1.0684,1.0568,1.0561,1.0644,1.0527,1.046,1.0453,1.0304,1.0168,1.0028,1.0215,1.0315,1.0329,1.046,1.0609,1.0684,1.0684,1.0684,1.0684,1.1288,1.1302,1.1302,1.1302,1.1302,1.1356,1.147,1.1436,1.1362,1.1315,1.124,1.1111,1.0819,1.0732,1.0684,1.0684,1.0684,1.0684,1.0684,1.0684,1.0684,1.0684,1.0684,1.0684,1.0684,1.0568,1.0426,1.0315,1.0096,0.994,0.9792,0.9792,0.9792,0.9792,0.9792,0.9792,0.9785,0.971,0.9632,0.949,0.9356,0.9206,0.9049,0.894,0.8912,0.8912,0.8912,0.8912,0.8912,0.8912,0.8912,0.8926,0.9028,0.911,0.9205,0.9354,0.9449,0.9517,0.9598,0.9673,0.9697,0.9697,0.9697,0.9686,0.9537,0.9564,0.9598,0.9517,0.9564,0.9591,0.9517,0.941,0.8737,0.697,0.7494,0.7699,0.6448,0.7561,0.8678,0.9215,0.9754,1.0127,1.0276,1.0222,1.027,1.0473,1.0229,1.0195,1.0473,1.0493,1.0527,1.0616,1.0616,1.0649,1.0684,1.0649,1.0649,1.0684,1.0649,1.0649,1.0684,1.0649,1.0616,1.0609,1.046,1.0351,1.0297,1.0365,1.0392,1.0412,1.0555,1.0656,1.0684,1.0684,1.0684,1.0684,1.1186,1.1172,1.1159,1.1193,1.1172,1.1179,1.1362,1.1335,1.1274,1.1254,1.1193,1.1023,1.0765,1.0711,1.0684,1.0684,1.0684,1.0684,1.0684,1.0684,1.0684,1.0684,1.0684,1.0684,1.0684,1.0534,1.0392,1.0315,1.0055,0.9907,0.9792,0.9792,0.9792,0.9792,0.9792,0.9792,0.9785,0.9707,0.9639,0.9585,0.9342,0.9241,0.9165,0.8967,0.8912,0.8912,0.8912,0.8912,0.8912,0.8912,0.8933,0.9008,0.9145,0.9288,0.9437,0.9564,0.9632,0.968,0.9758,0.9792,0.9792,0.9792,0.9792,0.9765,0.9686,0.971,0.9758,0.968,0.9744,0.9812,0.9704,0.9585,0.8921,0.718,0.7595,0.7765,0.6778,0.7766,0.8881,0.962,1.008,1.0385,1.0527,1.0548,1.0548,1.0548,1.0446,1.0432,1.0541,1.0548,1.0602,1.0684,1.0684,1.0684,1.0684,1.0684,1.0684,1.0684,1.0684,1.0684,1.0684,1.0684,1.0684,1.0677,1.0595,1.0527,1.0493,1.0527,1.0521,1.0507,1.0663,1.0684,1.0684,1.0684,1.0419,1.0081,1.1145,1.1056,1.0968,1.1172,1.105,1.1029,1.1348,1.1124,1.1043,1.1341,1.1097,1.0921,1.0901,1.0772,1.0684,1.0684,1.0684,1.0684,1.0684,1.0684,1.0684,1.0684,1.0684,1.0684,1.0684,1.0439,1.0322,1.0315,0.9985,0.9798,0.9792,0.9792,0.9792,0.9792,0.9792,0.9792,0.9792,0.9778,0.9697,0.9598,0.9429,0.9308,0.9165,0.8967,0.8912,0.8912,0.8912,0.8912,0.8912,0.8912,0.9028,0.9165,0.9207,0.9288,0.9437,0.9564,0.97,0.9778,0.9785,0.9792,0.9792,0.9792,0.9792,0.9785,0.9778,0.9785,0.9785,0.9778,0.9893,0.997,0.9957,0.9859,0.9272,0.7787,0.8414,0.8621,0.726,0.8461,0.9626,0.9923,1.029,1.0534,1.0657,1.0704,1.0704,1.0704,1.0697,1.0657,1.0671,1.0704,1.0677,1.0684,1.0684,1.0684,1.0684,1.0684,1.0684,1.0684,1.0684,1.0684,1.0684,1.0684,1.0684,1.0684,1.0677,1.0622,1.05,1.0643,1.0622,1.0507,1.0663,1.0684,1.0684,1.0684,0.9643,0.8197,1.0867,1.0846,1.0792,1.088,1.0846,1.0846,1.1049,1.0988,1.0955,1.107,1.0988,1.088,1.0786,1.0725,1.0684,1.0684,1.0684,1.0684,1.0684,1.0684,1.0684,1.0684,1.0684,1.0684,1.0684,1.0609,1.0466,1.0315,1.0161,1.0005,0.9792,0.9792,0.9792,0.9792,0.9792,0.9792,0.9785,0.9697,0.9707,0.9713,0.9403,0.9349,0.9408,0.9164,0.9097,0.9097,0.9097,0.9097,0.9097,0.9097,0.9199,0.9342,0.9437,0.9476,0.9551,0.97,0.9751,0.9792,0.9792,0.9792,0.9792,0.9792,0.9792,0.9812,0.9907,0.9934,0.9961,1.0086,1.0154,1.0195,1.0195,1.0035,0.9449,0.7956,0.8689,0.9006,0.771,0.8869,0.9961,1.0258,1.0507,1.0623,1.0717,1.0684,1.0684,1.0684,1.0684,1.0684,1.0684,1.0684,1.0684,1.0684,1.0684,1.0684,1.0684,1.0684,1.0684,1.0684,1.0684,1.0684,1.0684,1.0684,1.0684,1.0684,1.0684,1.065,1.0636,1.0697,1.0683,1.0636,1.0664,1.0684,1.0552,0.9437,0.8601,0.7831,1.0745,1.0718,1.0704,1.0752,1.0718,1.0738,1.0894,1.0874,1.086,1.0873,1.0874,1.0799,1.0698,1.0684,1.0684,1.0684,1.0684,1.0684,1.0684,1.0684,1.0684,1.0684,1.0684,1.0684,1.0684,1.067,1.0548,1.0344,1.0256,1.01,0.9859,0.9812,0.9792,0.9792,0.9792,0.9792,0.9785,0.972,0.9704,0.9758,0.9464,0.9422,0.9585,0.9349,0.9254,0.9254,0.9254,0.9254,0.9254,0.9254,0.9356,0.9469,0.9578,0.9639,0.9693,0.9765,0.9792,0.9792,0.9792,0.9825,0.9852,0.9805,0.9792,0.9832,0.9981,0.9984,1.0062,1.0249,1.0317,1.0344,1.0344,1.0263,0.9837,0.8827,0.9293,0.9539,0.8766,0.9512,1.0251,1.0534,1.0623,1.0684,1.0684,1.0684,1.0684,1.0684,1.0684,1.0684,1.0684,1.0684,1.0684,1.0684,1.0684,1.0684,1.0684,1.0684,1.0684,1.0684,1.0684,1.0684,1.0684,1.0684,1.0684,1.0684,1.0684,1.0684,1.0684,1.0684,1.0684,1.0651,1.0081,0.9842,0.9643,0.7831,0.6827,0.616,1.088,1.0792,1.0732,1.0887,1.0786,1.0738,1.0887,1.0786,1.0738,1.0894,1.0779,1.0684,1.0684,1.0684,1.0684,1.0684,1.0684,1.0684,1.0684,1.0684,1.0684,1.0684,1.0684,1.0684,1.0684,1.0568,1.0493,1.0493,1.0163,0.999,0.9984,0.9866,0.9792,0.9792,0.9792,0.9792,0.9792,0.9792,0.9792,0.9778,0.9666,0.9612,0.9591,0.9442,0.941,0.941,0.941,0.941,0.941,0.941,0.9483,0.9612,0.9612,0.9677,0.9792,0.9792,0.9792,0.9792,0.9792,0.9907,0.9981,0.9832,0.9792,0.9832,0.9988,0.999,1.0069,1.0249,1.0392,1.0493,1.0493,1.0493,1.0493,1.0493,1.0378,1.0363,1.0473,1.0493,1.0548,1.0671,1.0684,1.0684,1.0684,1.0684,1.0684,1.0684,1.0684,1.0684,1.0684,1.0684,1.0684,1.0684,1.0684,1.0684,1.0684,1.0684,1.0684,1.0684,1.0684,1.0684,1.0684,1.0684,1.0684,1.0684,1.0684,1.0684,1.0684,1.0684,1.0684,1.0485,0.8668,0.7964,0.7764,0.603,0.4225,0.2685,1.0745,1.0718,1.0698,1.0745,1.0718,1.0704,1.0745,1.0718,1.0704,1.0745,1.0718,1.0684,1.0684,1.0684,1.0684,1.0684,1.0684,1.0684,1.0684,1.0684,1.0684,1.0684,1.0684,1.0684,1.0684,1.0677,1.0602,1.0493,1.0405,1.031,1.0209,1.0021,0.9947,0.9947,0.9839,0.9792,0.9792,0.9792,0.9792,0.9778,0.9666,0.9673,0.971,0.9598,0.9544,0.9544,0.9544,0.9544,0.9544,0.9544,0.9639,0.9744,0.9852,0.9913,0.9947,0.9947,1.0028,1.012,0.9981,1.0062,1.0175,0.9988,1.0059,1.0181,1.0324,1.0358,1.0405,1.0555,1.0622,1.0649,1.0649,1.0649,1.0649,1.0649,1.0616,1.0602,1.0643,1.0649,1.067,1.0717,1.0684,1.0684,1.0684,1.0684,1.0684,1.0684,1.0684,1.0684,1.0684,1.0684,1.0684,1.0684,1.0684,1.0684,1.0684,1.0684,1.0684,1.0684,1.0684,1.0684,1.0684,1.0684,1.0684,1.0684,1.0684,0.9981,0.8801,0.8801,0.8102,0.6931,0.6398,0.6164,0.5964,0.4158,0.3155,0.2518,1.0684,1.0684,1.0684,1.0684,1.0684,1.0684,1.0684,1.0684,1.0684,1.0684,1.0684,1.0684,1.0684,1.0684,1.0684,1.0684,1.0684,1.0684,1.0684,1.0684,1.0684,1.0684,1.0684,1.0684,1.0684,1.0684,1.0677,1.0582,1.0521,1.0446,1.0358,1.0116,1.0049,1.0103,0.9886,0.9825,0.9879,0.9819,0.9792,0.9785,0.9697,0.9717,0.9785,0.9697,0.9693,0.9693,0.9693,0.9693,0.9693,0.9693,0.9758,0.99,0.9988,1.0062,1.0109,1.0109,1.0209,1.0263,1.0136,1.0249,1.0344,1.0218,1.0256,1.0349,1.046,1.0493,1.0534,1.0657,1.0684,1.0684,1.0684,1.0684,1.0684,1.0684,1.0684,1.0684,1.0684,1.0684,1.0684,1.0684,1.0684,1.0684,1.0684,1.0684,1.0684,1.0684,1.0684,1.0684,1.0684,1.0684,1.0684,1.0684,1.0684,1.0684,1.0684,1.0684,1.0684,1.0684,1.0684,1.0684,1.0684,1.0684,1.0684,1.0651,0.9948,0.9006,0.7931,0.7265,0.6364,0.5329,0.4626,0.4325,0.4124,0.2316,0.1646,0.1478,1.0684,1.0684,1.0684,1.0684,1.0684,1.0684,1.0684,1.0684,1.0684,1.0684,1.0684,1.0684,1.0684,1.0684,1.0684,1.0684,1.0684,1.0684,1.0684,1.0684,1.0684,1.0684,1.0684,1.0684,1.0684,1.0684,1.0684,1.0684,1.0582,1.0514,1.0507,1.0191,1.013,1.0283,0.9992,0.99,0.9977,0.9866,0.9805,0.9792,0.9792,0.9792,0.9792,0.9792,0.9792,0.9792,0.9792,0.9792,0.9792,0.9792,0.9886,0.997,0.9984,1.0123,1.0315,1.0315,1.0329,1.0317,1.0335,1.0437,1.0514,1.0514,1.0419,1.0351,1.048,1.0514,1.0555,1.0657,1.0684,1.0684,1.0684,1.0684,1.0684,1.0684,1.0684,1.0684,1.0684,1.0684,1.0684,1.0684,1.0684,1.0684,1.0684,1.0684,1.0684,1.0684,1.0684,1.0684,1.0684,1.0684,1.0684,1.0684,1.0684,1.0684,1.0684,1.0684,1.0684,1.0684,1.0684,1.0684,1.0684,1.0518,1.0452,1.0352,0.8535,0.7664,0.7398,0.583,0.5061,0.476,0.3088,0.245,0.2249,0.0605,0.0,0.0,1.0684,1.0684,1.0684,1.0684,1.0684,1.0684,1.0684,1.0684,1.0684,1.0684,1.0684,1.0684,1.0684,1.0684,1.0684,1.0684,1.0684,1.0684,1.0684,1.0684,1.0684,1.0684,1.0684,1.0684,1.0684,1.0684,1.0684,1.0684,1.065,1.067,1.0637,1.048,1.0412,1.0439,1.0263,1.0134,0.9984,0.9981,0.99,0.9792,0.9792,0.9792,0.9792,0.9792,0.9792,0.9792,0.9792,0.9792,0.9792,0.9792,0.9812,0.9859,0.9981,1.0123,1.0315,1.0315,1.0446,1.0602,1.048,1.0555,1.067,1.067,1.0617,1.0629,1.0663,1.067,1.0644,1.0677,1.0684,1.0684,1.0684,1.0684,1.0684,1.0684,1.0684,1.0684,1.0684,1.0684,1.0684,1.0684,1.0684,1.0684,1.0684,1.0684,1.0684,1.0684,1.0684,1.0684,1.0684,1.0684,1.0684,1.0684,1.0684,1.0684,1.0684,1.0684,1.0684,1.0684,1.0684,1.0684,1.0651,0.9238,0.8601,0.8501,0.6731,0.5162,0.3823,0.3454,0.245,0.1143,0.074,0.0572,0.0538,0.0135,0.0,0.0,1.0684,1.0684,1.0684,1.0684,1.0684,1.0684,1.0684,1.0684,1.0684,1.0684,1.0684,1.0684,1.0684,1.0684,1.0684,1.0684,1.0684,1.0684,1.0684,1.0684,1.0684,1.0684,1.0684,1.0684,1.0684,1.0684,1.0684,1.0684,0.9842,0.941,0.9404,0.8377,0.7958,0.8108,0.8714,0.8949,0.8915,0.9777,1.0001,0.9798,0.9866,0.9852,0.9792,0.9792,0.9792,0.9792,0.9792,0.9792,0.9792,0.9792,0.9839,0.9927,1.0082,1.0263,1.0392,1.0466,1.0602,1.0671,1.0622,1.0656,1.0684,1.0684,1.0684,1.0684,1.0684,1.0684,1.0684,1.0684,1.0684,1.0684,1.0684,1.0684,1.0684,1.0684,1.0684,1.0684,1.0684,1.0684,1.0684,1.0684,1.0684,1.0684,1.0684,1.0684,1.0684,1.0684,1.0684,1.0684,1.0684,1.0684,1.0684,1.0684,1.0684,1.0684,1.0684,1.0684,1.0684,1.0684,1.0684,1.0684,1.0651,0.8834,0.7997,0.7864,0.5262,0.3591,0.2618,0.178,0.084,0.0,0.0,0.0,0.0,0.0,0.0,0.0,1.0684,1.0684,1.0684,1.0684,1.0684,1.0684,1.0684,1.0684,1.0684,1.0684,1.0684,1.0684,1.0684,1.0684,1.0684,1.0684,1.0684,1.0684,1.0684,1.0684,1.0684,1.0684,1.0684,1.0552,1.0246,1.0246,1.0246,1.0246,0.8734,0.7864,0.7526,0.5892,0.54,0.5889,0.7122,0.7841,0.8178,0.9678,1.012,0.9839,0.994,0.99,0.9792,0.9792,0.9792,0.9792,0.9792,0.9792,0.9792,0.9792,0.9873,0.9939,0.984,0.9895,1.0019,1.0175,1.0214,1.0313,1.0618,1.0684,1.0684,1.0684,1.0684,1.0684,1.0684,1.0684,1.0684,1.0684,1.0684,1.0684,1.0684,1.0684,1.0684,1.0684,1.0684,1.0684,1.0684,1.0684,1.0684,1.0684,1.0684,1.0684,1.0684,1.0684,1.0684,1.0684,1.0684,1.0684,1.0684,1.0684,1.0684,1.0684,1.0684,1.0684,1.0684,1.0684,1.0684,1.0684,1.0684,1.0552,1.018,0.8368,0.7398,0.6927,0.3655,0.2249,0.2115,0.0605,0.0,0.0,0.0,0.0,0.0,0.0,0.0,0.0,1.0684,1.0684,1.0684,1.0684,1.0684,1.0684,1.0684,1.0684,1.0684,1.0684,1.0684,1.0684,1.0684,1.0684,1.0684,1.0684,1.0684,1.0684,1.0684,1.0684,1.0684,1.0684,1.0684,0.9981,0.8402,0.8363,0.8363,0.8363,0.813,0.7231,0.573,0.5485,0.6185,0.7664,0.7867,0.876,1.0129,1.0235,1.0181,0.9981,0.9866,0.9812,0.9792,0.9792,0.9792,0.9792,0.9792,0.9792,0.9792,0.9792,0.9805,0.9575,0.8236,0.7895,0.8018,0.8162,0.8274,0.8701,1.028,1.0684,1.0684,1.0684,1.0684,1.0684,1.0684,1.0684,1.0684,1.0684,1.0684,1.0684,1.0684,1.0684,1.0684,1.0684,1.0684,1.0684,1.0684,1.0684,1.0684,1.0684,1.0684,1.0684,1.0684,1.0684,1.0684,1.0684,1.0684,1.0684,1.0684,1.0684,1.0684,1.0684,1.0684,1.0684,1.0684,1.0684,1.0684,1.0684,1.0684,0.9875,0.8302,0.6564,0.4894,0.3287,0.1243,0.037,0.0336,0.0101,0.0,0.0,0.0,0.0,0.0,0.0,0.0,0.0,1.0684,1.0684,1.0684,1.0684,1.0684,1.0684,1.0684,1.0684,1.0684,1.0684,1.0684,1.0684,1.0684,1.0684,1.0684,1.0684,1.0684,1.0684,1.0684,1.0684,1.0684,1.0684,0.9742,0.8801,0.803,0.7031,0.606,0.5025,0.5025,0.4657,0.3856,0.2853,0.2786,0.362,0.5659,0.6848,0.7513,0.9543,1.0215,0.9893,0.9913,0.9866,0.9792,0.9792,0.9792,0.9792,0.9792,0.9792,0.9792,0.9792,0.9207,0.8336,0.7697,0.6923,0.6246,0.6414,0.7195,0.8163,0.8972,0.9948,1.0684,1.0684,1.0684,1.0684,1.0684,1.0684,1.0684,1.0684,1.0684,1.0684,1.0684,1.0759,1.0786,1.0698,1.0759,1.0786,1.0698,1.0684,1.0684,1.0684,1.0684,1.0684,1.0684,1.0684,1.0684,1.0684,1.0684,1.0684,1.0684,1.0684,1.0684,1.0684,1.0684,1.0684,1.0684,1.0684,1.0684,1.0684,0.9676,0.8767,0.7931,0.6197,0.4426,0.2585,0.0773,0.0,0.0,0.0,0.0,0.0,0.0,0.0,0.0,0.0,0.0,0.0]},{"header":{"parameterUnit":"m.s-1","parameterCategory":1,"la1":30.6,"la2":28.766,"lo1":-90.7593,"lo2":-88.6598,"dy":0.0162,"dx":0.0183,"nx":116,"ny":114,"refTime":"2023-04-24T18:00:00:Z","depth":0,"parameterNumber":3,"parameterNumberName":"V-component_of_WINDS"},"data":[0.0,0.0,0.0,0.0,0.0,0.0,0.0,0.0,0.0,0.0,0.0,0.0,0.0,0.0,0.0,0.0,0.0,0.0,0.0,0.0,0.0,0.0,0.0,0.0,0.0,0.0,0.0,0.0,0.0,0.0,0.0,0.0,0.0,0.0,0.0,0.0,0.0,0.0,0.0,0.0,0.0,0.0,0.0,0.0,0.0,0.0,0.0,0.0,0.0,0.0,0.0,0.0,0.0,0.0,0.0,0.0,0.0,0.0,0.0,0.0,0.0,0.0,0.0,0.0,0.0,0.0,0.0,0.0,0.0,0.0,0.0,0.0,0.0,0.0,0.0,0.0,0.0,0.0,0.0,0.0,0.0,0.0,0.0,0.0,0.0,0.0,0.0,0.0,0.0,0.0,0.0,0.0,0.0,0.0,0.0,0.0,0.0,0.0,0.0,0.0,0.0,0.0,0.0,0.0,0.0,0.0,0.0,0.0,0.0,0.0,0.0,0.0,0.0,0.0,0.0,0.0,0.0,0.0,0.0,0.0,0.0,0.0,0.0,0.0,0.0,0.0,0.0,0.0,0.0,0.0,0.0,0.0,0.0,0.0,0.0,0.0,0.0,0.0,0.0,0.0,0.0,0.0,0.0,0.0,0.0,0.0,0.0,0.0,0.0,0.0,0.0,0.0,0.0,0.0,0.0,0.0,0.0,0.0,0.0,0.0,0.0,0.0,0.0,0.0,0.0,0.0,0.0,0.0,0.0,0.0,0.0,0.0,0.0,0.0,0.0,0.0,0.0,0.0,0.0,0.0,0.0,0.0,0.0,0.0,0.0,0.0,0.0,0.0,0.0,0.0,0.0,0.0,0.0,0.0,0.0,0.0,0.0,0.0,0.0,0.0,0.0,0.0,0.0,0.0,0.0,0.0,0.0,0.0,0.0,0.0,0.0,0.0,0.0,0.0,0.0,0.0,0.0,0.0,0.0,0.0,0.0,0.0,0.0,0.0,0.0,0.0,0.0,0.0,0.0,0.0,0.0,0.0,0.0,0.0,0.0,0.0,0.0,0.0,0.0,0.0,0.0,0.0,0.0,0.0,0.0,0.0,0.0,0.0,0.0,0.0,0.0,0.0,0.0,0.0,0.0,0.0,0.0,0.0,0.0,0.0,0.0,0.0,0.0,0.0,0.0,0.0,0.0,0.0,0.0,0.0,0.0,0.0,0.0,0.0,0.0,0.0,0.0,0.0,0.0,0.0,0.0,0.0,0.0,0.0,0.0,0.0,0.0,0.0,0.0,0.0,0.0,0.0,0.0,0.0,0.0,0.0,0.0,0.0,0.0,0.0,0.0,0.0,0.0,0.0,0.0,0.0,0.0,0.0,0.0,0.0,0.0,0.0,0.0,0.0,0.0,0.0,0.0,0.0,0.0,0.0,0.0,0.0,0.0,0.0,0.0,0.0,0.0,0.0,0.0,0.0,0.0,0.0,0.0,0.0,0.0,0.0,0.0,0.0,0.0,0.0,0.0,0.0,0.0,0.0,0.0,0.0,0.0,0.0,0.0,0.0,0.0,0.0,0.0,0.0,0.0,0.0,0.0,0.0,0.0,0.0,0.0,0.0,0.0,0.0,0.0,0.0,0.0,0.0,0.0,0.0,0.0,0.0,0.0,0.0,0.0,0.0,0.0,0.0,0.0,0.0,0.0,0.0,0.0,0.0,0.0,0.0,0.0,0.0,0.0,0.0,0.0,0.0,0.0,0.0,0.0,0.0,0.0,0.0,0.0,0.0,0.0,0.0,0.0,0.0,0.0,0.0,0.0,0.0,0.0,0.0,0.0,0.0,0.0,0.0,0.0,0.0,0.0,0.0,0.0,0.0,0.0,0.0,0.0,0.0,0.0,0.0,0.0,0.0,0.0,0.0,0.0,0.0,0.0,0.0,0.0,0.0,0.0,0.0,0.0,0.0,0.0,0.0,0.0,0.0,0.0,0.0,0.0,0.0,0.0,0.0,0.0,0.0,0.0,0.0,0.0,0.0,0.0,0.0,0.0,0.0,0.0,0.0,0.0,0.0,0.0,0.0,0.0,0.0,0.0,0.0,0.0,0.0,0.0,0.0,0.0,0.0,0.0,0.0,0.0,0.0,0.0,0.0,0.0,0.0,0.0,0.0,0.0,0.0,0.0,0.0,0.0,0.0,0.0,0.0,0.0,0.0,0.0,0.0,0.0,0.0,0.0,0.0,0.0,0.0,0.0,0.0,0.0,0.0,0.0,0.0,0.0,0.0,0.0,0.0,0.0,0.0,0.0,0.0,0.0,0.0,0.0,0.0,0.0,0.0,0.0,0.0,0.0,0.0,0.0,0.0,0.0,0.0,0.0,0.0,0.0,0.0,0.0,0.0,0.0,0.0,0.0,0.0,0.0,0.0,0.0,0.0,0.0,0.0,0.0,0.0,0.0,0.0,0.0,0.0,0.0,0.0,0.0,0.0,0.0,0.0,0.0,0.0,0.0,0.0,0.0,0.0,0.0,0.0,0.0,0.0,0.0,0.0,0.0,0.0,0.0,0.0,0.0,0.0,0.0,0.0,0.0,0.0,0.0,0.0,0.0,0.0,0.0,0.0,0.0,0.0,0.0,0.0,0.0,0.0,0.0,0.0,0.0,0.0,0.0,0.0,0.0,0.0,0.0,0.0,0.0,0.0,0.0,0.0,0.0,0.0,0.0,0.0,0.0,0.0,0.0,0.0,0.0,0.0,0.0,0.0,0.0,0.0,0.0,0.0,0.0,0.0,0.0,0.0,0.0,0.0,0.0,0.0,0.0,0.0,0.0,0.0,0.0,0.0,0.0,0.0,0.0,0.0,0.0,0.0,0.0,0.0,0.0,0.0,0.0,0.0,0.0,0.0,0.0,0.0,0.0,0.0,0.0,0.0,0.0,0.0,0.0,0.0,0.0,0.0,0.0,0.0,0.0,0.0,0.0,0.0,0.0,0.0,0.0,0.0,0.0,0.0,0.0,0.0,0.0,0.0,0.0,0.0,0.0,0.0,0.0,0.0,0.0,0.0,0.0,0.0,0.0,0.0,0.0,0.0,0.0,0.0,0.0,0.0,0.0,0.0,0.0,0.0,0.0,0.0,0.0,0.0,0.0,0.0,0.0,0.0,0.0,0.0,0.0,0.0,0.0,0.0,0.0,0.0,0.0,0.0,0.0,0.0,0.0,0.0,0.0,0.0,0.0,0.0,0.0,0.0,0.0,0.0,0.0,0.0,0.0,0.0,0.0,0.0,0.0,0.0,0.0,0.0,0.0,0.0,0.0,0.0,0.0,0.0,0.0,0.0,0.0,0.0,0.0,0.0,0.0,0.0,0.0,0.0,0.0,0.0,0.0,0.0,0.0,0.0,0.0,0.0,0.0,0.0,0.0,0.0,0.0,0.0,0.0,0.0,0.0,0.0,0.0,0.0,0.0,0.0,0.0,0.0,0.0,0.0,0.0,0.0,0.0,0.0,0.0,0.0,0.0,0.0,0.0,0.0,0.0,0.0,0.0,0.0,0.0,0.0,0.0,0.0,0.0,0.0,0.0,0.0,0.0,0.0,0.0,0.0,0.0,0.0,0.0,0.0,0.0,0.0,0.0,0.0,0.0,0.0,0.0,0.0,0.0,0.0,0.0,0.0,0.0,0.0,0.0,0.0,0.0,0.0,0.0,0.0,0.0,0.0,0.0,0.0,0.0,0.0,0.0,0.0,0.0,0.0,0.0,0.0,0.0,0.0,0.0,0.0,0.0,0.0,0.0,0.0,0.0,0.0,0.0,0.0,0.0,0.0,0.0,0.0,0.0,0.0,0.0,0.0,0.0,0.0,0.0,0.0,0.0,0.0,0.0,0.0,0.0,0.0,0.0,0.0,0.0,0.0,0.0,0.0,0.0,0.0,0.0,0.0,0.0,0.0,0.0,0.0,0.0,0.0,0.0,0.0,0.0,0.0,0.0,0.0,0.0,0.0,0.0,0.0,0.0,0.0,0.0,0.0,0.0,0.0,0.0,0.0,0.0,0.0,0.0,0.0,0.0,0.0,0.0,0.0,0.0,0.0,0.0,0.0,0.0,0.0,0.0,0.0,0.0,0.0,0.0,0.0,0.0,0.0,0.0,0.0,0.0,0.0,0.0,0.0,0.0,0.0,0.0,0.0,0.0,0.0,0.0,0.0,0.0,0.0,0.0,0.0,0.0,0.0,0.0,0.0,0.0,0.0,0.0,0.0,0.0,0.0,0.0,0.0,0.0,0.0,0.0,0.0,0.0,0.0,0.0,0.0,0.0,0.0,0.0,0.0,0.0,0.0,0.0,0.0,0.0,0.0,0.0,0.0,0.0,0.0,0.0,0.0,0.0,0.0,0.0,0.0,0.0,0.0,0.0,0.0,0.0,0.0,0.0,0.0,0.0,0.0,0.0,0.0,0.0,0.0,0.0,0.0,0.0,0.0,0.0,0.0,0.0,0.0,0.0,0.0,0.0,0.0,0.0,0.0,0.0,0.0,0.0,0.0,0.0,0.0,0.0,0.0,0.0,0.0,0.0,0.0,0.0,0.0,0.0,0.0,0.0,0.0,0.0,0.0,0.0,0.0,0.0,0.0,0.0,0.0,0.0,0.0,0.0,0.0,0.0,0.0,0.0,0.0,0.0,0.0,0.0,0.0,0.0,0.0,0.0,0.0,0.0,0.0,0.0,0.0,0.0,0.0,0.0,0.0,0.0,0.0,0.0,0.0,0.0,0.0,0.0,0.0,0.0,0.0,0.0,0.0,0.0,0.0,0.0,0.0,0.0,0.0,0.0,0.0,0.0,0.0,0.0,0.0,0.0,0.0,0.0,0.0,0.0,0.0,0.0,0.0,0.0,0.0,0.0,0.0,0.0,0.0,0.0,0.0,0.0,0.0,0.0,0.0,0.0,0.0,0.0,0.0,0.0,0.0,0.0,0.0,0.0,0.0,0.0,0.0,0.0,0.0,0.0,0.0,0.0,0.0,0.0,0.0,0.0,0.0,0.0,0.0,0.0,0.0,0.0,0.0,0.0,0.0,0.0,0.0,0.0,0.0,0.0,0.0,0.0,0.0,0.0,0.0,0.0,0.0,0.0,0.0,0.0,0.0,0.0,0.0,0.0,0.0,0.0,0.0,0.0,0.0,0.0,0.0,0.0,0.0,0.0,0.0,0.0,0.0,0.0,0.0,0.0,0.0,0.0,0.0,0.0,0.0,0.0,0.0,0.0,0.0,0.0,0.0,0.0,0.0,0.0,0.0,0.0,0.0,0.0,0.0,0.0,0.0,0.0,0.0,0.0,0.0,0.0,0.0,0.0,0.0,0.0,0.0,0.0,0.0,0.0,0.0,0.0,0.0,0.0,0.0,0.0,0.0,0.0,0.0,0.0,0.0,0.0,0.0,0.0,0.0,0.0,0.0,0.0,0.0,0.0,0.0,0.0,0.0,0.0,0.0,0.0,0.0,0.0,0.0,0.0,0.0,0.0,0.0,0.0,0.0,0.0,0.0,0.0,0.0,0.0,0.0,0.0,0.0,0.0,0.0,0.0,0.0,0.0,0.0,0.0,0.0,0.0,0.0,0.0,0.0,0.0,0.0,0.0,0.0,0.0,0.0,0.0,0.0,0.0,0.0,0.0,0.0,0.0,0.0,0.0,0.0,0.0,0.0,0.0,0.0,0.0,0.0,0.0,0.0,0.0,0.0,0.0,0.0,0.0,0.0,0.0,0.0,0.0,0.0,0.0,0.0,0.0,0.0,0.0,0.0,0.0,0.0,0.0,0.0,0.0,0.0,0.0,0.0,0.0,0.0,0.0,0.0,0.0,0.0,0.0,0.0,0.0,0.0,0.0,0.0,0.0,0.0,0.0,0.0,0.0,0.0,0.0,0.0,0.0,0.0,0.0,0.0,0.0,0.0,0.0,0.0,0.0,0.0,0.0,0.0,0.0,0.0,0.0,0.0,0.0,0.0,0.0,0.0,0.0,0.0,0.0,0.0,0.0,0.0,0.0,0.0,0.0,0.0,0.0,0.0,0.0,0.0,0.0,0.0,0.0,0.0,0.0,0.0,0.0,0.0,0.0,0.0,0.0,0.0,3.4049,3.3904,0.0,0.0,0.0,0.0,0.0,0.0,0.0,0.0,0.0,0.0,0.0,0.0,0.0,0.0,0.0,0.0,0.0,0.0,0.0,0.0,0.0,0.0,0.0,0.0,0.0,0.0,0.0,0.0,0.0,0.0,0.0,0.0,0.0,0.0,0.0,0.0,0.0,2.3367,2.4955,2.653,2.8066,2.7787,2.7489,2.7191,0.0,0.0,0.0,0.0,0.0,0.0,0.0,0.0,0.0,0.0,0.0,0.0,0.0,0.0,0.0,0.0,0.0,0.0,0.0,0.0,0.0,0.0,0.0,0.0,0.0,0.0,0.0,0.0,0.0,0.0,0.0,0.0,0.0,0.0,0.0,0.0,0.0,0.0,0.0,0.0,0.0,0.0,0.0,0.0,0.0,0.0,0.0,0.0,0.0,0.0,0.0,0.0,0.0,0.0,0.0,0.0,0.0,0.0,0.0,0.0,0.0,0.0,0.0,0.0,0.0,0.0,0.0,0.0,0.0,0.0,3.7135,3.639,0.0,0.0,0.0,0.0,0.0,0.0,0.0,0.0,0.0,0.0,0.0,0.0,0.0,0.0,0.0,0.0,0.0,0.0,0.0,0.0,0.0,0.0,0.0,1.814,1.8585,1.9275,1.8819,1.8779,0.0,0.0,0.0,0.0,0.0,0.0,0.0,2.3081,2.3922,2.4622,2.661,2.8938,3.1544,3.2535,3.2387,3.1372,3.1411,0.0,0.0,0.0,0.0,0.0,0.0,0.0,0.0,0.0,0.0,0.0,0.0,0.0,0.0,0.0,0.0,0.0,0.0,0.0,0.0,0.0,0.0,0.0,0.0,0.0,0.0,0.0,0.0,0.0,0.0,0.0,0.0,0.0,0.0,0.0,0.0,0.0,0.0,0.0,0.0,0.0,0.0,0.0,0.0,0.0,0.0,0.0,0.0,0.0,0.0,0.0,0.0,0.0,0.0,0.0,0.0,0.0,0.0,0.0,0.0,0.0,0.0,0.0,4.3266,4.392,4.4718,4.4718,4.3637,4.1742,4.0736,3.9547,3.8364,3.9339,0.0,0.0,0.0,0.0,0.0,0.0,0.0,0.0,0.0,0.0,0.0,0.0,0.0,0.0,0.0,0.0,0.0,0.0,0.0,0.0,0.0,1.8642,1.9619,2.0949,2.0415,2.0592,2.194,0.0,0.0,0.0,0.0,0.0,2.3835,2.4752,2.5799,2.7036,3.0855,3.3874,3.6095,3.7695,3.8688,3.8917,3.4429,3.2894,3.3703,0.0,0.0,0.0,0.0,0.0,0.0,0.0,0.0,0.0,0.0,0.0,0.0,0.0,0.0,0.0,0.0,0.0,0.0,0.0,0.0,0.0,0.0,0.0,0.0,0.0,0.0,0.0,0.0,0.0,0.0,0.0,0.0,0.0,0.0,0.0,0.0,0.0,0.0,0.0,0.0,0.0,3.8766,3.8787,0.0,0.0,0.0,0.0,0.0,0.0,0.0,0.0,0.0,0.0,0.0,0.0,0.0,4.3257,4.4999,4.5606,4.6294,4.7065,4.6543,4.6036,4.5561,4.5561,4.5015,4.415,4.3987,0.0,3.9688,3.8139,0.0,0.0,0.0,0.0,0.0,0.0,0.0,0.0,0.0,0.0,0.0,0.0,0.0,0.0,0.0,0.0,0.0,0.0,0.0,0.0,0.0,2.1856,2.3417,2.6061,2.6439,2.6502,2.6399,2.5396,0.0,0.0,0.0,2.3667,2.4852,2.6471,2.8942,3.2286,3.5314,3.7852,3.9947,4.0717,4.1482,4.2069,3.9287,3.7581,3.6717,3.5172,0.0,0.0,0.0,0.0,0.0,0.0,0.0,0.0,0.0,0.0,0.0,0.0,0.0,0.0,0.0,0.0,0.0,0.0,0.0,0.0,0.0,0.0,0.0,0.0,0.0,0.0,0.0,0.0,0.0,0.0,0.0,0.0,0.0,0.0,0.0,0.0,0.0,0.0,0.0,4.0784,4.1742,4.1367,4.1571,4.1965,0.0,0.0,0.0,0.0,0.0,0.0,0.0,0.0,0.0,4.413,4.515,4.5737,4.5874,4.6913,4.7583,4.7912,4.7995,4.7868,4.7564,4.7564,4.7158,4.6447,4.6447,4.5218,4.3104,4.1318,4.1366,4.2342,0.0,0.0,0.0,0.0,3.8635,3.9049,0.0,0.0,0.0,0.0,0.0,0.0,0.0,0.0,0.0,0.0,0.0,0.0,2.3884,2.5423,2.7657,3.1269,3.1808,3.1695,3.1118,2.9839,2.8706,2.7824,2.658,2.6386,2.7308,2.9631,3.2988,3.7399,3.9316,4.1469,4.3721,4.3722,4.4,4.4505,4.3756,4.1999,3.9432,3.7594,3.6367,3.5539,0.0,0.0,0.0,0.0,0.0,0.0,0.0,0.0,0.0,0.0,0.0,0.0,0.0,0.0,0.0,0.0,0.0,0.0,0.0,0.0,0.0,0.0,0.0,0.0,0.0,0.0,0.0,0.0,0.0,0.0,0.0,0.0,0.0,0.0,0.0,0.0,0.0,4.2723,4.3893,4.3465,4.4207,4.4849,0.0,0.0,0.0,0.0,0.0,0.0,4.6691,4.7048,4.7326,4.7684,4.8376,4.8492,4.797,4.907,4.9713,4.9916,5.027,5.0338,5.0135,4.9932,4.9442,4.8732,4.8732,4.8022,4.666,4.4511,4.3229,4.2474,4.1835,4.1819,4.2038,4.1275,4.1466,4.2068,0.0,0.0,0.0,0.0,0.0,0.0,0.0,0.0,0.0,0.0,0.0,2.2665,2.5556,2.8365,3.1516,3.5264,3.4299,3.4061,3.549,3.2865,3.1242,3.1252,3.0855,3.1229,3.2518,3.5235,3.8162,4.1214,4.2549,4.4708,4.7631,4.7547,4.7573,4.7646,4.6845,4.4686,4.1584,4.0736,3.9542,3.8161,3.6498,0.0,0.0,0.0,0.0,0.0,0.0,0.0,0.0,0.0,0.0,0.0,0.0,0.0,0.0,0.0,0.0,0.0,0.0,0.0,0.0,0.0,0.0,0.0,0.0,0.0,0.0,0.0,0.0,0.0,0.0,0.0,0.0,0.0,0.0,0.0,0.0,0.0,0.0,4.3914,4.5119,0.0,0.0,0.0,0.0,4.7198,4.8736,4.9712,4.9972,5.003,5.0365,5.0943,5.0995,5.2044,5.4143,5.4228,5.46,5.5293,5.4634,5.3957,5.3247,5.2469,5.1725,5.1032,5.1032,5.0592,4.9609,4.5998,4.5322,4.6426,4.5416,4.5889,4.6961,4.5511,4.5039,4.49,0.0,0.0,0.0,0.0,0.0,0.0,0.0,0.0,1.9881,2.3261,2.4273,2.7114,3.3597,3.5296,3.7657,4.1837,4.126,4.0759,4.0966,3.8104,3.5984,3.4969,3.3584,3.4154,3.6908,3.896,4.2084,4.6339,4.7796,4.9526,5.15,5.1484,5.1224,5.0781,5.0505,4.8908,4.6253,4.3491,4.2135,4.1542,3.8638,3.6791,0.0,0.0,0.0,0.0,0.0,0.0,0.0,0.0,0.0,0.0,0.0,0.0,0.0,0.0,0.0,0.0,0.0,0.0,0.0,0.0,0.0,0.0,0.0,0.0,0.0,0.0,0.0,0.0,0.0,0.0,0.0,0.0,0.0,0.0,0.0,0.0,0.0,4.9266,5.0213,0.0,5.1889,5.0291,5.0236,5.2722,5.2363,5.2713,5.4216,5.4428,5.4786,5.5497,5.5513,5.5683,5.6021,5.6021,5.5919,5.5699,5.5428,5.4938,5.4194,5.389,5.3112,5.1911,5.1911,5.1488,5.071,4.939,4.832,4.744,4.6604,4.6301,4.6337,4.6299,4.5968,4.5552,0.0,0.0,0.0,0.0,0.0,0.0,0.0,0.0,2.1253,2.5877,2.7434,3.1199,3.9169,4.1232,4.352,4.7231,4.6377,4.5377,4.473,4.1256,3.8757,3.773,3.723,3.8243,4.1001,4.3558,4.6743,5.0513,5.1522,5.2811,5.4235,5.3993,5.3602,5.3154,5.3142,5.2306,5.0711,4.7876,4.5831,4.4243,4.1288,4.0083,3.9697,0.0,0.0,0.0,0.0,0.0,0.0,0.0,0.0,0.0,0.0,0.0,0.0,0.0,0.0,0.0,0.0,0.0,0.0,0.0,0.0,0.0,0.0,0.0,0.0,0.0,0.0,0.0,0.0,0.0,0.0,0.0,0.0,0.0,0.0,4.9588,5.1883,5.3881,5.4847,5.5791,5.6916,5.5007,5.4708,5.7083,5.619,5.6322,5.808,5.828,5.8524,5.9032,5.905,5.8795,5.8321,5.8051,5.7543,5.6815,5.6544,5.5919,5.4972,5.4702,5.389,5.2706,5.2706,5.2435,5.1979,5.1979,5.11,4.9679,4.868,4.8003,4.7616,4.8105,4.797,4.7549,0.0,0.0,0.0,0.0,0.0,0.0,0.0,2.1296,2.2792,2.7043,3.016,3.4676,4.1739,4.5775,4.8827,5.1047,4.9072,4.7334,4.6484,4.2,3.9387,3.9529,4.1849,4.3696,4.4953,4.9221,5.2141,5.37,5.37,5.4418,5.5808,5.5058,5.4722,5.4721,5.475,5.4749,5.464,5.3797,5.081,4.6458,4.4591,4.4692,4.5452,0.0,0.0,0.0,0.0,0.0,0.0,0.0,0.0,0.0,0.0,0.0,0.0,0.0,0.0,0.0,0.0,0.0,0.0,0.0,0.0,0.0,0.0,0.0,0.0,0.0,0.0,0.0,0.0,0.0,0.0,0.0,0.0,0.0,4.982,5.3365,5.6259,5.7381,5.8643,5.9164,5.8558,5.8866,5.9423,6.0144,6.0198,6.0565,6.1394,6.1434,6.1434,6.1467,6.1434,6.14,6.14,6.0588,5.981,5.9047,5.8321,5.7205,5.5733,5.504,5.4296,5.3585,5.3585,5.3585,5.3585,5.3585,5.3551,5.3382,5.1844,5.1269,5.1235,5.1235,5.1235,5.0998,0.0,0.0,0.0,0.0,0.0,0.0,2.2165,2.2361,2.4694,3.1204,3.4405,3.9004,4.6759,4.9698,5.1593,5.2719,4.9672,4.7512,4.7093,4.2786,4.1029,4.2788,4.4436,4.7169,5.1073,5.2931,5.5111,5.7711,5.7711,5.7877,5.8237,5.802,5.7631,5.7073,5.7679,5.7605,5.7068,5.6812,5.5617,5.3548,4.9172,4.7153,4.6415,0.0,0.0,0.0,0.0,0.0,0.0,0.0,0.0,0.0,0.0,0.0,0.0,0.0,0.0,0.0,0.0,0.0,0.0,0.0,0.0,0.0,0.0,0.0,0.0,0.0,0.0,0.0,0.0,0.0,0.0,0.0,5.2858,5.5026,5.4197,5.7165,6.0101,6.2009,6.3437,6.4426,6.4837,6.3284,6.2823,6.4106,6.3193,6.312,6.4418,6.3976,6.4174,6.5236,6.4241,6.37,6.37,6.2415,6.14,6.0655,5.9877,5.8727,5.7273,5.7088,5.6292,5.509,5.509,5.509,5.509,5.509,5.4769,5.4194,5.3247,5.2503,5.1995,5.1995,5.1641,5.1133,0.0,0.0,0.0,0.0,0.0,0.0,2.3113,2.3644,2.6234,3.293,3.6888,4.1914,4.9302,5.2267,5.3639,5.3349,5.0556,4.808,4.6342,4.372,4.3354,4.578,4.8594,5.1778,5.5359,5.7224,5.8852,6.0251,6.0251,6.0246,6.0187,5.9857,5.9648,5.9501,5.9636,5.9453,5.9024,5.9024,5.8731,5.801,5.4562,5.2367,5.0788,4.7266,4.6202,4.6229,4.3942,4.2792,4.2177,4.0798,0.0,0.0,0.0,0.0,0.0,0.0,0.0,0.0,0.0,0.0,0.0,0.0,0.0,0.0,0.0,0.0,0.0,0.0,0.0,0.0,0.0,0.0,0.0,0.0,5.7203,6.0091,6.1079,6.264,6.4413,6.6376,6.7273,6.7999,6.8736,6.7073,6.6267,6.711,6.6344,6.6068,6.6576,6.6542,6.6711,6.7252,6.644,6.5831,6.5527,6.4377,6.3091,6.1772,6.1298,5.9945,5.7934,5.822,5.7408,5.5733,5.6037,5.6003,5.5699,5.5699,5.5428,5.5006,0.0,0.0,0.0,0.0,5.2334,5.1706,0.0,0.0,0.0,0.0,0.0,0.0,2.4127,2.4937,2.7475,3.321,3.8143,4.351,4.9691,5.3335,5.463,5.2821,5.0968,4.8394,4.4948,4.5077,4.6405,4.8942,5.3631,5.6962,5.8657,6.1582,6.2719,6.1998,6.1998,6.1961,6.1851,6.1153,6.1153,6.1704,6.108,6.0823,6.0823,6.0823,6.0823,6.075,5.993,5.8535,5.6517,5.2752,5.2464,5.3687,5.0554,4.8998,4.8032,4.5714,0.0,0.0,0.0,0.0,0.0,0.0,0.0,0.0,0.0,0.0,0.0,0.0,0.0,0.0,0.0,0.0,0.0,0.0,0.0,0.0,0.0,0.0,0.0,0.0,6.1125,6.4458,6.8844,6.8898,6.9022,7.033,7.0298,7.041,7.0983,7.0055,6.9337,6.9212,6.9147,6.8808,6.8199,6.8774,0.0,0.0,0.0,6.776,6.7197,6.6271,6.4837,6.2888,6.2739,6.1163,5.8441,5.9099,5.8201,5.624,5.69,5.6799,5.6172,5.6105,5.5969,5.5733,5.4905,5.4194,5.3619,5.3551,5.3111,5.2663,0.0,0.0,0.0,0.0,0.0,0.0,2.4919,2.5831,2.8374,3.4118,3.9035,4.3517,4.7369,5.1306,5.2511,4.9679,4.7792,4.6168,4.481,4.7773,5.0965,5.4058,5.8157,6.1215,6.2891,6.4163,6.4738,6.4591,6.4591,6.4237,6.3625,6.3478,6.3099,6.2572,6.3135,6.3356,6.3356,6.3356,6.3356,6.3319,6.2462,6.037,5.7593,5.6139,5.4697,5.3239,5.2081,5.1009,4.9981,4.9061,4.8383,4.7663,4.5993,4.4203,0.0,0.0,0.0,0.0,0.0,0.0,0.0,0.0,0.0,0.0,0.0,0.0,0.0,0.0,0.0,0.0,0.0,0.0,0.0,6.2328,6.6132,6.9535,7.2371,7.3193,7.3377,7.3046,7.2695,7.2509,7.2663,7.1055,7.0008,6.998,6.9451,6.9282,6.9722,6.935,6.9586,7.0635,6.9485,6.9079,6.9519,6.759,6.6373,6.5912,6.4749,0.0,6.1554,6.167,6.0825,5.9268,5.9404,5.937,5.9201,5.8607,5.766,5.6461,5.5108,5.4516,5.4313,5.3721,5.3762,5.4196,0.0,0.0,0.0,0.0,0.0,0.0,2.5156,2.6046,2.8185,3.2608,3.7118,4.0965,4.3774,4.704,4.8042,4.5661,4.5009,4.5553,4.7419,5.1118,5.4987,5.9024,6.2328,6.442,6.5264,6.688,6.732,6.6512,6.6916,6.6696,6.5902,6.5498,6.5081,6.4664,6.5118,6.5301,6.5338,6.5718,6.5902,6.5865,6.5411,6.4053,6.2034,5.9979,5.8437,5.7265,5.6145,5.5119,5.4071,5.2587,5.1519,5.049,4.8737,4.6939,4.5285,0.0,0.0,0.0,0.0,0.0,0.0,0.0,0.0,0.0,0.0,0.0,0.0,0.0,0.0,5.3292,5.6397,0.0,6.2331,6.6363,6.9325,7.2024,7.4529,7.5249,7.5359,7.4955,7.3856,7.3281,7.3671,7.1904,7.0737,7.0737,7.0398,7.0364,7.0737,7.0398,7.0534,7.1289,7.0601,7.0195,7.0217,6.9079,6.7929,6.6791,6.6047,6.4749,6.2956,6.2956,6.2144,6.0689,6.0689,6.025,5.9524,5.9204,5.8613,5.7895,5.7213,5.6201,5.5121,5.4745,5.4843,5.5203,0.0,0.0,0.0,0.0,0.0,0.0,0.0,2.6146,2.7807,3.1114,3.474,3.7815,3.9929,4.2234,4.2975,4.1364,4.2816,4.5662,4.9945,5.4312,5.8767,6.3306,6.5888,6.721,6.721,6.9082,6.9449,6.8178,6.8825,6.8788,6.8141,6.7504,6.721,6.721,6.721,6.721,6.7247,6.7884,6.8251,6.8398,6.8398,6.8017,6.71,6.4163,6.2511,6.163,6.0187,5.8829,5.7483,5.5684,5.4147,5.2694,5.1189,4.9591,4.8022,4.6975,4.5837,0.0,0.0,0.0,0.0,0.0,0.0,0.0,0.0,5.0842,5.2503,5.5071,5.6268,5.8081,6.2103,6.4223,6.6489,6.9999,7.1902,7.3768,7.6002,7.635,7.635,7.635,7.4747,7.3862,7.452,7.2941,7.1786,7.16,7.1578,7.1501,7.1312,7.1289,7.1289,7.1289,7.1289,7.1119,7.0716,7.0361,6.9487,6.8022,6.7327,6.6104,6.4427,6.4071,6.3125,6.1738,6.1569,6.0838,5.9688,5.9581,5.9541,5.9582,5.953,5.8305,5.6571,5.6276,5.6295,5.6508,0.0,0.0,0.0,0.0,0.0,0.0,0.0,0.0,2.8002,3.1952,3.4087,3.5665,3.6707,3.8419,3.8788,3.7139,4.1767,4.6147,4.9388,5.6701,6.2475,6.5925,6.8421,6.9706,6.9706,6.9963,7.0,6.9816,6.9926,6.9926,6.9816,6.9743,6.9706,6.9706,6.9706,6.9706,6.9706,6.9779,7.0257,7.0903,7.0903,7.083,7.0573,6.8788,6.5852,6.2536,6.1667,5.9428,5.6994,5.7446,5.6531,5.5198,5.5112,5.3158,5.0694,4.9723,4.7487,4.5595,4.6735,4.7607,4.8716,5.0772,5.1035,5.189,0.0,5.7223,5.8266,6.1319,6.3132,6.4723,6.6666,6.893,7.107,7.2937,7.46,7.6023,7.7017,7.7179,7.7179,7.7179,7.6168,7.5524,7.5632,7.461,7.3591,7.2707,7.2645,7.2236,7.1356,7.1289,7.1289,7.1289,7.1289,7.1664,7.2507,7.0958,7.0978,7.2453,6.9289,6.7762,6.7692,6.6153,6.4647,6.3207,6.255,6.2241,6.214,6.1432,6.1198,6.1259,6.0543,6.0119,5.9707,5.8378,5.8353,5.8916,0.0,0.0,0.0,0.0,0.0,0.0,0.0,0.0,0.0,2.9465,3.1176,3.2369,3.2706,3.4235,3.5158,3.49,4.1433,4.7068,5.0702,5.8559,6.4727,6.8421,7.0,7.0587,7.011,7.1027,7.1284,7.0807,7.1284,7.1505,7.1505,7.1505,7.1248,7.083,7.1284,7.1505,7.1541,7.1982,7.2679,7.3399,7.3399,7.2812,7.1821,7.022,6.6809,6.2831,6.2022,5.9621,0.0,5.729,5.6629,5.56,5.5208,5.3953,5.2415,5.1626,4.9892,4.821,4.8396,4.9633,5.1234,5.2811,5.4349,5.6486,6.0188,6.1826,6.3297,6.5892,6.7257,6.8404,6.9861,7.1394,7.2758,7.3873,7.5086,7.6263,7.7175,7.7289,7.7142,7.6665,7.6648,7.6429,7.5874,7.4885,7.412,7.3694,7.369,7.3492,7.3064,7.3044,7.3044,7.3044,7.3044,7.3267,7.369,7.2938,7.2792,7.3179,7.1217,7.0116,6.9764,6.8146,6.6264,6.4248,6.3028,6.2545,6.263,6.2823,6.2959,6.2979,6.2679,6.2554,6.2305,6.0248,5.9682,5.9953,0.0,0.0,0.0,0.0,0.0,0.0,0.0,0.0,0.0,0.0,2.8975,2.9953,3.0197,3.1495,3.2698,3.3508,4.037,4.6544,5.1032,5.8474,6.4861,6.9559,7.0756,7.1123,7.077,7.2129,7.2569,7.1967,7.2775,7.3156,7.3156,7.2936,7.2642,7.2298,7.2679,7.2936,7.3193,7.378,7.4515,7.5197,7.4977,7.3949,7.2239,6.9991,6.6421,6.2561,6.1715,5.886,5.5566,5.6121,5.5547,5.463,5.464,5.41,5.3428,5.2937,5.1852,5.0796,5.0903,5.2209,5.4009,5.588,5.8377,6.1247,6.4584,6.6489,6.8144,7.0431,7.1273,7.1898,7.2816,7.351,7.408,7.4649,7.5334,7.6128,7.7165,7.7105,7.6665,7.5873,7.6078,7.6104,7.5591,7.5293,7.4994,7.472,7.4702,7.4591,7.431,7.4291,7.4291,7.4291,7.4291,7.4423,7.4702,7.4423,7.4307,7.4297,7.2743,7.1889,7.1534,6.9511,6.7606,6.5841,6.427,6.3746,6.3983,6.4209,6.4469,6.4674,6.4495,6.442,6.4222,6.242,6.1459,6.1068,0.0,0.0,0.0,0.0,0.0,0.0,0.0,0.0,0.0,0.0,0.0,0.0,0.0,3.1053,3.1863,3.2655,3.8015,4.3676,4.9197,5.571,6.2205,6.8678,7.0463,7.1637,7.2422,7.323,7.3648,7.3634,7.4441,7.483,7.4793,7.4037,7.4074,7.4757,7.4001,7.4111,7.483,7.483,7.5322,7.6019,7.5197,7.3949,7.2069,6.8198,6.467,6.1702,6.0786,5.6802,5.2239,5.396,5.3393,5.226,5.4123,5.4131,5.3524,5.3561,5.2929,5.2699,5.4922,5.6073,5.7595,6.1545,6.3831,6.6119,7.0132,7.1688,7.2973,7.5395,7.5894,7.5875,7.5689,7.5699,7.5753,7.5735,7.577,7.6128,7.7165,7.6628,7.5836,7.5014,7.4258,7.4096,7.4837,7.631,7.6808,7.584,7.5735,7.5334,7.4348,7.4291,7.4291,7.4291,7.4291,7.4757,7.5735,7.4776,7.5281,7.7123,7.365,7.2513,7.3316,7.0053,6.8556,6.8397,6.6805,6.6611,6.7312,6.5739,6.561,6.6339,6.5582,6.5251,6.5251,6.5189,6.4138,6.2719,0.0,0.0,0.0,0.0,0.0,0.0,0.0,0.0,0.0,0.0,0.0,0.0,0.0,0.0,0.0,0.0,3.8168,4.2597,4.6094,5.3922,6.0089,6.3906,6.8201,7.0624,7.0881,7.2202,7.2899,7.2899,7.3707,7.4368,7.4903,7.5175,7.5432,7.5689,7.5395,7.5432,7.5652,7.5124,7.5674,7.6628,7.3692,7.1914,7.0528,6.597,6.1862,5.8366,0.0,5.4872,5.2789,5.2642,5.2535,5.2502,5.2705,5.2968,5.323,5.344,5.4847,5.6565,5.7861,6.0335,6.3246,6.6248,6.8131,7.0206,7.3707,7.4698,7.5285,7.6628,7.575,7.4412,7.3182,7.3338,7.3539,7.3023,7.453,7.6128,7.7165,7.7069,7.6188,7.4331,7.4808,7.4992,7.4184,7.5102,7.5993,7.6751,7.6793,7.6628,7.6297,7.628,7.628,7.628,7.628,7.6465,7.6793,7.6465,7.6611,7.7273,7.5009,7.3842,7.3559,7.0802,6.9536,6.9428,6.7832,6.7307,6.7562,6.7046,6.6994,6.7223,6.6402,6.6109,6.6035,6.5508,6.4921,6.4371,0.0,0.0,0.0,0.0,0.0,0.0,0.0,0.0,0.0,0.0,0.0,0.0,0.0,0.0,0.0,0.0,0.0,4.0325,4.3636,4.9738,5.484,5.8437,6.2365,6.4763,6.539,6.6636,6.7627,6.8255,6.9903,7.1101,7.1931,7.301,7.3854,7.4368,7.4074,7.4294,7.4698,7.3038,7.3112,7.3949,6.9995,6.7931,6.6756,6.2168,5.8561,0.0,5.3376,5.259,5.2469,5.1495,5.1321,5.1572,5.1852,5.2625,5.3617,5.4818,5.6882,5.9269,6.1346,6.4429,6.765,7.0121,7.1904,7.3619,7.5983,7.6518,7.6518,7.6445,7.5154,7.339,7.1277,7.0837,7.0775,7.0653,7.1972,7.3727,7.5874,7.5919,7.536,7.4272,7.4771,7.4955,7.4184,7.4588,7.5564,7.7179,7.7289,7.7289,7.7289,7.7289,7.7289,7.7289,7.7289,7.7289,7.7289,7.7289,7.7179,7.6848,7.5527,7.4478,7.3619,7.1754,7.0908,7.0799,6.9185,6.8494,6.8451,6.7913,6.77,6.7664,6.715,6.6916,6.688,6.6366,6.5999,6.5632,0.0,0.0,0.0,0.0,0.0,0.0,0.0,0.0,0.0,0.0,0.0,0.0,0.0,0.0,0.0,0.0,0.0,0.0,4.1699,4.3636,4.7085,5.2517,5.3775,5.5104,5.6687,5.7528,5.874,6.0415,6.3467,6.5362,6.6145,6.7724,6.9288,7.072,6.9926,7.044,7.1702,6.8713,6.7854,6.8191,6.4389,6.2363,6.1126,5.7052,5.5027,5.3844,5.0488,5.0142,5.122,5.059,4.9951,4.9736,5.1661,5.3217,5.4845,5.7547,5.9176,6.1047,6.5417,6.8502,7.1027,7.3391,7.5102,7.6423,7.7179,7.7252,7.6702,7.516,7.414,7.2717,7.0092,6.8507,6.7936,6.8953,6.8626,6.9675,7.3767,7.3706,7.3642,0.0,0.0,0.0,0.0,0.0,7.5674,7.7252,7.7326,7.7326,7.7362,7.7326,7.7289,7.7289,7.7289,7.7289,7.7289,7.7289,7.6922,7.6166,7.5344,7.4551,7.3707,7.2936,7.2532,7.2422,7.0844,7.0146,7.0036,6.8471,6.7811,6.7774,6.7774,6.7737,6.77,6.7664,6.7187,6.6439,0.0,0.0,0.0,0.0,0.0,0.0,0.0,0.0,0.0,0.0,0.0,0.0,0.0,0.0,0.0,0.0,0.0,0.0,3.7661,4.1597,4.4709,4.6792,5.1193,5.3771,5.4197,5.6132,5.7333,5.7839,5.9735,6.0787,6.1068,6.2095,6.2805,6.316,6.2952,6.3173,6.3578,6.2794,6.2904,6.3395,6.0001,5.8467,5.7751,5.4312,5.2364,5.1339,5.0404,5.0192,5.0262,5.0181,5.0926,5.2083,5.3204,5.5129,5.76,6.0701,6.3525,6.6444,6.9972,7.3142,7.5747,7.7047,7.7671,7.8002,7.8222,7.6387,7.4515,7.4074,7.1135,6.8236,6.6975,6.7247,6.8029,6.9144,7.1323,7.3756,7.6181,7.6338,0.0,7.5851,0.0,7.6225,7.5836,7.6335,7.7142,7.8185,7.7656,7.7582,7.8222,7.7656,7.7289,7.7289,7.7289,7.7289,7.7289,7.7289,7.7215,7.6995,7.6203,7.5359,7.4588,7.3744,7.3083,7.2459,7.1417,7.0977,7.0903,6.9889,6.9119,6.8605,6.8605,6.8238,6.7627,6.7026,6.7063,6.7187,0.0,0.0,0.0,0.0,0.0,0.0,0.0,0.0,0.0,0.0,0.0,0.0,0.0,0.0,0.0,0.0,0.0,0.0,0.0,3.7742,3.9806,4.1005,4.4511,4.658,4.6975,4.8585,4.9779,5.0537,5.2417,5.3318,5.3398,5.5306,5.6198,5.6198,5.6599,5.7206,5.7814,5.6491,5.6571,0.0,0.0,5.3216,5.3481,5.1199,5.012,4.9826,4.9383,4.9817,5.0844,5.2197,5.3749,5.5327,5.6621,5.9065,6.2057,6.5138,6.7895,7.0606,7.3684,7.6418,7.8442,7.8552,7.8589,7.8085,7.603,7.4661,7.3088,7.0684,6.8412,6.6519,6.5251,6.5681,6.6726,6.8197,7.0335,7.2877,7.6015,7.6479,7.6788,0.0,7.8112,0.0,7.7781,7.7712,7.8232,7.9548,7.8552,7.8075,7.8552,7.8148,7.7693,7.7326,7.7289,7.7289,7.7289,7.7289,7.7142,7.6775,7.6313,7.5506,7.4368,7.3891,7.3266,7.2459,7.1637,7.1307,7.1197,7.0036,6.9302,6.8848,6.8495,6.8091,6.7664,6.7187,6.7297,6.759,0.0,0.0,0.0,0.0,0.0,0.0,0.0,0.0,0.0,0.0,0.0,0.0,0.0,0.0,0.0,0.0,0.0,0.0,0.0,0.0,3.4672,3.6322,3.7087,3.7786,3.8545,3.9385,4.0459,4.1764,4.4018,4.5039,4.502,4.7875,4.9197,4.9233,5.0,5.117,5.2424,4.9861,4.9658,5.0828,4.8144,4.7896,4.9034,0.0,4.8148,4.8753,4.8078,4.9331,5.1779,5.5095,5.7275,5.8916,6.0969,6.3908,6.7208,7.0113,7.2211,7.4162,7.6888,7.8844,7.9926,7.9103,7.8662,7.7286,7.2844,7.2503,7.1683,6.663,6.605,6.5989,6.4377,6.4353,6.5226,6.7271,6.8271,7.0439,7.5166,7.5817,7.6847,7.9627,7.9963,8.0,8.011,7.9124,7.9242,8.102,7.9615,7.872,7.8772,7.8662,7.8222,7.7326,7.7289,7.7289,7.7289,7.7289,7.6959,7.6276,7.6276,7.5469,7.4001,7.3891,7.3413,7.2606,7.1821,7.1454,7.1344,6.9949,6.9252,6.9009,6.8288,6.7884,6.77,6.759,6.7627,6.7664,0.0,0.0,0.0,0.0,0.0,0.0,0.0,0.0,0.0,0.0,2.6463,2.7469,0.0,0.0,0.0,0.0,0.0,0.0,0.0,0.0,0.0,3.6288,3.6548,3.6738,3.6843,3.8206,3.8758,3.8449,4.0071,4.0569,4.006,4.0604,4.0861,4.0898,4.0968,4.1581,4.2546,4.2754,4.3742,4.5105,4.5321,4.579,4.6282,4.6088,0.0,0.0,4.8146,4.8931,5.0322,5.6047,5.9294,6.1501,6.4354,6.7634,7.0987,7.4169,7.6268,7.798,7.9824,8.1061,8.1599,8.0791,7.905,7.6683,7.3421,7.0733,0.0,6.5456,6.4252,6.364,6.3393,6.4451,6.6281,6.9292,7.0973,7.3349,7.7463,7.8036,7.874,0.0,8.0791,8.1048,8.1709,8.0778,8.0638,8.1901,8.0261,7.9306,7.9585,7.8956,7.8222,7.7326,7.7289,7.7289,7.7289,7.7289,7.7252,7.7105,7.7105,7.6592,7.5652,7.4992,7.4258,7.345,7.2642,7.2312,7.2275,7.1982,7.1101,6.9889,6.9743,6.8875,6.7627,6.6953,6.715,6.7407,0.0,0.0,0.0,0.0,0.0,0.0,0.0,2.4076,2.4581,2.4586,2.5689,2.6648,2.7154,2.7614,2.8274,0.0,0.0,0.0,0.0,0.0,0.0,0.0,3.4548,3.5023,3.5091,3.6625,3.7272,3.6912,0.0,3.761,3.6874,3.7323,3.7323,3.6874,3.7367,3.8,3.8825,3.9719,4.0737,4.1838,4.3031,4.3859,4.4409,0.0,0.0,0.0,4.7706,4.8969,5.0812,5.4923,5.9152,6.3466,6.794,7.165,7.4903,7.7304,7.8883,8.0094,8.1305,8.2223,8.2443,8.0791,7.8222,7.5081,7.1336,6.8526,6.5977,6.3365,6.3014,6.3206,6.3183,6.45,6.6209,6.8253,6.9157,7.1393,7.6676,7.6968,7.8075,8.1803,8.2627,8.2847,8.2847,8.183,8.1471,8.2157,8.0814,7.993,7.9805,7.8626,7.7729,7.7326,7.7289,7.7289,7.7289,7.7289,7.7105,7.6665,7.7105,7.6665,7.5454,7.5087,7.4478,7.367,7.2863,7.2496,7.2459,7.2041,7.1417,7.066,6.9816,6.9009,6.8238,6.743,6.737,6.748,0.0,0.0,0.0,0.0,0.0,0.0,0.0,2.346,2.3892,2.4557,2.5306,2.6147,2.6974,2.7227,2.7585,0.0,0.0,0.0,0.0,0.0,0.0,0.0,0.0,0.0,3.3573,0.0,0.0,3.5752,3.595,0.0,0.0,0.0,0.0,0.0,3.5584,3.6306,3.7059,3.7963,3.8825,0.0,0.0,4.2091,0.0,0.0,0.0,0.0,0.0,4.8598,5.0827,5.3478,5.7669,6.2752,6.851,7.2943,7.6371,7.8222,7.9433,8.0518,8.2039,8.292,8.2904,8.0844,7.7341,7.3309,6.9245,6.6494,6.4067,6.1392,6.2068,6.3102,6.2983,6.4106,6.5472,6.6741,6.6813,6.8907,7.5103,7.569,7.732,8.228,8.3911,0.0,8.3491,8.2574,8.216,8.2451,8.1204,8.0227,7.9821,7.8222,7.7289,7.7289,7.7289,7.7289,7.7289,7.7289,7.6995,7.635,7.6995,7.6555,7.516,7.4977,7.4478,7.367,7.2863,7.2496,7.2459,7.1821,7.1454,7.116,6.9729,6.9045,6.8788,6.7994,6.77,6.759,0.0,0.0,0.0,0.0,0.0,0.0,0.0,2.3999,2.4551,2.4676,2.5391,2.617,2.6926,2.7017,2.7156,0.0,0.0,0.0,0.0,0.0,0.0,0.0,0.0,0.0,0.0,0.0,0.0,3.4027,3.4896,0.0,0.0,0.0,0.0,0.0,0.0,3.4357,3.5111,3.6112,0.0,0.0,0.0,0.0,0.0,0.0,0.0,0.0,0.0,4.6902,4.8349,5.2737,5.4775,5.6472,6.2346,6.7736,7.2298,7.4647,7.6445,7.8463,8.2243,8.3344,8.3161,8.2223,7.7304,7.1948,6.8986,6.5187,6.1909,6.0423,6.1167,6.2158,6.2273,6.2813,6.4021,6.642,6.6789,6.8702,7.4265,7.6308,7.825,8.0918,8.3214,8.4278,8.3491,8.3047,8.2922,8.3241,8.1167,7.9831,7.9816,7.8222,7.7289,7.7289,7.7289,7.7289,7.7289,7.7289,7.7252,7.7179,7.7252,7.6848,7.5946,7.5234,7.4478,7.367,7.2863,7.2496,7.2496,7.2422,7.1967,7.1197,7.033,6.9522,6.8788,6.7994,6.77,6.759,0.0,0.0,0.0,0.0,0.0,0.0,2.2978,2.3451,2.3895,2.4465,2.4888,2.5197,2.548,2.5515,2.6174,2.7788,0.0,0.0,0.0,0.0,0.0,0.0,0.0,0.0,0.0,0.0,3.3213,3.3807,3.4164,0.0,0.0,0.0,0.0,0.0,0.0,3.395,3.4175,3.5045,0.0,0.0,0.0,0.0,0.0,0.0,0.0,0.0,0.0,0.0,4.7452,4.8793,5.1357,5.4182,5.5658,5.9047,6.389,7.1293,7.527,7.8096,8.1709,8.3728,8.4315,8.2039,7.6353,7.088,6.9254,6.4308,6.0167,6.0549,6.1033,6.1547,6.2111,6.2376,6.2928,6.4175,6.3494,6.457,6.9603,7.0452,7.295,7.9517,8.1122,8.2333,8.3985,8.3573,8.3066,8.2704,8.1342,8.0314,7.9816,7.8222,7.7289,7.7289,7.7289,7.7289,7.7289,7.7289,7.7289,7.7289,7.7289,7.7142,7.6775,7.5491,7.472,7.4368,7.3046,7.2496,7.2496,7.2496,7.2312,7.1894,7.0587,6.9889,6.9486,6.8178,6.77,6.759,0.0,0.0,0.0,0.0,0.0,2.1683,2.248,2.3075,2.3714,2.4361,2.4701,2.4897,2.4872,2.4634,2.5287,2.7322,2.6854,0.0,0.0,0.0,0.0,0.0,0.0,0.0,0.0,0.0,3.2102,3.3046,3.3046,3.2932,0.0,0.0,3.3198,3.2645,0.0,0.0,0.0,0.0,0.0,0.0,0.0,0.0,0.0,0.0,0.0,0.0,0.0,0.0,0.0,0.0,0.0,5.1259,5.1009,5.2842,5.6887,6.6446,7.1762,7.527,7.9029,8.2003,8.3471,8.1195,7.5308,6.9951,6.9434,6.3826,5.908,6.0377,6.0641,6.0863,6.1678,6.1792,6.1916,6.2319,6.1368,6.1975,6.5998,6.674,6.9583,7.6995,7.8382,7.9872,8.2691,8.3023,8.281,8.2223,8.1452,8.0645,7.9853,7.8479,7.7582,7.7326,7.7289,7.7289,7.7289,7.7289,7.7289,7.7289,7.7289,7.7069,7.6555,7.5417,7.4647,7.4133,7.301,7.2496,7.2496,7.2239,7.2165,7.1982,7.0367,6.9743,6.9596,6.8214,6.77,6.7627,0.0,0.0,0.0,0.0,0.0,0.0,2.1785,2.3255,2.4353,2.4574,2.5197,2.5592,2.5693,2.4921,2.4741,2.5572,2.5022,0.0,0.0,0.0,0.0,0.0,0.0,0.0,0.0,0.0,3.0382,3.132,3.132,3.1755,3.2583,3.2619,3.2554,3.244,0.0,0.0,0.0,0.0,0.0,0.0,0.0,0.0,4.0591,0.0,0.0,0.0,0.0,0.0,0.0,0.0,0.0,0.0,0.0,5.0666,5.2713,5.9676,6.4617,6.8839,7.3656,7.7378,7.9853,7.9816,7.4434,6.9151,6.9247,6.3709,5.8751,5.9641,5.9752,5.9963,6.0863,6.0899,6.0966,6.1363,6.1398,6.2204,6.4487,6.7281,7.0128,7.3001,7.5083,7.6998,7.8971,8.1008,8.2186,8.2186,8.1452,8.0645,7.9853,7.9045,7.8185,7.7326,7.7289,7.7289,7.7289,7.7289,7.7289,7.7289,7.7289,7.6481,7.4903,7.4903,7.4023,7.2532,7.2496,7.2496,7.2459,7.1637,7.1307,7.116,6.9545,6.8898,6.8825,6.7994,6.77,6.77,0.0,0.0,0.0,0.0,0.0,0.0,0.0,2.197,2.255,2.3135,2.3136,2.3221,2.3617,2.3443,2.3421,2.3672,2.4177,0.0,0.0,0.0,0.0,0.0,0.0,0.0,0.0,0.0,3.0288,3.1232,3.1232,3.1092,3.0849,3.1998,3.2211,3.1696,3.3123,3.3872,0.0,0.0,0.0,0.0,0.0,3.9436,3.9831,0.0,0.0,0.0,0.0,0.0,0.0,0.0,0.0,0.0,0.0,0.0,0.0,5.4554,6.0201,6.593,6.9752,7.2847,7.4684,7.358,6.9729,6.6012,6.5421,6.1504,5.8226,5.8889,5.9043,5.9266,6.0082,6.0198,6.0481,6.1396,6.1541,6.1854,6.2705,6.5208,6.8733,7.3484,7.872,8.1754,8.1271,8.179,8.2186,8.2186,8.1452,8.0645,7.9853,7.9029,7.8222,7.7326,7.7289,7.7289,7.7289,7.7289,7.7289,7.7289,7.7289,7.6738,7.5689,7.516,7.4331,7.3303,7.2753,7.2496,7.2459,7.1637,7.1307,7.1123,6.9509,6.8885,6.8788,6.7994,6.77,6.7627,0.0,0.0,0.0,0.0,0.0,0.0,0.0,2.1493,2.1806,2.2385,2.2157,2.2059,2.2432,2.2595,2.2703,2.2703,2.3322,0.0,0.0,0.0,0.0,0.0,0.0,0.0,0.0,2.8896,2.9328,3.0249,3.0249,3.0183,3.0019,3.1404,3.1752,3.1331,3.3066,3.391,0.0,0.0,0.0,0.0,3.8189,3.9081,3.9478,0.0,0.0,0.0,0.0,0.0,0.0,0.0,0.0,0.0,0.0,0.0,0.0,0.0,5.5713,6.0603,6.4653,6.8038,7.0064,6.8833,6.6112,6.3539,6.2655,5.9738,5.7354,5.7779,5.7881,5.8216,5.937,5.9116,5.9273,6.086,6.0941,6.1233,6.2444,6.4988,6.8565,7.3566,7.912,8.2039,8.076,8.1323,8.1746,8.1746,8.1012,8.0204,7.9412,7.8883,7.8222,7.7326,7.7289,7.7289,7.7289,7.7289,7.7289,7.7289,7.7289,7.6702,7.5616,7.5124,7.4294,7.323,7.2716,7.2349,0.0,7.116,7.0683,7.0243,6.8972,6.8458,6.8385,6.7884,6.77,6.759,0.0,0.0,0.0,0.0,0.0,0.0,0.0,2.1601,2.1953,2.2122,2.2003,2.1953,2.2065,2.2315,2.2474,2.2487,0.0,0.0,0.0,0.0,0.0,0.0,0.0,0.0,2.7265,2.7405,2.7876,2.8706,2.8748,2.9186,3.0013,3.0959,3.1331,3.1365,3.3136,3.3436,0.0,0.0,0.0,0.0,3.8316,3.8821,0.0,0.0,0.0,0.0,0.0,0.0,0.0,0.0,0.0,0.0,0.0,0.0,0.0,0.0,0.0,0.0,0.0,6.288,6.5599,6.5041,6.3233,6.1422,6.0711,5.8408,0.0,5.6453,5.6565,5.7125,5.8609,5.7838,5.7703,5.9925,5.9881,6.0529,6.3323,6.6395,6.9765,7.3525,7.7199,7.9024,7.8006,7.9765,8.0975,8.0938,8.0167,7.9412,7.8626,7.8552,7.8148,7.7326,7.7289,7.7289,7.7289,7.7289,7.7289,7.7289,7.7289,7.6445,7.4903,7.4903,7.3986,7.2422,7.2496,7.2018,7.116,7.0403,6.9633,6.8811,6.8031,6.77,6.77,6.77,6.77,6.759,0.0,0.0,0.0,0.0,0.0,0.0,0.0,0.0,0.0,0.0,2.1301,2.1304,2.1874,2.1991,2.2118,0.0,0.0,0.0,0.0,0.0,0.0,0.0,0.0,0.0,2.7052,2.7884,2.8425,2.8625,2.9298,2.973,2.9973,3.1494,3.2205,3.2235,3.3369,3.4061,0.0,0.0,0.0,0.0,3.8177,3.8867,0.0,0.0,0.0,0.0,4.1362,4.1505,0.0,0.0,0.0,0.0,0.0,0.0,0.0,0.0,5.09,5.1846,5.4449,0.0,5.839,5.8348,5.7974,5.7602,0.0,5.7293,5.7036,5.6454,5.732,5.8138,5.7878,5.7752,5.8193,5.9736,6.006,6.0779,6.2681,6.8668,7.3636,7.5643,7.9716,8.0919,7.7215,7.9363,8.0755,8.0147,7.9339,7.8809,7.8589,7.7949,7.7509,7.7326,7.7289,7.7289,7.7289,7.7289,7.7289,7.7289,7.7289,7.6445,7.4903,7.4903,7.3692,7.1637,7.2239,7.1688,7.0367,7.0183,6.9633,6.8811,6.8031,6.77,6.77,6.77,6.77,6.7517,0.0,0.0,0.0,0.0,0.0,0.0,0.0,0.0,0.0,0.0,0.0,2.1138,2.1546,2.1753,0.0,0.0,0.0,0.0,0.0,0.0,0.0,0.0,0.0,2.5999,2.6845,2.7534,2.8246,2.9005,2.9577,3.0067,3.0463,3.1892,3.2557,3.26,3.3867,3.508,0.0,0.0,0.0,3.7917,3.8818,0.0,0.0,0.0,0.0,0.0,4.0472,4.0854,0.0,4.2506,4.3924,4.5271,0.0,0.0,0.0,0.0,5.0502,5.1143,5.2604,5.4098,5.5222,5.5094,5.534,5.5592,5.5223,5.58,5.6266,5.5918,5.6831,5.7799,5.8134,5.7743,5.8081,6.0346,6.0699,6.1942,6.5458,7.0102,7.4013,7.6398,7.8899,7.9783,7.8158,7.916,7.9727,7.9302,7.8479,7.7986,7.7986,7.7546,7.7289,7.7289,7.7289,7.7289,7.7289,7.7289,7.7289,7.7289,7.6922,7.6114,7.4903,7.4515,7.3215,7.1344,7.2165,7.1394,6.9596,6.9963,6.9412,6.8311,6.7884,6.77,6.77,6.77,6.77,6.748,0.0,0.0,0.0,0.0,0.0,0.0,0.0,0.0,0.0,0.0,0.0,0.0,0.0,0.0,0.0,0.0,0.0,0.0,0.0,0.0,0.0,0.0,2.4948,2.5841,2.6655,2.703,2.7953,2.9531,2.985,3.0503,3.1548,3.2494,3.3056,3.3252,3.4653,3.6152,0.0,0.0,3.8169,3.8785,3.9665,0.0,0.0,0.0,0.0,0.0,0.0,0.0,0.0,4.1869,4.3453,4.5225,4.612,0.0,0.0,0.0,0.0,0.0,5.2091,5.3444,5.439,5.3822,5.4138,5.4434,5.3814,5.4391,5.5099,5.5221,5.6098,5.7236,5.8495,5.7744,5.7938,6.0978,6.1819,6.4149,6.9978,7.177,7.3576,7.6493,7.7251,7.7891,7.8823,7.873,7.8552,7.8405,7.7729,7.7289,7.7289,7.7289,7.7289,7.7289,7.7289,7.7289,7.7289,7.7179,7.7105,7.7105,7.6313,7.5506,7.4683,7.3891,7.2642,7.116,7.1835,7.0844,6.8788,6.9596,6.9045,6.77,6.77,6.77,6.77,6.77,6.77,6.748,0.0,0.0,0.0,0.0,0.0,0.0,0.0,0.0,0.0,0.0,0.0,0.0,0.0,0.0,0.0,0.0,0.0,0.0,0.0,0.0,0.0,2.4665,2.5671,2.6346,2.6613,2.7582,2.8611,2.9665,3.0499,3.177,3.3507,3.427,3.5046,3.5814,3.6078,3.674,3.7725,0.0,3.8774,3.8855,3.9801,0.0,0.0,0.0,0.0,0.0,0.0,0.0,0.0,4.1341,4.33,4.5322,4.5835,0.0,0.0,0.0,0.0,0.0,5.1962,5.3531,5.4421,5.3379,5.3202,5.3268,5.3135,5.4326,5.5369,5.5079,5.6806,5.8188,5.765,5.7894,5.8606,6.0105,6.3665,6.8396,7.4449,7.5963,7.6457,7.655,7.8844,7.8937,7.5328,7.7184,7.8295,7.7546,7.7399,7.7289,7.7289,7.7289,7.7289,7.7289,7.7289,7.7289,7.7289,7.6628,7.6276,7.6276,7.5469,7.4661,7.3854,7.3046,7.1798,7.0293,7.0403,6.9499,6.7958,6.8752,6.8531,6.77,6.77,6.77,6.77,6.77,6.77,6.748,0.0,0.0,0.0,0.0,0.0,0.0,0.0,0.0,0.0,0.0,0.0,0.0,0.0,0.0,0.0,0.0,0.0,0.0,0.0,0.0,2.4876,2.5468,2.6365,2.6889,2.7093,2.7655,2.8628,3.0062,3.108,3.2473,3.4171,3.4601,3.5484,3.6697,3.6391,3.6934,3.8147,3.8634,3.9106,3.9638,0.0,0.0,0.0,0.0,0.0,0.0,0.0,0.0,0.0,0.0,4.325,4.546,4.5782,0.0,0.0,0.0,0.0,0.0,5.0991,5.2344,5.3551,5.3584,5.4428,5.4986,5.413,5.5172,5.628,5.5939,5.7497,5.9044,5.9438,6.0474,6.2205,6.5026,6.7398,7.0246,7.4111,7.4397,7.4675,7.593,7.6901,7.7038,7.5919,7.7072,7.7729,7.7326,7.7289,7.7289,7.7289,7.7289,7.7105,7.6665,7.6628,7.6445,7.6004,7.5212,7.5249,7.6093,7.4845,7.4074,7.367,7.2422,7.1211,7.011,7.011,6.9206,6.7774,6.8568,6.8421,6.77,6.77,6.77,6.7664,6.7223,6.6769,6.6256,0.0,0.0,0.0,0.0,0.0,0.0,0.0,0.0,0.0,0.0,0.0,0.0,0.0,0.0,0.0,0.0,0.0,0.0,0.0,0.0,2.5255,2.6085,2.7002,2.7615,2.7866,2.7907,2.8976,3.1069,3.1735,3.297,3.4764,3.4678,3.5594,3.7265,3.6416,3.693,3.8468,3.858,3.916,4.0102,0.0,0.0,0.0,0.0,0.0,0.0,0.0,0.0,0.0,0.0,0.0,0.0,0.0,0.0,0.0,4.8084,4.8853,4.9884,5.0116,5.1387,5.2828,5.3524,5.4929,5.6068,5.571,5.6461,5.7384,5.7959,5.9136,6.0424,6.1624,6.3246,6.5616,6.9527,7.0771,7.1983,7.4222,7.3802,7.4027,7.6134,7.5946,7.6175,7.74,7.7666,7.7731,7.7731,7.7731,7.7731,7.7731,7.7546,7.709,7.6354,7.614,7.5684,7.4903,7.4111,7.4331,7.5506,7.4111,7.3413,7.334,7.1762,7.0697,7.0073,6.9706,6.8839,6.7737,6.8348,6.8128,6.7444,6.7627,6.77,6.759,6.6806,6.5999,6.5215,0.0,0.0,0.0,0.0,0.0,0.0,0.0,0.0,0.0,0.0,0.0,0.0,0.0,0.0,0.0,0.0,0.0,0.0,0.0,0.0,2.5802,2.6187,2.7623,2.8572,2.8888,2.895,3.0339,3.3094,3.2473,3.3415,3.5761,3.5036,3.5952,3.8153,3.6543,3.6788,3.8417,3.8364,3.8826,3.9727,4.0569,0.0,0.0,0.0,0.0,0.0,0.0,0.0,0.0,0.0,0.0,0.0,0.0,0.0,4.7813,4.8604,4.889,4.915,4.9884,5.1429,5.2757,5.2558,5.29,5.4178,5.7625,5.8027,5.8528,6.1706,6.265,6.2996,6.32,6.4904,6.7187,6.9842,7.2323,7.4922,7.7794,7.8146,7.8162,7.8373,7.8829,7.8901,7.8302,7.8741,7.9069,7.9069,7.9069,7.9069,7.9069,7.8293,7.7603,7.7053,7.6255,7.5509,7.4918,7.4111,7.3758,7.3868,7.301,7.2606,7.2532,7.0917,7.0146,7.0,6.8508,6.7811,6.77,6.7774,6.732,6.6659,6.7407,6.77,6.759,6.6806,6.5999,6.5288,0.0,0.0,0.0,0.0,0.0,0.0,0.0,0.0,0.0,0.0,0.0,0.0,0.0,0.0,0.0,0.0,0.0,0.0,0.0,2.499,2.5799,2.7031,2.7722,2.8458,2.9276,2.9651,3.0952,3.3229,3.3867,3.4939,3.6303,3.5519,3.5887,3.7265,3.7321,3.7988,3.912,3.9647,4.0112,4.0573,4.1262,4.1245,0.0,0.0,0.0,0.0,0.0,0.0,0.0,0.0,4.2287,4.4455,4.5233,4.6148,4.7065,4.7916,4.8147,4.8333,4.915,5.0914,5.2642,5.3066,5.3805,5.5398,5.9059,6.0784,6.1856,6.2727,6.5086,6.7139,6.758,6.97,7.1815,7.3246,7.5636,7.7854,7.9495,7.9295,7.9159,7.9669,7.9491,7.9178,7.8878,7.9058,7.9198,7.9198,7.8696,7.8383,7.8383,7.7617,7.6824,7.6136,7.5774,7.5097,7.3966,7.3188,7.3003,7.3522,7.2834,7.2239,7.1711,7.0624,6.9816,6.9302,6.8178,6.77,6.77,6.77,6.7517,6.7297,6.759,6.7407,6.6916,6.6623,6.6329,6.6027,0.0,0.0,0.0,0.0,0.0,0.0,0.0,0.0,0.0,0.0,0.0,0.0,0.0,0.0,0.0,0.0,0.0,0.0,2.5005,2.5505,2.6331,2.7599,2.8021,2.8642,2.9551,3.0398,3.1629,3.3251,3.4511,3.5388,3.5865,3.5068,3.5374,3.6637,3.7497,3.8302,3.9094,4.0242,4.0799,4.0974,4.1542,4.1542,0.0,0.0,0.0,0.0,0.0,0.0,0.0,0.0,4.1914,4.4127,4.4801,4.5692,4.6739,4.7784,4.798,4.8008,4.8667,5.0035,5.1602,5.3061,5.4704,5.7162,6.1686,6.3494,6.4637,6.6242,6.8127,6.9842,7.0841,7.2518,7.4062,7.5128,7.7503,7.9387,7.9929,7.9526,7.9387,7.9967,7.9698,7.948,7.948,7.9691,7.9796,7.9796,7.8977,7.8521,7.8521,7.7475,7.6569,7.5807,7.5532,7.4609,7.3044,7.2472,7.2323,7.2596,7.2,7.1705,7.1544,7.0294,6.9412,6.8862,6.8054,6.77,6.77,6.77,6.77,6.7627,6.6856,6.6709,6.6796,6.6194,6.6123,6.6297,0.0,0.0,0.0,0.0,0.0,0.0,0.0,0.0,0.0,0.0,0.0,0.0,0.0,0.0,0.0,0.0,0.0,0.0,2.5995,2.6853,2.7499,2.7796,2.8625,2.9283,2.9694,3.1211,3.2472,3.3422,3.4142,3.441,3.4287,3.3497,3.4355,3.6592,3.6897,3.7405,3.8127,3.9786,4.0501,4.0546,4.1296,4.1584,0.0,0.0,0.0,0.0,0.0,0.0,0.0,0.0,4.1033,4.3396,4.4606,4.5741,4.6887,4.8433,4.8549,4.8273,4.8684,4.8783,4.9404,5.2325,5.5265,5.9176,6.5827,6.594,6.6484,7.3004,7.2015,7.0551,7.2315,7.2585,7.3121,7.4854,7.7444,7.9221,7.9221,7.9221,7.9221,7.9221,7.9765,8.0125,8.0087,8.0686,8.1093,8.1093,8.0285,7.9777,7.9777,7.8207,7.7022,7.6415,7.5528,7.4164,7.2236,7.2199,7.1764,7.0896,7.0354,7.0813,7.2087,6.9898,6.8898,6.8862,6.8068,6.77,6.77,6.77,6.7677,6.7457,6.5033,6.5584,6.7426,6.5512,6.5333,6.5971,0.0,0.0,0.0,0.0,0.0,0.0,0.0,0.0,0.0,0.0,0.0,0.0,0.0,0.0,0.0,0.0,0.0,0.0,2.534,2.6256,2.7116,2.7897,2.8364,2.8936,2.9604,3.126,3.274,3.4042,3.4235,3.4323,3.4235,3.4048,3.4606,3.5804,3.7309,3.8327,3.8972,4.0039,4.0157,3.9705,4.0374,4.0004,3.9084,0.0,0.0,0.0,0.0,0.0,0.0,0.0,0.0,0.0,4.4441,4.5414,4.621,4.7686,4.8154,4.8378,4.9082,5.0076,5.1586,5.4473,5.7372,6.1324,6.8186,6.9189,7.0175,7.5542,7.402,7.2465,7.4797,7.5673,7.6202,7.6583,7.8833,8.0546,8.0546,8.0546,8.0546,8.0546,8.0707,8.0553,7.9931,8.0053,7.9939,7.9331,7.8523,7.8054,7.8054,7.6399,7.5655,7.6109,7.472,7.3571,7.2781,7.2023,7.1597,7.1507,7.0192,7.0042,7.0964,6.9553,6.8799,6.8569,6.7986,6.77,6.7667,6.7444,6.6665,6.5686,6.5922,6.6074,6.6208,6.6226,6.6353,6.6623,0.0,0.0,0.0,0.0,0.0,0.0,0.0,0.0,0.0,0.0,0.0,0.0,0.0,0.0,0.0,0.0,0.0,0.0,0.0,2.6061,2.7193,2.8202,2.8435,2.9105,3.0363,3.1383,3.2519,3.3773,3.3879,3.384,3.3697,3.384,3.4423,3.5481,3.7176,3.8275,3.8898,4.01,4.0127,3.9352,4.0032,3.9554,3.8482,0.0,0.0,0.0,0.0,0.0,0.0,0.0,0.0,0.0,4.4382,4.5499,4.6375,4.8157,4.8564,4.8747,4.9949,5.1101,5.2823,5.6463,5.9765,6.394,7.0791,7.3152,7.479,7.7951,7.616,7.4757,7.7232,7.7573,7.7675,7.8208,7.9862,8.1093,8.1093,8.1093,8.0977,8.0631,8.0592,8.0246,7.9361,7.9285,7.9054,7.8523,7.7445,7.6784,7.6784,7.5168,7.4469,7.4976,7.4046,7.3049,7.2061,7.1616,7.1046,7.0294,6.9265,6.9095,6.9657,6.923,6.8958,6.878,6.8103,6.7813,6.7775,6.7255,6.6464,6.5657,6.6126,6.6217,6.6096,6.6105,6.633,6.6612,0.0,0.0,0.0,0.0,0.0,0.0,0.0,0.0,0.0,0.0,0.0,0.0,0.0,0.0,0.0,0.0,0.0,0.0,0.0,0.0,2.755,2.8559,2.882,2.9734,3.1442,3.1548,3.2038,3.2958,3.3152,3.3181,3.3005,3.3276,3.4207,3.5702,3.6749,3.76,3.8361,3.9893,4.0024,3.9226,3.9896,3.9698,3.8959,3.8833,0.0,0.0,0.0,0.0,0.0,0.0,0.0,0.0,4.4449,4.585,4.7135,4.9227,4.9408,4.934,5.1139,5.2104,5.3739,5.8619,6.2866,6.7453,7.3514,7.7179,7.942,7.9857,7.8189,7.7317,7.9507,7.8639,7.8085,7.9662,8.0592,8.1093,8.1093,8.1016,8.0708,7.9892,7.9746,7.9323,7.8484,7.833,7.8253,7.8176,7.6669,7.5784,7.5784,7.4238,7.343,7.3507,7.3353,7.2398,7.0637,7.1015,7.0132,6.801,6.8033,6.8159,6.8403,6.8854,6.9076,6.9038,6.8236,6.7859,6.7746,6.7058,6.6691,6.6587,6.5889,6.6059,6.6598,6.5536,6.5642,6.6246,0.0,0.0,0.0,0.0,0.0,0.0,0.0,0.0,0.0,0.0,0.0,0.0,0.0,0.0,0.0,0.0,0.0,0.0,0.0,0.0,2.7574,2.863,2.9986,3.0666,3.0505,3.1773,3.2478,3.2516,3.2894,3.3367,3.3936,3.4142,3.5423,3.7505,3.7293,3.7992,3.9235,3.8804,3.8433,3.8203,3.8259,3.8169,3.7999,3.7981,3.7864,0.0,0.0,0.0,0.0,0.0,0.0,0.0,4.441,4.5911,4.7132,4.8135,4.8842,4.9785,5.2143,5.3995,5.6625,6.2389,6.8879,7.4296,7.6161,7.8317,7.9714,7.8977,7.9086,7.958,8.0629,8.0115,7.9792,8.0691,8.0977,8.1093,8.1093,8.0516,8.0015,7.9815,7.9208,7.8446,7.7638,7.6938,7.6245,7.5592,7.4584,7.4046,7.4046,7.3053,7.2783,7.3469,7.2168,7.1174,7.0599,7.0258,6.9371,6.7982,6.8213,6.8349,6.8365,6.7668,6.7349,6.7349,6.716,6.6708,6.6143,6.6333,6.6032,6.5482,6.5733,6.5925,6.6054,6.5837,6.5825,6.5985,0.0,0.0,0.0,0.0,0.0,0.0,0.0,0.0,0.0,0.0,0.0,0.0,0.0,0.0,0.0,0.0,0.0,0.0,0.0,0.0,2.8057,2.9496,3.0829,3.1401,3.1156,3.2024,3.2472,3.2507,3.312,3.3692,3.4207,3.4857,3.6095,3.7713,3.7335,3.7822,3.8824,3.8225,3.788,3.7792,3.7739,3.7694,3.7658,3.7658,3.7658,3.7685,3.8059,0.0,0.0,0.0,0.0,0.0,0.0,0.0,4.7003,4.805,4.8928,5.0139,5.2782,5.536,5.8988,6.6311,7.2061,7.6156,7.7119,7.8163,7.8913,7.8735,7.9373,8.02,8.0976,8.0139,7.9595,8.0361,8.0131,7.9862,7.9862,7.9477,7.9015,7.8669,7.7823,7.6976,7.613,7.5284,7.4623,7.4161,7.336,7.2706,7.2283,7.1475,7.1014,7.1045,7.0161,6.9536,6.9152,6.91,6.8448,6.719,6.7575,6.759,6.7231,6.747,6.7567,6.7528,6.7101,6.669,6.6303,6.6162,6.5875,6.5527,6.5795,6.5904,6.5904,6.5904,6.5904,6.5904,0.0,0.0,0.0,0.0,0.0,0.0,0.0,0.0,0.0,0.0,0.0,0.0,0.0,0.0,0.0,0.0,0.0,0.0,0.0,0.0,0.0,3.0047,3.1101,3.1765,3.2004,3.2179,3.2414,3.2776,3.3682,3.439,3.4919,3.5867,3.6929,3.799,3.796,3.8104,3.8361,3.8397,3.8186,3.7909,3.7909,3.7935,3.7978,0.0,0.0,3.7907,3.8577,3.8827,3.9143,4.0908,0.0,0.0,0.0,0.0,4.6685,4.8216,4.9001,5.0018,5.2983,5.6627,6.1443,6.9209,7.3393,7.5845,7.6807,7.735,7.7842,7.8551,7.9178,7.9785,8.0516,7.9485,7.8754,7.9477,7.8977,7.8484,7.8484,7.8253,7.783,7.7138,7.6169,7.5284,7.4546,7.3738,7.3199,7.3046,7.2245,7.1398,7.0514,6.986,6.9167,6.843,6.8391,6.8136,6.76,6.786,6.7393,6.6279,6.6563,6.625,6.5513,6.6891,6.766,6.793,6.7205,6.6904,6.6827,6.6019,6.5667,6.5667,6.5667,6.5667,6.5705,6.5827,6.5782,6.5667,0.0,0.0,0.0,0.0,0.0,0.0,0.0,0.0,0.0,0.0,0.0,0.0,0.0,0.0,0.0,0.0,0.0,0.0,0.0,0.0,0.0,2.8587,3.0136,3.108,3.1252,3.2053,3.2764,3.3371,3.4541,3.5985,0.0,0.0,3.9038,4.0768,4.0941,4.0419,3.945,4.0053,3.967,3.8657,3.8657,3.904,3.953,0.0,0.0,0.0,3.8904,3.9004,3.9238,4.0419,4.1471,0.0,0.0,0.0,4.5913,4.7618,4.8082,4.8791,5.2059,5.8322,6.4968,6.9218,7.3125,7.5709,7.4912,7.6119,7.7453,7.7795,7.8305,7.8715,7.883,7.8677,7.8523,7.8638,7.86,7.8484,7.8484,7.7246,7.6284,7.6207,7.4776,7.3776,7.3661,7.2899,7.2052,7.1283,7.0475,6.9667,6.8776,6.8622,6.8507,6.8391,6.8391,6.8136,6.76,6.671,6.6242,6.6279,6.5367,6.4474,6.366,6.3891,6.4814,6.6244,6.609,6.6051,6.5974,6.5128,6.4782,6.4782,6.4782,6.4782,6.4859,6.5628,6.5436,6.4782,0.0,0.0,0.0,0.0,0.0,0.0,0.0,0.0,0.0,0.0,0.0,0.0,0.0,0.0,0.0,0.0,0.0,0.0,0.0,0.0,0.0,3.0283,3.115,3.1699,3.1837,3.2322,3.2919,3.367,3.4702,0.0,0.0,3.9393,4.056,0.0,0.0,4.1125,4.0472,4.0781,4.0484,3.9806,3.9941,4.0086,0.0,0.0,0.0,0.0,0.0,0.0,0.0,4.1877,4.27,4.3136,4.3971,0.0,0.0,0.0,4.7167,4.8973,5.3815,5.8675,6.3365,6.7677,7.0201,7.1752,7.2472,7.3281,7.4103,7.4651,7.5253,7.6284,7.8138,7.7323,7.6669,7.7676,7.663,7.5861,7.6322,7.5361,7.4584,7.4584,7.3514,7.2783,7.2783,7.1591,7.0629,7.0244,6.9436,6.859,6.7705,6.7667,6.7475,6.7013,6.6545,6.6166,6.5911,6.493,6.4507,6.4601,6.4123,6.366,6.3314,6.3314,6.3737,6.4436,6.4436,6.4436,6.4397,6.4045,6.3852,6.3852,6.3852,6.3852,6.3968,6.4859,6.4628,6.3929,0.0,0.0,0.0,0.0,0.0,0.0,0.0,0.0,0.0,0.0,0.0,0.0,0.0,0.0,0.0,0.0,0.0,0.0,0.0,0.0,0.0,3.1663,3.1873,3.2117,3.2473,3.2633,3.3168,3.4145,0.0,0.0,3.8511,4.026,4.1457,0.0,4.2482,4.2062,0.0,0.0,0.0,4.0926,0.0,0.0,0.0,0.0,0.0,0.0,0.0,0.0,0.0,0.0,0.0,4.3697,4.3734,4.4301,0.0,0.0,0.0,4.9439,5.4449,5.7371,6.0062,6.4574,6.6598,6.7929,6.9755,7.0556,7.1073,7.1738,7.2402,7.3668,7.6407,7.5515,7.4822,7.613,7.4738,7.3699,7.4315,7.3699,7.3084,7.2853,7.2091,7.1482,7.1245,7.009,6.9283,6.9052,6.8436,6.759,6.6519,6.6481,6.609,6.5282,6.4628,6.4282,6.4282,6.3622,6.3083,6.266,6.2891,6.2891,6.266,6.266,6.266,6.2698,6.3121,6.3314,6.3275,6.3089,6.3012,6.3012,6.3012,6.3012,6.3089,6.3935,6.3743,6.3089,0.0,0.0,0.0,0.0,0.0,0.0,0.0,0.0,0.0,0.0,0.0,0.0,0.0,0.0,2.8702,2.8168,0.0,0.0,0.0,0.0,0.0,3.1179,3.1239,0.0,3.2765,3.2862,3.3602,3.5039,0.0,0.0,3.9257,4.0336,4.1507,4.2828,4.4862,4.4011,4.1323,0.0,0.0,0.0,0.0,0.0,0.0,0.0,0.0,0.0,0.0,0.0,0.0,0.0,0.0,0.0,0.0,4.3767,4.4308,0.0,0.0,0.0,5.1948,5.3792,5.5905,5.9351,6.2979,6.5956,6.6834,6.8442,6.9868,7.0175,7.0647,7.1321,7.2329,7.3091,7.3584,7.3661,7.3584,7.3507,7.3546,7.2822,7.1975,7.1129,7.0321,6.9513,6.866,6.8507,6.8129,6.7289,6.7173,6.6436,6.482,6.4743,6.432,6.3468,6.3391,6.3352,6.3352,6.3314,6.2506,6.0935,6.1787,6.1749,6.0935,6.0935,6.0935,6.1018,6.2621,6.3314,6.3237,6.248,6.2172,6.2172,6.2172,6.2172,6.2249,6.3083,6.2858,6.2172,0.0,0.0,0.0,0.0,0.0,0.0,0.0,0.0,0.0,0.0,0.0,0.0,0.0,2.8574,2.9412,2.8815,2.9945,0.0,0.0,0.0,0.0,3.1803,3.1915,3.2191,3.2655,3.2789,3.3586,3.5161,0.0,3.6298,3.8259,4.0007,4.0991,4.1523,4.4416,4.5072,4.4199,4.6303,0.0,0.0,0.0,0.0,0.0,0.0,0.0,0.0,0.0,0.0,0.0,0.0,0.0,0.0,0.0,0.0,0.0,4.7079,4.7887,4.8934,5.1178,5.2248,5.3445,5.6425,5.8904,6.0968,6.2436,6.4413,6.6251,6.7204,6.7951,6.8744,6.959,7.136,7.286,7.3392,7.2122,7.1245,7.1745,7.0629,6.9667,6.9314,6.9045,6.8737,6.843,6.743,6.6859,6.7096,6.559,6.4628,6.4589,6.4083,6.3622,6.3314,6.2781,6.2243,6.1704,6.1704,6.1396,6.0787,6.1133,6.1095,6.0787,6.0787,6.0787,6.0819,6.1435,6.1704,6.1666,6.1364,6.1287,6.1287,6.1287,6.1287,6.1364,6.221,6.1979,6.1364,0.0,0.0,0.0,0.0,0.0,0.0,0.0,0.0,0.0,0.0,0.0,0.0,0.0,0.0,3.0455,3.0201,3.0844,3.1404,3.1635,3.1784,3.1975,3.2258,3.2301,3.2439,3.2655,3.2756,3.3577,3.5213,3.5213,3.6077,3.773,3.9723,4.0623,4.081,4.3886,4.5145,0.0,0.0,0.0,4.517,0.0,0.0,4.5572,0.0,0.0,0.0,0.0,0.0,0.0,0.0,0.0,0.0,0.0,0.0,0.0,0.0,0.0,4.793,4.9563,5.0223,5.1016,5.3341,5.5362,5.7226,5.8806,6.1127,6.3215,6.4189,6.5247,6.6234,6.6987,6.8744,7.0475,7.1584,7.0353,6.9436,6.9975,6.9084,6.8276,6.8007,6.7744,6.7436,6.716,6.5859,6.5243,6.5782,6.4275,6.3429,6.3743,6.3205,6.2781,6.2474,6.1941,6.1402,6.0825,6.0787,6.0787,6.0787,6.0787,6.0787,6.0787,6.0787,6.0787,6.0787,6.0787,6.0787,6.0787,6.0787,6.0787,6.0787,6.0787,6.0787,6.0864,6.1441,6.1287,6.0864,0.0,0.0,0.0,0.0,0.0,0.0,0.0,0.0,0.0,3.0755,0.0,0.0,0.0,0.0,0.0,3.2279,3.1832,3.161,3.1825,3.1809,3.1982,3.2388,0.0,0.0,3.2781,3.2789,3.3577,3.5213,3.5213,3.6138,3.7926,3.9508,4.0438,4.0898,4.354,4.4262,4.3642,0.0,4.5897,4.4892,0.0,4.7105,4.8401,0.0,0.0,0.0,4.9697,4.9461,0.0,4.7084,0.0,0.0,0.0,0.0,0.0,0.0,0.0,0.0,0.0,0.0,0.0,4.999,5.2537,5.5016,5.6211,5.8719,6.0925,6.1269,6.2642,6.3929,6.4456,6.5243,6.6359,6.8007,6.8276,6.8314,6.8314,6.8314,6.7968,6.7096,6.6288,6.5474,6.4628,6.3775,6.3275,6.3314,6.3237,6.2897,6.2133,6.2095,6.1672,6.0825,6.0787,6.0787,6.0748,6.0787,6.0787,6.0748,6.0787,6.0787,6.0787,6.0787,6.0787,6.0787,6.0787,6.0787,6.0787,6.0787,6.0787,6.0787,6.0787,6.0787,6.0787,6.0787,6.0787,6.0787,0.0,0.0,0.0,0.0,0.0,0.0,3.111,3.1637,3.1937,0.0,0.0,0.0,3.1888,3.2339,3.2789,3.3087,3.251,3.2276,3.2574,3.2141,3.1984,3.2249,3.2301,3.2439,3.2639,3.2756,3.3577,3.5213,3.5357,3.6179,3.7712,3.8986,3.9895,4.0564,4.2067,4.2904,4.3369,4.5856,0.0,4.7296,4.73,4.7896,0.0,0.0,0.0,0.0,0.0,4.9626,4.9928,0.0,4.9827,5.1275,0.0,0.0,0.0,0.0,0.0,0.0,4.6786,0.0,0.0,0.0,0.0,0.0,5.3321,5.5011,5.7089,5.9327,6.0297,6.1326,6.3302,6.3852,6.416,6.4622,6.5782,6.659,6.659,6.6051,6.5314,6.4436,6.416,6.3929,6.366,6.2935,6.2666,6.3275,6.2166,6.1666,6.2095,6.1518,6.1056,6.0825,6.0787,6.0517,5.9858,6.0473,6.0473,5.9858,6.0517,6.0787,6.0787,6.0787,6.0787,6.0787,6.0787,6.0787,6.0787,6.0787,6.0787,6.0787,6.0787,6.0787,6.0787,6.0787,6.0787,6.0787,0.0,0.0,0.0,0.0,0.0,3.1207,3.2187,3.2702,3.3013,0.0,0.0,0.0,3.357,3.3495,3.3585,3.403,3.3552,3.3156,3.3017,3.2676,3.2403,3.231,3.2371,3.2499,3.2721,3.2813,3.3668,3.5354,3.547,3.6339,3.7925,3.9262,4.0129,4.0591,0.0,0.0,0.0,0.0,0.0,0.0,4.7226,0.0,0.0,4.9979,5.0171,0.0,0.0,0.0,5.1753,4.991,5.0601,0.0,0.0,0.0,0.0,0.0,0.0,0.0,0.0,0.0,0.0,0.0,0.0,0.0,5.0591,5.1992,5.3866,5.6025,5.6957,5.8068,6.0278,6.1243,6.1814,6.2204,6.3397,6.4442,6.4782,6.4397,6.3852,6.3352,6.3006,6.2781,6.2781,6.2056,6.1749,6.2204,6.1358,6.1018,6.1518,6.1095,6.0787,6.0787,6.0435,6.0012,5.9511,5.9665,5.9665,5.9511,6.0012,6.0435,6.0787,6.0787,6.0589,6.0242,6.0242,6.005,5.9781,6.0127,6.0473,6.0787,6.0787,6.0787,6.0787,6.0787,6.0787,6.0787,0.0,0.0,3.0116,3.0769,3.1249,3.1964,3.3127,3.3714,3.4061,0.0,3.4398,3.4563,3.4651,3.438,3.4428,3.505,3.4743,3.4207,3.351,3.3301,3.3044,3.2555,3.2475,3.2583,3.289,3.3029,3.3908,3.5616,3.5748,3.6653,3.8343,3.9851,4.0623,4.0768,0.0,0.0,0.0,0.0,0.0,4.7481,4.6516,4.9271,0.0,0.0,5.3356,5.5241,5.3741,5.3746,5.4031,5.089,4.9961,0.0,0.0,0.0,0.0,0.0,4.5629,0.0,0.0,0.0,0.0,0.0,0.0,0.0,4.8356,4.9658,5.1245,5.222,5.3258,5.4546,5.6222,5.7818,5.9125,5.9784,6.0873,6.2,6.3006,6.316,6.3121,6.3045,6.2397,6.1903,6.1826,6.1095,6.0633,6.0512,6.0512,6.0556,6.0666,6.0556,6.0512,6.0512,5.9781,5.9319,5.9204,5.8627,5.866,5.9358,5.9358,5.9819,6.0666,6.0556,6.0089,5.9358,5.9358,5.8973,5.8352,5.9088,5.9896,6.0671,6.0748,6.0787,6.0787,6.0787,6.0787,6.0787,0.0,0.0,3.0929,3.1744,3.2699,3.3622,3.4575,3.5034,3.5329,3.5596,3.5779,3.5865,3.5704,3.573,0.0,3.5874,3.5403,3.5139,3.52,3.4105,3.3433,3.345,3.2943,3.2762,3.2985,3.3772,3.4689,3.5739,3.6505,3.7374,3.8307,3.9327,4.0162,4.0801,4.1642,4.2468,0.0,0.0,0.0,4.6907,4.772,5.0062,5.2991,5.2269,5.2699,5.3626,5.3313,5.3797,5.439,5.3125,5.0697,4.8242,0.0,0.0,0.0,0.0,0.0,0.0,0.0,0.0,0.0,0.0,0.0,0.0,4.8151,4.8604,4.9459,5.0918,5.1078,5.1478,5.32,5.4358,5.4918,5.4427,5.6918,5.968,6.2006,6.2326,6.2056,6.1358,6.1133,6.0787,6.0089,5.9858,5.9473,5.8858,5.8781,5.9088,5.9704,5.9127,5.8781,5.8781,5.8627,5.8204,5.7478,5.8011,5.8396,5.8544,5.8544,5.8973,5.9742,5.9088,5.8704,5.8544,5.8544,5.8434,5.8313,5.8467,5.9011,5.9819,6.0512,6.0787,6.0787,6.0787,6.0787,6.0787,0.0,0.0,3.1962,3.2841,3.3649,3.441,3.5238,3.5656,3.5932,3.6073,3.6265,3.6402,3.6402,0.0,0.0,0.0,0.0,3.7077,3.6174,3.5923,3.5493,3.4665,3.4255,3.4155,3.4452,3.4981,3.5721,3.6637,3.7122,3.7752,3.853,3.9707,4.0474,4.0904,4.2012,4.3407,4.4949,0.0,4.6733,4.9523,4.882,0.0,5.2776,5.2633,5.3377,5.4434,5.4434,5.447,5.4376,5.3117,5.1655,0.0,0.0,4.8389,4.817,0.0,4.5865,4.5332,0.0,0.0,0.0,4.5054,0.0,0.0,0.0,4.6703,4.7264,4.8328,4.8519,4.8965,5.0501,5.1859,5.2584,5.2195,5.4387,5.6653,5.8008,5.9713,6.0627,6.0204,5.9781,5.9396,5.8929,5.8896,5.8742,5.8313,5.8313,5.8467,5.889,5.8506,5.8313,5.8313,5.7896,5.744,5.6983,5.7016,5.7203,5.7665,5.7665,5.8088,5.8896,5.8467,5.805,5.7665,5.7665,5.7396,5.7049,5.7473,5.7901,5.8363,5.9665,6.0435,6.0787,6.0787,6.0787,6.0787,0.0,0.0,0.0,3.3713,3.432,3.4923,3.5576,3.5975,3.6281,3.6472,3.6832,3.7159,0.0,0.0,0.0,0.0,0.0,0.0,0.0,0.0,3.7725,3.6485,3.58,3.5684,3.6129,3.6228,3.6669,3.7492,3.7676,3.8072,3.8718,4.0215,4.0906,4.0979,4.263,4.4662,4.6807,0.0,0.0,5.188,4.9619,5.0659,5.3612,5.3692,5.4667,5.5971,5.5752,5.517,5.4246,5.2709,5.2381,5.2075,4.9133,4.9117,0.0,0.0,0.0,0.0,0.0,0.0,0.0,0.0,0.0,4.5578,0.0,0.0,0.0,4.5772,4.6132,4.6711,4.7625,4.9055,5.0057,4.9948,5.1755,5.3118,5.3006,5.5838,5.8158,5.8709,5.8209,5.778,5.783,5.7676,5.7632,5.778,5.7671,5.7709,5.805,5.7896,5.7819,5.7819,5.7132,5.6747,5.6747,5.6055,5.6132,5.6983,5.6824,5.7209,5.805,5.7896,5.7434,5.6747,5.6747,5.6362,5.5747,5.6478,5.694,5.7401,5.8896,5.9935,6.0556,6.0748,6.0787,6.0787,3.2055,3.2674,0.0,3.3927,3.4802,3.5587,3.5921,3.6148,3.6623,3.7492,3.8509,0.0,0.0,0.0,0.0,0.0,0.0,0.0,4.3652,0.0,0.0,3.9452,3.7084,3.6144,3.7023,3.7188,3.7337,3.7492,3.8212,3.8615,3.8718,4.0215,4.0906,4.0996,4.2824,4.5199,4.7801,4.6966,4.8022,5.0189,4.9936,5.2479,5.6395,5.5856,5.6203,5.6844,5.6015,5.517,5.4388,0.0,5.2155,5.0724,0.0,4.9248,4.8067,4.7216,0.0,0.0,0.0,0.0,0.0,0.0,4.5847,0.0,4.6733,0.0,4.5305,4.4565,0.0,4.4508,4.3949,0.0,0.0,4.4448,4.7182,4.9125,4.8289,5.0613,5.3357,5.5933,5.6076,5.6032,5.6074,5.5381,5.525,5.5939,5.5317,5.5597,5.706,5.6439,5.6016,5.6016,5.5901,5.5862,5.5862,5.5747,5.6132,5.6983,5.6209,5.6285,5.7132,5.6362,5.5939,5.5862,5.5862,5.5785,5.5708,5.5824,5.6742,5.8242,5.9165,5.955,5.9742,6.0512,6.0787,6.0787,3.3603,3.4079,0.0,0.0,3.5497,3.5975,3.6118,3.6665,3.7356,3.7997,3.8934,0.0,0.0,0.0,0.0,0.0,0.0,4.3762,0.0,0.0,0.0,0.0,4.0317,3.9222,3.9903,3.932,3.8737,3.8324,3.9074,3.9425,3.9423,4.0939,4.192,4.2436,4.3429,4.5528,4.8249,4.7618,4.9773,5.352,5.239,5.4357,5.7691,5.4746,5.4448,5.554,5.5147,5.478,5.4295,5.296,5.2314,0.0,0.0,0.0,0.0,0.0,0.0,0.0,0.0,0.0,0.0,0.0,0.0,0.0,4.5158,0.0,4.3803,4.2947,0.0,0.0,0.0,0.0,0.0,0.0,4.4392,4.5683,4.5352,4.6754,4.9192,5.286,5.2905,5.2686,5.2764,5.2905,5.2954,5.2823,5.291,5.3295,5.401,5.4164,5.4472,5.4972,5.5011,5.5247,5.5708,5.5708,5.5862,5.6247,5.5862,5.5901,5.6247,5.5862,5.5708,5.5708,5.5708,5.5708,5.5708,5.5708,5.6126,5.6896,5.7709,5.8934,6.0242,6.0089,6.0358,6.0787,0.0,0.0,0.0,0.0,3.6008,3.6305,3.6573,3.7398,3.838,3.9401,0.0,0.0,4.4505,4.4809,0.0,0.0,4.7299,4.6795,0.0,0.0,4.4346,0.0,0.0,0.0,0.0,4.1812,4.0922,4.0126,4.0266,4.032,4.031,4.1645,4.2718,4.3609,4.4166,4.6238,4.9212,4.8401,5.0943,5.5336,5.3331,5.4164,5.6292,5.3637,5.3113,5.3818,5.4049,5.4126,5.3944,5.2733,5.2685,5.2887,5.1467,5.147,5.1554,0.0,0.0,0.0,4.9058,0.0,0.0,0.0,0.0,0.0,0.0,0.0,0.0,0.0,4.2125,0.0,0.0,0.0,0.0,0.0,0.0,4.2886,4.2963,4.3774,4.5807,4.9704,5.0128,5.0087,4.999,5.0755,5.1001,5.0418,5.0914,5.1438,5.189,5.2736,5.3587,5.4472,5.4703,5.5126,5.5708,5.5708,5.5708,5.5708,5.5708,5.5708,5.5708,5.5708,5.5708,5.5708,5.5708,5.5708,5.5708,5.5708,5.5824,5.6093,5.6478,5.8209,6.0358,5.9742,5.9896,6.0473,3.5678,3.5566,0.0,0.0,0.0,3.6562,3.7582,3.8323,0.0,0.0,0.0,0.0,0.0,0.0,0.0,0.0,0.0,5.1863,5.2302,0.0,4.5755,0.0,0.0,4.4553,0.0,0.0,4.4013,4.3151,4.1874,4.1256,4.1256,4.2054,4.2873,4.3845,4.5036,4.7664,5.1097,4.9583,5.0694,5.3336,5.1458,5.0783,5.1207,5.3614,5.3461,5.2077,5.2928,5.3236,5.3233,5.3323,5.32,5.2845,5.2021,5.1736,5.1174,0.0,0.0,0.0,4.8154,4.9025,5.0279,4.9452,4.8378,4.7234,4.6311,0.0,4.3526,0.0,0.0,0.0,0.0,0.0,0.0,0.0,0.0,0.0,0.0,4.1707,4.341,4.6416,4.8351,4.9158,4.8437,4.9101,4.9585,4.9545,4.9579,5.025,5.1813,5.2736,5.3587,5.4472,5.5247,5.567,5.5708,5.5708,5.5708,5.5708,5.5708,5.5708,5.5708,5.5708,5.5708,5.5708,5.5708,5.5708,5.5708,5.5708,5.6209,5.6868,5.6055,5.728,5.955,5.9511,5.9511,5.9665,0.0,0.0,0.0,0.0,0.0,0.0,0.0,4.0293,0.0,0.0,4.6687,0.0,0.0,5.4762,5.5437,0.0,0.0,5.4257,5.3572,5.0632,0.0,0.0,0.0,4.6751,0.0,0.0,0.0,4.449,4.3144,4.2836,4.3505,4.4004,4.4761,4.5682,4.6278,4.7274,4.8612,4.8949,5.0115,5.1802,5.2266,5.2387,5.2344,5.2694,5.2425,5.1923,5.2236,5.2351,5.2361,5.2401,5.2425,5.2343,5.1982,5.2385,5.2515,5.0374,5.1402,5.3056,5.1812,5.2777,5.3767,5.2406,5.1629,5.0699,4.8717,4.7818,4.6694,0.0,0.0,0.0,0.0,0.0,0.0,0.0,0.0,0.0,0.0,4.0919,4.1982,4.321,4.4895,4.5632,4.4855,4.6095,4.6716,4.6147,4.716,4.8023,4.8543,4.9933,5.1318,5.2736,5.3587,5.4587,5.5708,5.5708,5.5708,5.5708,5.5708,5.5708,5.5708,5.5708,5.5708,5.5708,5.5708,5.5708,5.5708,5.5708,5.5862,5.6093,5.5824,5.6593,5.794,5.8473,5.9396,6.0396,3.7121,0.0,0.0,0.0,0.0,0.0,4.014,0.0,0.0,0.0,5.0131,0.0,5.7828,0.0,5.8321,0.0,5.8121,5.6816,5.4813,5.3145,0.0,5.1765,5.0404,0.0,0.0,0.0,0.0,0.0,0.0,4.4889,4.5545,4.5671,4.6265,4.7174,4.7365,4.7744,4.8308,4.912,5.0,5.0915,5.203,5.2363,5.219,5.1687,5.1841,5.2244,5.1692,5.1467,5.1467,5.1467,5.1732,5.1951,5.1578,5.2153,5.2634,5.0838,5.1958,5.3656,5.312,5.4194,5.5105,5.3777,5.3265,5.2386,4.981,4.9125,4.8311,4.5997,4.6311,0.0,0.0,0.0,0.0,0.0,0.0,0.0,0.0,4.0409,4.0949,4.1182,4.2709,4.3675,4.355,4.4559,4.5102,4.4879,4.5856,4.6604,4.6889,4.8509,5.0048,5.1428,5.2895,5.4164,5.5247,5.5555,5.5708,5.5708,5.5708,5.5708,5.5708,5.5708,5.5708,5.5708,5.5708,5.5708,5.5708,5.5708,5.5708,5.5747,5.6055,5.6709,5.7517,5.8088,5.9358,6.0787,3.7333,3.7091,0.0,0.0,3.9171,4.1375,4.2871,4.5481,4.8877,0.0,5.4232,5.5896,5.9693,6.0743,6.1142,6.1092,6.1037,5.9612,5.6319,5.5901,0.0,0.0,5.2471,5.2167,4.9798,0.0,0.0,0.0,0.0,4.7295,4.7444,4.7031,4.729,4.8221,4.8273,4.8985,5.0111,5.0114,5.0356,5.0707,5.0707,5.0745,5.0818,5.0745,5.1706,5.2888,5.1264,5.0707,5.0707,5.0707,5.1202,5.1697,5.0938,5.1202,5.1543,4.9933,5.0659,5.1963,5.2078,5.3353,5.4464,5.3583,5.3249,5.2485,5.0018,4.9313,4.8679,4.7006,4.742,4.7505,0.0,0.0,0.0,0.0,0.0,0.0,0.0,4.0075,4.0298,4.0307,4.1812,4.3218,4.4199,4.4369,4.4735,4.5508,4.5658,4.6022,4.6778,4.8432,4.9745,5.0668,5.3131,5.4472,5.4549,5.5324,5.5708,5.5708,5.5708,5.5708,5.5708,5.5708,5.5708,5.5708,5.5708,5.5708,5.5708,5.5708,5.5708,5.5785,5.667,5.7555,5.8352,5.839,5.9435,6.0787,3.7729,3.7754,3.7912,3.8322,4.0225,4.232,4.4127,4.7714,5.1759,0.0,5.827,6.0631,6.3974,6.467,6.4587,6.3723,6.3646,0.0,0.0,0.0,0.0,5.4069,5.4227,5.3467,5.1498,5.1,0.0,5.1383,0.0,4.8442,4.981,4.863,4.8232,4.8513,4.906,4.9294,4.9266,4.9902,5.0396,5.0707,5.0707,5.1408,5.2333,5.1154,5.1706,5.2888,5.1264,5.0707,5.0707,5.0707,5.0822,5.0976,5.0784,5.0822,5.0938,5.0476,5.1548,5.2746,5.2131,5.3653,5.5219,5.4442,5.4707,5.5016,5.4422,5.4263,5.3516,5.1076,5.1373,5.0944,4.7135,4.6807,4.6155,0.0,0.0,0.0,0.0,0.0,4.023,4.0376,4.1327,4.1886,4.1578,4.264,4.3474,4.376,4.4915,4.5719,4.5936,4.7509,4.9125,5.063,5.2549,5.4126,5.5401,5.5593,5.5708,5.5708,5.5708,5.5708,5.5708,5.5708,5.5708,5.5708,5.5708,5.5708,5.5708,5.5708,5.5708,5.5785,5.667,5.7901,5.9281,5.9935,6.0435,6.0787,3.8416,3.8591,3.9059,3.974,4.233,4.5033,4.7192,5.0113,5.3756,5.8502,5.9817,0.0,6.4519,6.5624,6.5702,6.4686,6.4237,0.0,6.0629,0.0,0.0,5.6594,5.6395,5.5334,5.3219,5.1966,0.0,5.1777,0.0,4.9191,5.0579,4.9591,4.9143,4.9174,4.9589,4.9814,4.9936,5.0561,5.0938,5.1134,5.0813,5.1226,0.0,5.1038,5.1264,5.1926,5.1043,5.0707,5.0707,5.0707,5.0707,5.0707,5.0707,5.0707,5.0707,5.0707,5.1361,5.2164,5.239,5.3505,5.4614,5.455,5.5186,5.5649,5.5062,5.4935,5.4369,5.2455,5.2279,5.1562,4.8544,4.8159,4.7087,0.0,0.0,0.0,0.0,0.0,0.0,4.0329,4.082,4.0931,4.0486,4.2372,4.3615,4.3633,4.4868,4.5616,4.5594,4.7201,4.8702,5.0091,5.251,5.4203,5.517,5.5901,5.6093,5.5708,5.5708,5.5708,5.5708,5.5708,5.5708,5.5708,5.5708,5.5708,5.5708,5.5708,5.5939,5.6401,5.7632,5.8896,6.0127,6.0633,6.0787,6.0787,3.9493,3.9821,4.0503,4.1251,4.5148,4.8899,5.1211,5.2962,5.5773,6.0676,6.0608,6.1057,6.3548,6.4993,6.5462,6.466,0.0,6.2663,6.1153,6.0993,6.0217,5.8546,5.8451,5.728,5.4703,5.3065,0.0,0.0,0.0,4.979,5.1019,5.0336,4.9972,4.9924,5.0089,5.0486,5.114,5.1467,5.1563,5.1444,5.0918,5.0707,5.0707,5.0707,5.0707,5.0707,5.0707,5.0707,5.0707,5.0707,5.0707,5.0707,5.0707,5.0707,5.0707,5.0707,5.0784,5.1169,5.262,5.3197,5.351,5.4164,5.4934,5.5163,5.3719,5.336,5.3129,5.2241,5.1552,5.0808,4.9795,4.8859,4.7175,0.0,0.0,0.0,0.0,0.0,0.0,0.0,4.0965,0.0,4.0603,4.2676,4.406,4.4093,4.4979,4.5548,4.5586,4.7081,4.8432,4.9553,5.2549,5.4357,5.4818,5.617,5.6516,5.5862,5.5747,5.5708,5.5708,5.5708,5.5708,5.5708,5.5708,5.5708,5.5708,5.5708,5.6285,5.7324,5.8781,5.9935,6.0787,6.0787,6.0787,6.0787,4.1564,4.2164,0.0,4.2958,4.8311,5.3135,5.4849,5.749,6.0159,6.2727,6.4451,6.5449,6.5474,6.5283,6.5013,6.4635,6.3814,0.0,0.0,0.0,0.0,5.8806,5.9074,5.8088,5.5555,5.3844,5.3769,0.0,0.0,5.0864,5.3743,5.2023,5.0736,4.9969,5.1375,5.1452,5.0574,5.1415,5.1011,4.9885,5.0471,5.0707,5.0707,5.0707,5.0707,5.0707,5.0707,5.0707,5.0707,5.0707,5.0707,5.0707,5.0707,5.0707,5.0707,5.0707,5.1164,5.1736,5.2043,5.3159,5.4126,5.3587,5.4087,5.4444,5.3469,5.3243,5.2974,5.2122,5.1843,5.1513,5.0772,4.8771,4.708,4.6541,4.4191,4.2402,0.0,0.0,0.0,0.0,0.0,4.4704,4.175,4.1899,4.2445,4.3084,4.4016,4.4849,4.5494,4.6525,4.8125,5.0399,5.1702,5.3703,5.6516,5.6132,5.6209,5.6747,5.6055,5.5708,5.5708,5.5708,5.5708,5.5708,5.5708,5.5708,5.5708,5.5708,5.6626,5.8088,5.8396,5.9435,6.0787,6.0787,6.0787,6.0787,4.3584,0.0,0.0,4.5975,5.117,5.581,5.7967,6.1186,6.3375,6.3509,6.4173,6.4664,6.4659,6.4737,6.474,6.4609,6.3435,6.2413,6.1799,6.1549,6.0946,5.9901,6.0044,5.9204,5.7088,5.4972,5.4602,5.6082,0.0,5.2012,5.4439,5.3397,5.2332,5.1329,5.1684,5.2118,5.242,5.1442,5.0882,5.0663,5.0697,5.0707,5.0707,5.0707,5.0707,5.0707,5.0707,5.0707,5.0707,5.0707,5.0707,5.0707,5.0707,5.0707,5.0707,5.0707,5.0976,5.1356,5.1774,5.2505,5.3044,5.262,5.3159,5.3587,5.2736,5.2544,5.2428,5.2,5.1582,5.1188,5.0959,4.8767,4.715,4.7649,4.5804,4.412,0.0,0.0,4.3262,0.0,0.0,0.0,4.2548,4.195,4.2257,4.3524,4.4045,4.4682,4.5516,4.6396,4.802,5.063,5.1933,5.378,5.6285,5.6362,5.6362,5.6324,5.5901,5.5708,5.5708,5.5708,5.5708,5.5708,5.5708,5.5708,5.5747,5.6209,5.7126,5.8352,5.8775,5.9704,6.0787,6.0787,6.0787,6.0787,4.6471,4.6749,4.75,4.9988,5.4446,5.8303,6.0351,6.377,6.5627,6.4209,6.3662,6.3544,6.396,6.4221,6.4314,6.4314,6.2787,6.1826,6.1826,6.1172,6.0787,6.0787,6.0787,6.0012,5.8352,5.5818,5.4897,0.0,0.0,5.2751,5.4154,5.4418,5.3864,5.2634,5.2151,5.2455,5.32,5.1409,5.0878,5.1257,5.0846,5.0707,5.0707,5.0707,5.0707,5.0707,5.0707,5.0707,5.0707,5.0707,5.0707,5.0707,5.0707,5.0707,5.0707,5.0707,5.0707,5.0861,5.1697,5.1885,5.1885,5.1885,5.2428,5.2697,5.1851,5.1659,5.1659,5.1659,5.1125,5.0735,5.0882,4.9049,4.767,4.8122,4.7032,4.5744,4.4664,0.0,0.0,0.0,0.0,0.0,4.3316,4.3021,4.3256,4.423,4.414,4.4384,4.5269,4.6084,4.7923,5.0912,5.2083,5.3926,5.6534,5.6664,5.6555,5.6242,5.5901,5.5708,5.5708,5.5708,5.5708,5.5708,5.5708,5.5708,5.5747,5.6439,5.7247,5.8088,5.8704,5.9627,6.0512,6.0512,6.0627,6.0787,5.1408,5.2627,5.3702,5.5235,5.8917,6.1627,6.1495,6.4608,6.6673,6.5801,6.5615,6.5609,6.5679,6.4326,6.3429,6.3429,6.1897,6.0941,6.0941,6.0864,6.0787,6.0787,6.0787,6.0012,5.8352,5.5818,5.4627,0.0,5.3065,5.2561,5.336,5.4838,5.4598,5.2915,5.3748,5.2497,4.9864,5.1111,5.0868,4.9697,5.0399,5.0707,5.0707,5.0707,5.0707,5.0707,5.0707,5.0707,5.0707,5.0707,5.0707,5.0707,5.0707,5.0707,5.0707,5.0707,5.0707,5.0861,5.1697,5.1885,5.1885,5.1885,5.1962,5.1813,5.1015,5.0822,5.0822,5.0822,5.0745,5.0735,5.0882,4.9967,4.8976,4.8373,4.8068,4.7287,4.5697,4.6149,4.6034,4.4385,0.0,0.0,4.4414,4.5644,4.5951,4.441,4.3586,4.3487,4.4371,4.5256,4.767,5.1946,5.1348,5.3643,5.9349,5.7037,5.6549,5.805,5.6434,5.5708,5.5708,5.5708,5.5708,5.5708,5.5708,5.5708,5.5708,5.5785,5.6324,5.7132,5.7209,5.8209,5.9627,5.9627,6.0127,6.0787,5.4707,5.5275,5.6148,5.8294,6.0578,6.2532,6.3975,6.5423,6.625,6.5936,6.6327,6.625,6.5243,6.4045,6.3314,6.3314,6.1781,6.1018,6.1556,6.1095,6.0787,6.0787,6.0787,6.0242,5.905,5.7044,5.6087,5.6188,5.5605,5.5476,5.573,5.5885,5.4925,5.3119,5.242,5.2006,5.1683,5.0774,5.0298,5.0207,5.0553,5.0707,5.0707,5.0707,5.0707,5.0707,5.0707,5.0707,5.0707,5.0707,5.0707,5.0707,5.0707,5.0707,5.0707,5.0707,5.0707,5.0784,5.1087,5.1164,5.1164,5.1164,5.1164,5.1087,5.0784,5.0707,5.0707,5.0707,5.0707,5.0736,5.0776,5.0512,5.0177,4.9791,4.974,4.9149,4.7335,4.7394,0.0,4.5282,0.0,4.6251,4.518,4.5306,4.5321,4.5099,4.4277,4.3918,4.429,4.5093,4.7079,5.0413,5.0653,5.2613,5.6575,5.5997,5.6055,5.6742,5.6011,5.5708,5.5708,5.5708,5.5708,5.5708,5.5708,5.5708,5.5708,5.5708,5.6209,5.706,5.7594,5.8473,5.955,6.0089,6.0517,6.0787,5.7862,5.8298,5.9185,6.1554,6.2593,6.3777,6.5622,6.5904,6.5904,6.5904,6.6167,6.5897,6.4743,6.4045,6.3583,6.3314,6.2204,6.171,6.2095,6.1518,6.1056,6.0825,6.0787,6.0396,5.9511,5.8121,5.7053,5.6409,5.6792,5.6565,5.5796,5.5736,5.4704,5.285,5.2141,5.2096,5.2515,5.0855,5.0356,5.0707,5.0707,5.0707,5.0707,5.0707,5.0707,5.0707,5.0707,5.0707,5.0707,5.0707,5.0707,5.0707,5.0707,5.0707,5.0707,5.0707,5.0707,5.0707,5.0707,5.0707,5.0707,5.0707,5.0707,5.0707,5.0707,5.0707,5.0707,5.0707,5.0707,5.0707,5.0707,5.0785,5.0718,5.0385,5.0404,4.9826,4.7989,4.7735,4.721,4.5783,4.6064,4.6192,4.5676,4.5525,4.5525,4.5599,4.529,4.4935,4.4701,4.5213,4.6984,5.0138,5.0524,5.229,5.5644,5.5674,5.5824,5.6093,5.5824,5.5708,5.5708,5.5708,5.5708,5.5708,5.5708,5.5708,5.5708,5.5708,5.6209,5.706,5.7665,5.8588,5.9588,6.0204,6.0589,6.0787,6.1326,6.2599,6.3842,6.5557,6.582,6.5859,6.5904,6.5904,6.5904,6.5904,6.5166,6.4628,6.4589,6.4589,6.4243,6.3391,6.3275,6.2935,6.2133,6.2095,6.171,6.0825,6.0787,6.0396,5.9511,5.8698,5.7049,5.4516,5.5516,5.4623,5.2015,5.3859,5.373,5.2015,5.3821,5.3185,5.0789,5.1548,5.1433,5.0707,5.0707,5.0707,5.0707,5.0707,5.0707,5.0707,5.0707,5.0707,5.0707,5.0707,5.0707,5.0707,5.0707,5.0707,5.0707,5.0707,5.0707,5.0707,5.0707,5.0707,5.0707,5.0707,5.0707,5.0707,5.0707,5.0707,5.0707,5.0707,5.0707,5.0707,5.0707,5.0712,5.0404,4.9553,4.9437,4.8822,4.7158,4.6928,4.6617,4.5788,4.721,4.7587,4.5854,4.7253,4.7516,4.5727,4.6394,4.6504,4.5629,4.559,4.761,5.2049,5.1202,5.3195,5.8411,5.6623,5.6132,5.6983,5.6093,5.5708,5.5708,5.5708,5.5708,5.5708,5.5708,5.5708,5.5708,5.5708,5.6209,5.6983,5.7022,5.8017,5.9511,5.9511,6.005,6.0787,6.2797,6.4064,6.5268,6.5827,6.5904,6.5904,6.5904,6.5904,6.5904,6.5904,6.5128,6.4352,6.3775,6.3205,6.2787,6.2518,6.1935,6.1743,6.2095,6.1556,6.1095,6.0825,6.0787,6.0671,6.0396,5.9011,5.7627,5.6209,5.6632,5.5771,5.3816,5.5041,5.4267,5.1967,5.3162,5.2887,5.1543,5.1774,5.1736,5.1467,5.0938,5.1015,5.1467,5.0899,5.0707,5.0707,5.0707,5.0707,5.0707,5.0707,5.0707,5.0707,5.0707,5.0707,5.0707,5.0707,5.0707,5.0707,5.0707,5.0707,5.0707,5.0707,5.0707,5.0707,5.0707,5.0707,5.0707,5.0707,5.0707,5.0707,5.0707,5.0707,5.0592,5.0322,4.9784,4.9009,4.7889,4.7235,4.6595,4.5749,4.6111,4.6239,4.568,4.6685,4.7874,4.913,4.9482,4.8446,4.5757,4.6667,4.8209,5.0224,5.1097,5.2901,5.5769,5.5717,5.5824,5.6093,5.5824,5.5708,5.5708,5.5708,5.5708,5.5708,5.5708,5.5708,5.5747,5.6324,5.6747,5.7099,5.8248,5.9011,5.9588,6.0165,6.0556,6.0787,6.4314,6.5166,6.5904,6.5904,6.5904,6.5904,6.5904,6.5628,6.5397,6.5397,6.4397,6.3435,6.2897,6.2095,6.1749,6.2056,6.1864,6.182,6.2095,6.1595,6.1133,6.0825,6.0787,6.0787,6.0787,5.9781,5.8819,5.794,5.7047,5.5768,5.4146,5.4687,5.4227,5.289,5.3433,5.3395,5.289,5.289,5.2505,5.1846,5.1356,5.1279,5.1395,5.0899,5.0707,5.0707,5.0707,5.0707,5.0707,5.0707,5.0707,5.0707,5.0707,5.0707,5.0707,5.0707,5.0707,5.0707,5.0707,5.0707,5.0707,5.0707,5.0938,5.1164,5.1164,5.0938,5.0707,5.0707,5.0707,5.0707,5.0707,5.0707,5.0592,5.0245,4.9471,4.8625,4.7774,4.6932,4.6214,4.5714,4.6509,4.6714,4.5727,4.7585,4.9113,4.98,5.0728,5.0199,4.7643,4.8887,4.9855,5.0317,5.2005,5.3703,5.5439,5.6242,5.6665,5.6665,5.6324,5.6209,5.617,5.5862,5.5708,5.5708,5.5708,5.5708,5.5785,5.6632,5.717,5.7632,5.8973,5.9704,6.005,6.0589,6.0787,6.0787,6.5667,6.5865,6.5904,6.5904,6.5904,6.5904,6.5904,6.5205,6.4666,6.4628,6.3211,6.2172,6.2095,6.1325,6.1133,6.1941,6.2704,6.282,6.2056,6.2018,6.1633,6.0825,6.0787,6.0787,6.0787,6.0748,6.0242,5.9319,5.6934,5.4972,5.3351,5.3351,5.3818,5.4587,5.4587,5.4549,5.4511,5.4511,5.3549,5.1962,5.1923,5.1467,5.0784,5.0707,5.0707,5.0707,5.0707,5.0707,5.0707,5.0707,5.0707,5.0707,5.0707,5.0707,5.0707,5.0707,5.0707,5.0707,5.0707,5.0745,5.0784,5.0784,5.1356,5.1885,5.1851,5.1241,5.0707,5.0707,5.0707,5.0707,5.0707,5.0707,5.0399,4.9548,4.8663,4.7812,4.7005,4.6201,4.5702,4.5784,4.8036,4.8642,4.6194,4.9583,5.1006,4.8825,5.0726,5.177,5.1164,5.2097,5.2449,5.2087,5.3703,5.5401,5.7055,5.7896,5.8313,5.8275,5.744,5.7016,5.7055,5.6209,5.5785,5.5785,5.5747,5.5708,5.5785,5.6632,5.7517,5.8396,5.9204,6.0012,6.0787,6.0787,6.0787,6.0787,6.5013,6.5436,6.5904,6.5904,6.5904,6.5904,6.5904,6.5705,6.5359,6.4705,6.3666,6.2781,6.2172,6.1325,6.0864,6.1095,6.1281,6.132,6.1133,6.1095,6.1018,6.0825,6.0787,6.0787,6.0787,6.0165,5.9088,5.7594,5.6978,5.6132,5.5126,5.5126,5.5203,5.5439,5.5439,5.5049,5.4511,5.4511,5.3895,5.2813,5.2159,5.1774,5.1543,5.0938,5.0707,5.0707,5.0707,5.0707,5.0707,5.0707,5.0707,5.0707,5.0707,5.0707,5.0707,5.0707,5.0707,5.0707,5.0707,5.1164,5.162,5.162,5.1774,5.1736,5.1125,5.0822,5.0707,5.0707,5.0707,5.0707,5.0707,5.0707,5.0399,4.9548,4.8663,4.7812,4.7005,4.6735,4.659,4.6613,4.8274,4.9208,4.8589,4.943,5.1177,5.3939,5.3444,5.3827,5.5556,5.6535,5.6033,5.3944,5.4895,5.6242,5.7973,5.8198,5.8313,5.8275,5.744,5.7363,5.7973,5.7093,5.667,5.667,5.5978,5.5708,5.5785,5.6632,5.7517,5.8396,5.9204,6.0012,6.0787,6.0787,6.0787,6.0787,6.5282,6.559,6.5904,6.5904,6.5904,6.5904,6.5904,6.5551,6.4974,6.4122,6.3281,6.2435,6.1595,6.1095,6.0787,6.0787,6.0787,6.0787,6.0787,6.0787,6.0787,6.0787,6.0787,6.0787,6.0787,6.0319,5.9281,5.7588,5.7209,5.6555,5.5708,5.5708,5.5708,5.5708,5.5708,5.5478,5.5054,5.5054,5.4318,5.3159,5.2697,5.2043,5.1318,5.0861,5.0707,5.0707,5.0707,5.0707,5.0707,5.0707,5.0707,5.0707,5.0707,5.0938,5.1241,5.1241,5.1241,5.1241,5.1241,5.1851,5.2582,5.3005,5.2774,5.239,5.1933,5.1856,5.1741,5.1318,5.1587,5.1702,5.1318,5.1241,5.0702,4.9086,4.8777,4.8179,4.6556,4.7011,4.752,4.7471,4.9274,5.0543,5.0543,5.1587,5.2964,5.4584,5.4555,5.5053,5.6434,5.7322,5.6951,5.5098,5.6588,5.7896,5.8858,5.9242,5.9435,5.9435,5.855,5.8396,5.8813,5.7973,5.7588,5.7555,5.667,5.6285,5.6362,5.7247,5.7857,5.8429,5.9627,6.0396,6.0787,6.0787,6.0787,6.0787,6.5667,6.5705,6.5705,6.5705,6.5705,6.5743,6.5859,6.5166,6.432,6.3583,6.2781,6.1941,6.1095,6.0864,6.0787,6.0787,6.0787,6.0787,6.0787,6.0787,6.0787,6.0787,6.0787,6.0787,6.0787,6.0671,5.9858,5.8313,5.744,5.6555,5.5708,5.5708,5.5708,5.5708,5.5708,5.5708,5.5708,5.5708,5.4741,5.3197,5.3197,5.2202,5.0707,5.0707,5.0707,5.0707,5.0707,5.0707,5.0707,5.0707,5.0707,5.0707,5.0707,5.1164,5.1736,5.1846,5.2,5.212,5.212,5.2736,5.3587,5.4318,5.3933,5.3351,5.3236,5.3197,5.3005,5.2236,5.2697,5.2967,5.2236,5.2,5.1289,4.9421,4.9191,4.8626,4.6673,4.758,4.845,4.848,5.0851,5.2544,5.2659,5.4511,5.528,5.4236,5.5126,5.5862,5.6247,5.6978,5.7055,5.6285,5.8357,5.955,5.9704,6.0281,6.0671,6.0787,5.9935,5.9588,5.9665,5.8858,5.8467,5.8429,5.7555,5.7132,5.7055,5.7934,5.8313,5.8434,6.0012,6.0671,6.0787,6.0787,6.0787,6.0787,6.4666,6.4782,6.4782,6.4782,6.4782,6.5051,6.5788,6.5166,6.4551,6.4436,6.3666,6.282,6.1979,6.1248,6.0787,6.0787,6.0787,6.0787,6.0787,6.0787,6.0787,6.0787,6.0787,6.0787,6.0787,6.0089,5.9242,5.8313,5.744,5.6555,5.5708,5.5708,5.5708,5.5708,5.5708,5.5708,5.5708,5.5708,5.4741,5.3197,5.3197,5.2202,5.0707,5.0707,5.0707,5.0707,5.0707,5.0707,5.0707,5.0707,5.0707,5.0707,5.0707,5.0784,5.1015,5.1697,5.2428,5.3005,5.3005,5.3626,5.4318,5.4472,5.4395,5.4126,5.3351,5.3197,5.3159,5.3044,5.3121,5.3159,5.3005,5.239,5.2285,5.3499,5.0658,4.8737,4.9928,4.9581,4.949,5.0207,5.3169,5.5401,5.6132,5.5901,5.6472,5.8396,5.678,5.6626,5.8819,5.905,5.905,5.8896,5.9281,5.9858,6.0589,6.0012,6.0089,6.0787,5.9935,5.9896,6.0556,5.9704,5.9319,5.9281,5.8434,5.7665,5.7055,5.7934,5.8313,5.839,5.9319,6.0165,6.0787,6.0787,6.0787,6.0787,6.3814,6.3891,6.3891,6.3891,6.3891,6.4199,6.5051,6.4859,6.4436,6.3968,6.3545,6.2814,6.1556,6.1056,6.0787,6.0787,6.0787,6.0787,6.0787,6.0787,6.0787,6.0787,6.0787,6.0787,6.0787,5.9935,5.9127,5.8313,5.744,5.6555,5.5708,5.5708,5.5708,5.5708,5.5708,5.5708,5.567,5.5247,5.4626,5.3818,5.289,5.2043,5.1318,5.0861,5.0707,5.0707,5.0707,5.0707,5.0707,5.0707,5.0707,5.0784,5.1202,5.1664,5.2202,5.3049,5.3587,5.3972,5.4434,5.4857,5.517,5.517,5.517,5.4934,5.4087,5.4241,5.4434,5.3972,5.4241,5.4395,5.3972,5.3197,5.2916,5.3848,5.1094,4.9483,5.1355,5.1163,5.1342,5.2597,5.5318,5.7434,5.828,5.7973,5.8242,5.9396,5.8011,5.7819,5.9396,5.9511,5.9704,6.0204,6.0204,6.0396,6.0787,6.0396,6.0396,6.0787,6.0396,6.0396,6.0787,6.0396,6.0204,6.0165,5.9319,5.8704,5.8396,5.8781,5.8934,5.905,5.9858,6.0435,6.0787,6.0787,6.0787,6.0787,6.3237,6.316,6.3083,6.3275,6.316,6.3397,6.4436,6.4282,6.3935,6.3622,6.3275,6.2512,6.1248,6.0941,6.0787,6.0787,6.0787,6.0787,6.0787,6.0787,6.0787,6.0787,6.0787,6.0787,6.0787,5.9742,5.8934,5.8313,5.7209,5.6362,5.5708,5.5708,5.5708,5.5708,5.5708,5.5708,5.567,5.5049,5.4664,5.4357,5.2813,5.2077,5.1813,5.1015,5.0707,5.0707,5.0707,5.0707,5.0707,5.0707,5.0822,5.1087,5.1697,5.2505,5.3351,5.4241,5.4626,5.4895,5.5516,5.5708,5.5708,5.5708,5.5708,5.5555,5.4934,5.5247,5.5516,5.4895,5.5439,5.5824,5.5208,5.4357,5.4034,5.4766,5.2184,5.0816,5.3045,5.2949,5.3249,5.4906,5.7165,5.8896,5.9704,5.9819,5.9819,5.9819,5.9242,5.9165,5.9781,5.9819,6.0127,6.0787,6.0787,6.0787,6.0787,6.0787,6.0787,6.0787,6.0787,6.0787,6.0787,6.0787,6.0787,6.0748,6.0089,5.9704,5.9511,5.9704,5.9665,5.9588,6.0473,6.0787,6.0787,6.0787,6.0833,6.085,6.3006,6.2704,6.2403,6.316,6.2666,6.2749,6.4359,6.3288,6.2826,6.432,6.3134,6.2133,6.2018,6.1287,6.0787,6.0787,6.0787,6.0787,6.0787,6.0787,6.0787,6.0787,6.0787,6.0787,6.0787,5.9204,5.8352,5.8313,5.6626,5.5747,5.5708,5.5708,5.5708,5.5708,5.5708,5.5708,5.5708,5.5631,5.517,5.4434,5.3472,5.262,5.1813,5.1015,5.0707,5.0707,5.0707,5.0707,5.0707,5.0707,5.1202,5.1813,5.1885,5.2505,5.3351,5.4241,5.5011,5.5631,5.567,5.5708,5.5708,5.5708,5.5708,5.567,5.5631,5.567,5.567,5.5631,5.6285,5.6907,5.683,5.6093,5.6352,5.8901,5.5064,5.2935,5.6331,5.5373,5.4944,5.6637,5.8357,5.9742,6.0633,6.0704,6.0704,6.0704,6.0666,6.0633,6.071,6.0704,6.0748,6.0787,6.0787,6.0787,6.0787,6.0787,6.0787,6.0787,6.0787,6.0787,6.0787,6.0787,6.0787,6.0787,6.0748,6.0242,5.955,6.0358,6.0242,5.9588,6.0473,6.0787,6.0787,6.0787,6.0882,6.0975,6.1627,6.1512,6.1402,6.1704,6.1512,6.171,6.2864,6.2518,6.2326,6.298,6.2518,6.1903,6.1364,6.1018,6.0787,6.0787,6.0787,6.0787,6.0787,6.0787,6.0787,6.0787,6.0787,6.0787,6.0787,6.0165,5.9358,5.8313,5.7627,5.6742,5.5708,5.5708,5.5708,5.5708,5.5708,5.5708,5.567,5.517,5.5049,5.5088,5.3159,5.2851,5.3356,5.1972,5.1428,5.1428,5.1428,5.1428,5.1428,5.1428,5.2005,5.2813,5.3351,5.3741,5.4164,5.5011,5.5478,5.5708,5.5708,5.5708,5.5708,5.5708,5.5708,5.5824,5.6362,5.6516,5.667,5.7203,5.7588,5.7819,5.7819,5.7093,5.7233,5.9431,5.6247,5.4733,5.8321,5.7207,5.667,5.8363,5.9588,6.0441,6.0781,6.0787,6.0787,6.0787,6.0787,6.0787,6.0787,6.0787,6.0787,6.0787,6.0787,6.0787,6.0787,6.0787,6.0787,6.0787,6.0787,6.0787,6.0787,6.0787,6.0787,6.0787,6.0787,6.0594,6.0319,6.0666,6.0589,6.0319,6.0671,6.0787,6.081,6.0874,6.0959,6.1023,6.1133,6.0979,6.0902,6.1172,6.0979,6.1095,6.1979,6.1864,6.1787,6.2062,6.1864,6.1441,6.0864,6.0787,6.0787,6.0787,6.0787,6.0787,6.0787,6.0787,6.0787,6.0787,6.0787,6.0787,6.0787,6.0512,5.9819,5.8665,5.8165,5.728,5.6093,5.5824,5.5708,5.5708,5.5708,5.5708,5.567,5.5126,5.5208,5.5516,5.3505,5.3433,5.4357,5.2851,5.2313,5.2313,5.2313,5.2313,5.2313,5.2313,5.289,5.3703,5.4318,5.4664,5.4972,5.5555,5.5708,5.5708,5.5708,5.5901,5.6055,5.5785,5.5708,5.5939,5.6786,5.6983,5.7247,5.8127,5.8511,5.8665,5.8665,5.8204,5.8198,5.9505,5.7456,5.6624,5.9317,5.8608,5.8325,5.9742,6.0441,6.0787,6.0787,6.0787,6.0787,6.0787,6.0787,6.0787,6.0787,6.0787,6.0787,6.0787,6.0787,6.0787,6.0787,6.0787,6.0787,6.0787,6.0787,6.0787,6.0787,6.0787,6.0787,6.0787,6.0787,6.0787,6.0787,6.0787,6.0787,6.0793,6.085,6.085,6.0882,6.1023,6.1104,6.1175,6.1903,6.1402,6.1056,6.1941,6.1364,6.1095,6.1941,6.1364,6.1095,6.1979,6.1325,6.0787,6.0787,6.0787,6.0787,6.0787,6.0787,6.0787,6.0787,6.0787,6.0787,6.0787,6.0787,6.0787,6.0787,5.9935,5.9511,5.9511,5.7824,5.7022,5.6983,5.6132,5.5708,5.5708,5.5708,5.5708,5.5708,5.5708,5.5708,5.5631,5.4818,5.4511,5.4395,5.3549,5.3197,5.3197,5.3197,5.3197,5.3197,5.3197,5.378,5.4511,5.4511,5.5054,5.5708,5.5708,5.5708,5.5708,5.5708,5.6362,5.6786,5.5939,5.5708,5.5939,5.6824,5.7022,5.7286,5.8127,5.8934,5.9511,5.9511,5.9511,5.9511,5.9511,5.8858,5.8583,5.9396,5.9511,5.9819,6.071,6.0787,6.0787,6.0787,6.0787,6.0787,6.0787,6.0787,6.0787,6.0787,6.0787,6.0787,6.0787,6.0787,6.0787,6.0787,6.0787,6.0787,6.0787,6.0787,6.0787,6.0787,6.0787,6.0787,6.0787,6.0787,6.0787,6.0787,6.0787,6.0787,6.0821,6.0949,6.1006,6.1031,6.1227,6.1378,6.1504,6.1133,6.0979,6.0864,6.1133,6.0979,6.0902,6.1133,6.0979,6.0902,6.1133,6.0979,6.0787,6.0787,6.0787,6.0787,6.0787,6.0787,6.0787,6.0787,6.0787,6.0787,6.0787,6.0787,6.0787,6.0787,6.055,6.0127,5.9511,5.9011,5.8473,5.7896,5.7016,5.6593,5.6593,5.5978,5.5708,5.5708,5.5708,5.5708,5.5631,5.4818,5.4857,5.5247,5.4434,5.4126,5.4126,5.4126,5.4126,5.4126,5.4126,5.4664,5.5439,5.6055,5.6401,5.6593,5.6593,5.7055,5.7396,5.6786,5.7247,5.7703,5.6824,5.7049,5.7742,5.855,5.8742,5.9011,5.9858,6.0242,6.0396,6.0396,6.0396,6.0396,6.0396,6.0204,6.0127,6.0358,6.0396,6.0512,6.0781,6.0787,6.0787,6.0787,6.0787,6.0787,6.0787,6.0787,6.0787,6.0787,6.0787,6.0787,6.0787,6.0787,6.0787,6.0787,6.0787,6.0787,6.0787,6.0787,6.0787,6.0787,6.0787,6.0787,6.0787,6.0787,6.0867,6.093,6.093,6.1027,6.1132,6.119,6.1214,6.1234,6.1383,6.1481,6.1511,6.0787,6.0787,6.0787,6.0787,6.0787,6.0787,6.0787,6.0787,6.0787,6.0787,6.0787,6.0787,6.0787,6.0787,6.0787,6.0787,6.0787,6.0787,6.0787,6.0787,6.0787,6.0787,6.0787,6.0787,6.0787,6.0787,6.055,6.0012,5.9665,5.9242,5.8742,5.7555,5.717,5.7478,5.6247,5.5901,5.6209,5.5862,5.5708,5.567,5.517,5.5285,5.567,5.517,5.4972,5.4972,5.4972,5.4972,5.4972,5.4972,5.5516,5.6324,5.6824,5.7247,5.7517,5.7517,5.7896,5.8204,5.7671,5.8127,5.8665,5.8132,5.8165,5.8506,5.9319,5.9511,5.9742,6.0633,6.0787,6.0787,6.0787,6.0787,6.0787,6.0787,6.0787,6.0787,6.0787,6.0787,6.0787,6.0787,6.0787,6.0787,6.0787,6.0787,6.0787,6.0787,6.0787,6.0787,6.0787,6.0787,6.0787,6.0787,6.0787,6.0787,6.0787,6.0787,6.0787,6.0787,6.0787,6.0787,6.0787,6.0787,6.0787,6.0793,6.0872,6.094,6.101,6.1093,6.1193,6.1292,6.1349,6.1371,6.1385,6.1519,6.1579,6.1584,6.0787,6.0787,6.0787,6.0787,6.0787,6.0787,6.0787,6.0787,6.0787,6.0787,6.0787,6.0787,6.0787,6.0787,6.0787,6.0787,6.0787,6.0787,6.0787,6.0787,6.0787,6.0787,6.0787,6.0787,6.0787,6.0787,6.0787,6.0787,6.0012,5.9627,5.9588,5.7978,5.7632,5.8319,5.6665,5.6324,5.6945,5.6132,5.5785,5.5708,5.5708,5.5708,5.5708,5.5708,5.5708,5.5708,5.5708,5.5708,5.5708,5.5708,5.6247,5.6907,5.6983,5.7594,5.8313,5.8313,5.839,5.8511,5.8429,5.9006,5.9627,5.9627,5.9088,5.8704,5.9435,5.9627,5.9858,6.0633,6.0787,6.0787,6.0787,6.0787,6.0787,6.0787,6.0787,6.0787,6.0787,6.0787,6.0787,6.0787,6.0787,6.0787,6.0787,6.0787,6.0787,6.0787,6.0787,6.0787,6.0787,6.0787,6.0787,6.0787,6.0787,6.0787,6.0787,6.0787,6.0787,6.0787,6.0787,6.0787,6.0787,6.0816,6.0827,6.0844,6.0968,6.1044,6.1077,6.1246,6.1315,6.1339,6.1485,6.1514,6.1521,6.1638,6.1719,6.1719,6.0787,6.0787,6.0787,6.0787,6.0787,6.0787,6.0787,6.0787,6.0787,6.0787,6.0787,6.0787,6.0787,6.0787,6.0787,6.0787,6.0787,6.0787,6.0787,6.0787,6.0787,6.0787,6.0787,6.0787,6.0787,6.0787,6.0787,6.0787,6.0594,6.0512,6.0517,5.9435,5.905,5.9204,5.8204,5.7473,5.6983,5.6786,5.6324,5.5708,5.5708,5.5708,5.5708,5.5708,5.5708,5.5708,5.5708,5.5708,5.5708,5.5708,5.5824,5.6093,5.6786,5.7594,5.8313,5.8313,5.9242,6.0127,5.9435,5.9858,6.0512,6.0512,6.0402,6.0281,6.0473,6.0512,6.0556,6.0748,6.0787,6.0787,6.0787,6.0787,6.0787,6.0787,6.0787,6.0787,6.0787,6.0787,6.0787,6.0787,6.0787,6.0787,6.0787,6.0787,6.0787,6.0787,6.0787,6.0787,6.0787,6.0787,6.0787,6.0787,6.0787,6.0787,6.0787,6.0787,6.0787,6.0787,6.0787,6.0787,6.0793,6.0905,6.0959,6.0973,6.1154,6.1306,6.1404,6.1426,6.1514,6.163,6.1636,6.1677,6.1677,6.1679,6.1719,6.1719,6.0787,6.0787,6.0787,6.0787,6.0787,6.0787,6.0787,6.0787,6.0787,6.0787,6.0787,6.0787,6.0787,6.0787,6.0787,6.0787,6.0787,6.0787,6.0787,6.0787,6.0787,6.0787,6.0787,6.0787,6.0787,6.0787,6.0787,6.0787,6.085,6.0918,6.0879,6.0083,5.9943,6.0317,5.8969,5.8143,5.7714,5.7653,5.6901,5.5747,5.6132,5.6055,5.5708,5.5708,5.5708,5.5708,5.5708,5.5708,5.5708,5.5708,5.5978,5.6478,5.7363,5.8204,5.8934,5.9358,6.0127,6.071,6.0242,6.0435,6.0787,6.0787,6.0787,6.0787,6.0787,6.0787,6.0787,6.0787,6.0787,6.0787,6.0787,6.0787,6.0787,6.0787,6.0787,6.0787,6.0787,6.0787,6.0787,6.0787,6.0787,6.0787,6.0787,6.0787,6.0787,6.0787,6.0787,6.0787,6.0787,6.0787,6.0787,6.0787,6.0787,6.0787,6.0787,6.0787,6.0787,6.0787,6.0787,6.0787,6.0793,6.0925,6.1001,6.1019,6.1298,6.1458,6.1507,6.1576,6.1635,6.1719,6.1719,6.1719,6.1719,6.1719,6.1719,6.1719,6.0787,6.0787,6.0787,6.0787,6.0787,6.0787,6.0787,6.0787,6.0787,6.0787,6.0787,6.0787,6.0787,6.0787,6.0787,6.0787,6.0787,6.0787,6.0787,6.0787,6.0787,6.0787,6.0787,6.081,6.0823,6.0823,6.0823,6.0823,6.094,6.1019,6.1022,6.0495,6.058,6.1162,5.9615,5.8815,5.8651,5.8422,5.7396,5.5978,5.6555,5.6324,5.5708,5.5708,5.5708,5.5708,5.5708,5.5708,5.5708,5.5708,5.617,5.6912,5.7643,5.8544,5.9474,6.0201,6.063,6.0811,6.0798,6.0787,6.0787,6.0787,6.0787,6.0787,6.0787,6.0787,6.0787,6.0787,6.0787,6.0787,6.0787,6.0787,6.0787,6.0787,6.0787,6.0787,6.0787,6.0787,6.0787,6.0787,6.0787,6.0787,6.0787,6.0787,6.0787,6.0787,6.0787,6.0787,6.0787,6.0787,6.0787,6.0787,6.0787,6.0787,6.0787,6.0787,6.0787,6.0787,6.0787,6.081,6.0834,6.0991,6.1077,6.1093,6.1415,6.1521,6.1526,6.1638,6.1719,6.1719,6.1719,6.1719,6.1719,6.1719,6.1719,6.1719,6.0787,6.0787,6.0787,6.0787,6.0787,6.0787,6.0787,6.0787,6.0787,6.0787,6.0787,6.0787,6.0787,6.0787,6.0787,6.0787,6.0787,6.0787,6.0787,6.0787,6.0787,6.0787,6.0787,6.0867,6.0986,6.0952,6.0952,6.0952,6.0984,6.1097,6.1256,6.1161,6.1094,6.1044,6.0782,6.0186,5.9337,5.8605,5.7742,5.6786,5.6132,5.5824,5.5708,5.5708,5.5708,5.5708,5.5708,5.5708,5.5708,5.5708,5.5785,5.5905,5.6157,5.731,5.8673,5.8772,5.9821,6.0944,6.0817,6.0787,6.0787,6.0787,6.0787,6.0787,6.0787,6.0787,6.0787,6.0787,6.0787,6.0787,6.0787,6.0787,6.0787,6.0787,6.0787,6.0787,6.0787,6.0787,6.0787,6.0787,6.0787,6.0787,6.0787,6.0787,6.0787,6.0787,6.0787,6.0787,6.0787,6.0787,6.0787,6.0787,6.0787,6.0787,6.0787,6.0787,6.0787,6.0787,6.0787,6.0844,6.1,6.1172,6.1328,6.1435,6.1589,6.1678,6.1679,6.1679,6.1719,6.1719,6.1719,6.1719,6.1719,6.1719,6.1719,6.1719,6.0787,6.0787,6.0787,6.0787,6.0787,6.0787,6.0787,6.0787,6.0787,6.0787,6.0787,6.0787,6.0787,6.0787,6.0787,6.0787,6.0787,6.0787,6.0787,6.0787,6.0787,6.0787,6.0866,6.093,6.0997,6.112,6.1185,6.1279,6.1279,6.1308,6.1402,6.1496,6.1499,6.1378,6.1223,6.0394,5.9055,5.8999,5.7934,5.6285,5.6401,5.6132,5.5708,5.5708,5.5708,5.5708,5.5708,5.5708,5.5708,5.5708,5.5768,5.5984,5.7022,5.7947,5.881,5.9774,6.0511,6.0979,6.0945,6.0872,6.0787,6.0787,6.0787,6.0787,6.0787,6.0787,6.0787,6.0787,6.0787,6.0787,6.0787,6.121,6.1364,6.0864,6.121,6.1364,6.0864,6.0787,6.0787,6.0787,6.0787,6.0787,6.0787,6.0787,6.0787,6.0787,6.0787,6.0787,6.0787,6.0787,6.0787,6.0787,6.0787,6.0787,6.0787,6.0787,6.0787,6.0787,6.0876,6.0935,6.101,6.121,6.1364,6.1508,6.1636,6.1719,6.1719,6.1719,6.1719,6.1719,6.1719,6.1719,6.1719,6.1719,6.1719,6.1719]}]]